Date StartTime U_cm/s V_cm/s W_cm/s Ustd_cm/s Vstd_cm/s Wstd_cm/s Uvar_(cm/s)^2 Vvar_(cm/s)^2 Wvar_(cm/s)^2 KE_(m/s)^2 TurbulentKE_(m/s)^2 HorizWindSpeed_cm/s FrictionSpeec_cm/s DragCoef SpeedOfSound_m/s SonicTemperature_C Pressure_mb 
10/02/2013  00:00:00     -142.108      196.255      -32.457       83.616       88.626       50.254     6991.573     7854.585     2525.481        3.856        0.869      242.303       56.308        0.054      339.185       12.344      860.832
10/02/2013  00:01:00     -121.004      157.750      -19.457       50.061       64.284       37.527     2506.112     4132.463     1408.308        2.397        0.402      198.814       31.883        0.026      339.200       12.367      860.838
10/02/2013  00:02:00      -79.388      112.302      -11.020       50.552       49.684       37.799     2555.515     2468.493     1428.728        1.274        0.323      137.529       29.635        0.046      339.189       12.351      860.864
10/02/2013  00:03:00      -45.625      149.611      -15.349       50.102       89.203       33.529     2510.245     7957.110     1124.227        1.814        0.580      156.414       32.700        0.044      339.155       12.293      860.876
10/02/2013  00:04:00      -95.774      170.265      -21.078       52.763       94.455       38.981     2783.985     8921.829     1519.515        2.591        0.661      195.353       39.277        0.040      339.143       12.273      860.880
10/02/2013  00:05:00      -78.404      105.895      -17.543       53.473       57.357       34.840     2859.400     3289.788     1213.831        1.251        0.368      131.761       26.568        0.041      339.152       12.289      860.901
10/02/2013  00:06:00     -126.411      141.545      -38.732       63.939       56.068       32.178     4088.144     3143.651     1035.426        2.289        0.413      189.775       33.375        0.031      339.189       12.349      860.902
10/02/2013  00:07:00     -117.818      112.977      -19.244       55.545       65.049       32.864     3085.210     4231.388     1080.042        1.770        0.420      163.233       27.743        0.029      339.208       12.382      860.905
10/02/2013  00:08:00     -116.806      139.342      -25.948       58.217       61.367       35.089     3389.245     3765.937     1231.229        2.106        0.419      181.824       27.075        0.022      339.195       12.359      860.905
10/02/2013  00:09:00     -111.074      133.010      -17.226       57.968       68.783       38.276     3360.322     4731.070     1465.087        1.994        0.478      173.289       36.886        0.045      339.166       12.312      860.896
10/02/2013  00:10:00     -151.319      193.400      -43.898       73.634       68.927       40.574     5421.907     4750.949     1646.240        3.702        0.591      245.562       37.433        0.023      339.187       12.345      860.896
10/02/2013  00:11:00     -151.895      183.427      -34.990       62.149       79.397       46.920     3862.493     6303.892     2201.478        3.515        0.618      238.154       39.904        0.028      339.187       12.346      860.894
10/02/2013  00:12:00     -168.104      217.954      -38.291       83.060       93.995       55.291     6899.014     8835.098     3057.134        4.801        0.940      275.251       55.049        0.040      339.185       12.344      860.910
10/02/2013  00:13:00     -190.566      257.557      -49.981       73.498       73.728       43.920     5401.913     5435.800     1928.948        5.896        0.638      320.392       39.667        0.015      339.187       12.346      860.912
10/02/2013  00:14:00     -179.126      178.439      -45.881       91.335       86.493       54.132     8342.149     7480.963     2930.263        4.239        0.938      252.837       53.830        0.045      339.140       12.267      860.925
10/02/2013  00:15:00     -183.517      136.425      -30.712       75.425       82.436       51.063     5688.981     6795.757     2607.409        3.416        0.755      228.670       40.985        0.032      339.162       12.302      860.926
10/02/2013  00:16:00     -157.439      215.231      -43.377       59.187      115.976       40.685     3503.086    13450.521     1655.246        4.580        0.930      266.667       35.888        0.018      339.141       12.268      860.921
10/02/2013  00:17:00     -192.588      236.144      -48.283       83.818       84.066       41.572     7025.442     7067.048     1728.197        5.550        0.791      304.720       45.280        0.022      339.153       12.287      860.941
10/02/2013  00:18:00     -209.445      167.178      -44.248       59.949       82.881       37.554     3593.861     6869.244     1410.312        4.282        0.594      267.984       28.266        0.011      339.195       12.357      860.940
10/02/2013  00:19:00     -146.493      143.697      -28.000       77.118       89.039       42.162     5947.135     7927.981     1777.594        2.927        0.783      205.205       33.067        0.026      339.186       12.344      860.930
10/02/2013  00:20:00     -147.985      133.754      -30.461       78.431       91.762       53.112     6151.379     8420.233     2820.935        2.905        0.870      199.474       42.506        0.045      339.204       12.375      860.939
10/02/2013  00:21:00     -182.631       95.210      -14.427       81.966       70.148       47.441     6718.406     4920.798     2250.663        2.826        0.694      205.959       44.251        0.046      339.215       12.392      860.938
10/02/2013  00:22:00     -103.983      138.266      -11.780       64.377       57.982       41.609     4144.438     3361.857     1731.268        1.965        0.462      173.003       39.705        0.053      339.174       12.324      860.950
10/02/2013  00:23:00      -96.016      121.234      -20.176       60.772       48.454       36.637     3693.216     2347.753     1342.256        1.585        0.369      154.651       39.372        0.065      339.179       12.333      860.965
10/02/2013  00:24:00     -142.964      171.602      -30.350       63.312       81.926       39.231     4008.438     6711.797     1539.099        3.153        0.613      223.352       37.733        0.029      339.211       12.387      860.961
10/02/2013  00:25:00     -175.247       86.709      -29.382       53.421       50.265       39.381     2853.784     2526.543     1550.838        2.301        0.347      195.525       32.988        0.028      339.252       12.454      860.956
10/02/2013  00:26:00     -159.912      185.534      -41.812       94.186       78.043       45.910     8871.045     6090.723     2107.687        3.940        0.853      244.938       50.681        0.043      339.230       12.416      860.944
10/02/2013  00:27:00     -148.503      227.365      -32.921       67.791       79.581       40.415     4595.633     6333.179     1633.364        4.369        0.628      271.565       35.025        0.017      339.231       12.418      860.940
10/02/2013  00:28:00     -132.802       86.499      -26.160       49.675       85.779       37.421     2467.603     7357.955     1400.323        1.851        0.561      158.488       30.369        0.037      339.251       12.455      860.931
10/02/2013  00:29:00     -150.040      130.599      -15.004       56.696       96.495       36.732     3214.391     9311.372     1349.270        2.683        0.694      198.917       32.757        0.027      339.239       12.432      860.928
10/02/2013  00:30:00      -61.023       58.526       -3.522       34.659       61.091       33.275     1201.254     3732.089     1107.203        0.660        0.302       84.552       26.424        0.098      339.207       12.382      860.925
10/02/2013  00:31:00      -86.066       54.446      -11.279       46.408       39.638       33.817     2153.747     1571.179     1143.572        0.768        0.243      101.841       28.164        0.076      339.240       12.437      860.944
10/02/2013  00:32:00      -96.892       97.218      -10.804       53.493       57.247       42.694     2861.495     3277.232     1822.793        1.346        0.398      137.257       39.691        0.084      339.236       12.432      860.933
10/02/2013  00:33:00     -127.097      152.844      -14.716       71.856       98.187       43.960     5163.306     9640.650     1932.467        2.823        0.837      198.783       44.383        0.050      339.207       12.380      860.950
10/02/2013  00:34:00     -147.491      172.180      -29.518       45.837       60.908       40.527     2101.012     3709.761     1642.426        2.986        0.373      226.714       21.775        0.009      339.226       12.412      860.950
10/02/2013  00:35:00     -129.334       91.513      -19.741       81.796       69.805       41.625     6690.571     4872.717     1732.622        1.939        0.665      158.436       43.379        0.075      339.199       12.367      860.949
10/02/2013  00:36:00     -169.053      146.251      -25.423       79.235       77.520       45.263     6278.244     6009.405     2048.729        3.247        0.717      223.536       44.715        0.040      339.209       12.381      860.950
10/02/2013  00:37:00     -152.459      137.511      -29.537       58.319       62.758       38.841     3401.092     3938.525     1508.638        2.594        0.442      205.312       32.680        0.025      339.176       12.327      860.945
10/02/2013  00:38:00     -182.725      163.627      -34.500       64.283      102.156       43.151     4132.265    10435.879     1861.971        3.889        0.822      245.280       33.435        0.019      339.214       12.390      860.944
10/02/2013  00:39:00     -137.245      175.118      -27.292       56.285       81.201       45.732     3167.956     6593.604     2091.399        3.105        0.593      222.491       39.101        0.031      339.180       12.334      860.931
10/02/2013  00:40:00     -145.987      102.098      -34.469       35.132       52.097       26.107     1234.284     2714.105      681.572        1.878        0.231      178.146       21.846        0.015      339.206       12.381      860.922
10/02/2013  00:41:00     -130.603       98.833      -19.711       62.764       70.961       36.278     3939.274     5035.430     1316.089        1.875        0.515      163.784       25.676        0.025      339.175       12.326      860.919
10/02/2013  00:42:00      -96.279       54.340      -17.191       62.387       55.032       36.433     3892.127     3028.551     1327.389        1.038        0.412      110.556       11.440        0.011      339.204       12.377      860.914
10/02/2013  00:43:00      -79.223       60.030       -1.261       51.690       58.787       31.646     2671.879     3455.911     1001.470        0.850        0.356       99.398       20.697        0.043      339.205       12.379      860.918
10/02/2013  00:44:00      -70.400       58.561       -0.814       44.116       38.608       20.388     1946.204     1490.608      415.690        0.612        0.193       91.572       20.333        0.049      339.135       12.261      860.931
10/02/2013  00:45:00      -98.381       -2.345       -9.819       34.824       45.547       16.550     1212.703     2074.546      273.916        0.667        0.178       98.409       12.327        0.016      339.227       12.416      860.939
10/02/2013  00:46:00      -82.446       39.475      -12.137       36.784       51.049       24.560     1353.082     2605.974      603.202        0.653        0.228       91.409       28.249        0.096      339.206       12.379      860.946
10/02/2013  00:47:00      -91.142       41.375      -20.550       28.484       56.190       27.732      811.360     3157.339      769.053        0.759        0.237      100.093       18.689        0.035      339.185       12.345      860.937
10/02/2013  00:48:00     -111.926       92.019      -21.248       44.018       75.415       28.397     1937.606     5687.481      806.413        1.494        0.422      144.896       22.114        0.023      339.183       12.341      860.944
10/02/2013  00:49:00      -94.157       82.398      -11.630       53.936       64.928       33.071     2909.090     4215.646     1093.711        1.200        0.411      125.120       29.443        0.055      339.156       12.296      860.955
10/02/2013  00:50:00     -126.893       99.236      -24.964       49.475       48.198       29.958     2447.758     2323.058      897.473        1.612        0.283      161.089       23.241        0.021      339.154       12.293      860.957
10/02/2013  00:51:00     -160.440      115.714      -26.182       78.110       75.273       41.193     6101.235     5665.994     1696.833        2.664        0.673      197.815       41.070        0.043      339.156       12.295      860.957
10/02/2013  00:52:00     -104.826       99.607      -10.989       43.892       51.180       29.784     1926.551     2619.351      887.114        1.323        0.272      144.604       20.681        0.020      339.087       12.180      860.950
10/02/2013  00:53:00     -124.369      129.759      -29.030       45.932       54.895       29.611     2109.728     3013.448      876.839        1.957        0.300      179.736       28.732        0.026      339.130       12.252      860.949
10/02/2013  00:54:00     -154.011      169.932      -33.047       59.386       86.711       36.531     3526.640     7518.711     1334.542        3.303        0.619      229.339       29.832        0.017      339.158       12.297      860.945
10/02/2013  00:55:00     -152.056      135.310      -26.202       59.870       95.816       44.696     3584.434     9180.759     1997.705        2.844        0.738      203.544       43.663        0.046      339.180       12.333      860.931
10/02/2013  00:56:00     -122.725      107.231      -18.708       65.306       66.969       36.804     4264.929     4484.892     1354.553        1.851        0.505      162.972       34.499        0.045      339.117       12.230      860.906
10/02/2013  00:57:00      -99.309       18.016      -24.795       36.736       38.949       22.955     1349.544     1517.016      526.938        0.710        0.170      100.930       19.262        0.036      339.155       12.295      860.888
10/02/2013  00:58:00     -120.653       98.996      -11.109       58.100       75.792       37.403     3375.635     5744.492     1398.953        1.750        0.526      156.069       34.954        0.050      339.134       12.258      860.873
10/02/2013  00:59:00     -114.111        8.752      -13.109       61.273       52.893       35.683     3754.387     2797.639     1273.291        1.055        0.391      114.446       36.784        0.103      339.171       12.322      860.861
10/02/2013  01:00:00      -66.869       66.660      -15.620       35.267       31.738       21.363     1243.786     1007.315      456.367        0.593        0.135       94.419       22.608        0.057      339.125       12.245      860.848
10/02/2013  01:01:00      -62.722       58.285      -10.196       36.607       45.281       23.831     1340.042     2050.354      567.901        0.570        0.198       85.622       17.884        0.044      339.101       12.204      860.844
10/02/2013  01:02:00      -82.743       58.359      -15.572       48.680       44.608       23.522     2369.775     1989.842      553.263        0.770        0.246      101.253       25.255        0.062      339.127       12.248      860.844
10/02/2013  01:03:00      -68.347       42.086       -6.829       58.863       66.396       26.346     3464.843     4408.464      694.136        0.753        0.428       80.265       28.915        0.130      339.099       12.200      860.850
10/02/2013  01:04:00      -61.702      -10.297       -8.477       52.036       34.688       26.775     2707.742     1203.260      716.914        0.431        0.231       62.556       27.598        0.195      339.163       12.308      860.858
10/02/2013  01:05:00      -25.561        2.786        7.327       64.872       51.267       26.420     4208.332     2628.305      698.007        0.412        0.377       25.712       31.154        1.468      339.090       12.186      860.870
10/02/2013  01:06:00      -46.768       75.492       -3.655       43.924       90.567       26.010     1929.334     8202.373      676.504        0.935        0.540       88.805       18.884        0.045      339.055       12.126      860.894
10/02/2013  01:07:00      -15.959       18.613       17.552       20.808       25.570       14.523      432.974      653.837      210.909        0.110        0.065       24.519       12.317        0.252      338.960       11.968      860.900
10/02/2013  01:08:00       10.442      -46.787      -15.588       17.183       26.741       14.793      295.265      715.056      218.827        0.188        0.061       47.938        7.274        0.023      339.110       12.217      860.901
10/02/2013  01:09:00       -6.605      -41.636       -6.279       39.419       23.293       13.676     1553.857      542.577      187.036        0.205        0.114       42.157       10.240        0.059      339.026       12.077      860.902
10/02/2013  01:10:00      -22.239      -29.116       -1.501       41.432       23.168       18.686     1716.649      536.739      349.174        0.197        0.130       36.638        9.720        0.070      339.009       12.048      860.897
10/02/2013  01:11:00      -21.979      -27.866        6.167       35.797       24.476       23.305     1281.424      599.075      543.142        0.186        0.121       35.491       21.026        0.351      338.912       11.886      860.892
10/02/2013  01:12:00     -105.141      -52.630       -0.349       61.205       41.684       22.425     3746.084     1737.571      502.866        0.990        0.299      117.578       20.109        0.029      338.874       11.822      860.900
10/02/2013  01:13:00      -69.562      -71.923        3.914       48.410       35.661       21.614     2343.534     1271.707      467.168        0.705        0.204      100.059       24.694        0.061      338.833       11.752      860.913
10/02/2013  01:14:00      -34.217      -29.354       12.228       42.797       33.424       19.445     1831.561     1117.187      378.103        0.275        0.166       45.083       16.489        0.134      338.798       11.694      860.918
10/02/2013  01:15:00      -41.084      -72.536       -6.103       45.657       34.389       27.109     2084.555     1182.638      734.886        0.549        0.200       83.363       18.236        0.048      338.749       11.611      860.928
10/02/2013  01:16:00      -11.724      -45.182       -2.746       29.432       25.757       20.384      866.268      663.407      415.525        0.207        0.097       46.678       13.766        0.087      338.718       11.562      860.935
10/02/2013  01:17:00      -35.709      -64.215       -9.864       48.229       33.778       22.565     2326.021     1140.921      509.194        0.474        0.199       73.476       10.046        0.019      338.705       11.538      860.943
10/02/2013  01:18:00      -94.132      -92.297      -12.594       45.688       40.007       23.500     2087.410     1600.541      552.234        1.089        0.212      131.832       23.574        0.032      338.654       11.454      860.945
10/02/2013  01:19:00      -74.839      -69.523        4.555       45.026       36.289       28.408     2027.315     1316.919      807.040        0.730        0.208      102.148       25.174        0.061      338.628       11.407      860.938
10/02/2013  01:20:00      -98.542      -83.175        2.954       49.808       43.652       27.380     2480.802     1905.523      749.679        1.089        0.257      128.952       24.243        0.035      338.591       11.347      860.926
10/02/2013  01:21:00     -103.106     -111.430        6.209       63.101       47.322       38.264     3981.675     2239.378     1464.158        1.538        0.384      151.814       37.727        0.062      338.661       11.464      860.920
10/02/2013  01:22:00      -59.372     -111.455       -3.307       41.782       50.682       29.518     1745.752     2568.653      871.312        1.057        0.259      126.283       30.597        0.059      338.586       11.338      860.915
10/02/2013  01:23:00      -80.100      -85.231       -2.276       58.063       41.147       33.243     3371.333     1693.066     1105.084        0.993        0.308      116.963       31.744        0.074      338.714       11.554      860.926
10/02/2013  01:24:00     -146.089      -63.698       -6.236       50.435       45.349       26.826     2543.644     2056.554      719.644        1.538        0.266      159.372       23.276        0.021      338.934       11.921      860.941
10/02/2013  01:25:00      -38.378      -15.831       -5.217       41.941       26.331       17.511     1759.052      693.335      306.640        0.225        0.138       41.515       18.204        0.192      339.034       12.089      860.953
10/02/2013  01:26:00      -40.891      -73.367       -0.984       32.084       36.170       19.549     1029.392     1308.251      382.144        0.489        0.136       83.993       15.630        0.035      338.948       11.947      860.957
10/02/2013  01:27:00      -81.690      -33.224        7.023       53.399       33.191       18.891     2851.430     1101.637      356.873        0.607        0.215       88.187       20.837        0.056      338.733       11.586      860.967
10/02/2013  01:28:00      -37.000      -43.241        3.361       28.375       20.970       18.258      805.142      439.736      333.367        0.241        0.079       56.910       12.834        0.051      338.703       11.534      860.986
10/02/2013  01:29:00       -1.460        5.271       15.016       30.868       28.961       25.040      952.815      838.711      626.999        0.134        0.121        5.469       17.531       10.274      338.916       11.894      860.975
10/02/2013  01:30:00      -50.023      -20.798       -0.764       21.802       31.541       13.108      475.337      994.838      171.810        0.229        0.082       54.174       13.490        0.062      338.758       11.628      860.989
10/02/2013  01:31:00      -15.353      -10.039       10.930       18.033       17.888       10.493      325.196      319.997      110.112        0.061        0.038       18.344        5.881        0.103      338.587       11.341      861.004
10/02/2013  01:32:00       -2.354       -0.371        2.305        8.850        8.622        6.537       78.315       74.331       42.731        0.010        0.010        2.383        4.895        4.221      338.460       11.127      861.004
10/02/2013  01:33:00        4.974       37.102       -2.384       33.307       14.818        8.863     1109.340      219.586       78.553        0.141        0.070       37.434        9.065        0.059      338.481       11.160      861.006
10/02/2013  01:34:00      -62.477       21.677       -6.174       29.650       13.038        7.185      879.106      169.983       51.622        0.276        0.055       66.131        8.618        0.017      338.527       11.240      861.011
10/02/2013  01:35:00      -33.887       10.275       -7.169       26.982       24.312       15.904      728.047      591.074      252.949        0.144        0.079       35.410       12.807        0.131      338.863       11.804      861.008
10/02/2013  01:36:00      -31.139       -7.789       -3.323       16.412       26.251       19.106      269.358      689.134      365.043        0.118        0.066       32.099       12.216        0.145      339.053       12.122      860.994
10/02/2013  01:37:00      -19.081      -19.008        2.208       15.984       18.144       12.704      255.496      329.198      161.392        0.074        0.037       26.933        7.900        0.086      338.895       11.857      861.012
10/02/2013  01:38:00      -31.381       37.945       -7.304       21.037       19.910       13.109      442.567      396.406      171.849        0.174        0.051       49.240       11.095        0.051      338.620       11.397      861.035
10/02/2013  01:39:00      -56.385       28.542       -6.884       12.948       16.800       12.322      167.652      282.226      151.829        0.232        0.030       63.198       11.600        0.034      338.726       11.574      861.041
10/02/2013  01:40:00      -36.918       20.544       -1.108       13.271       15.489        9.692      176.132      239.910       93.931        0.115        0.025       42.249        9.612        0.052      338.726       11.573      861.039
10/02/2013  01:41:00      -65.903       89.462      -16.218       31.471       45.160       19.914      990.417     2039.435      396.568        0.802        0.171      111.116       21.146        0.036      338.821       11.733      861.043
10/02/2013  01:42:00      -76.130       84.499      -18.005       32.809       34.518       21.299     1076.427     1191.478      453.656        0.799        0.136      113.735       18.785        0.027      338.781       11.665      861.044
10/02/2013  01:43:00     -106.409       98.915      -27.009       28.547       34.114       18.208      814.918     1163.734      331.527        1.207        0.116      145.283       12.197        0.007      338.855       11.790      861.045
10/02/2013  01:44:00      -69.575       95.889      -17.559       50.861       37.728       25.707     2586.793     1423.421      660.845        0.951        0.234      118.471       20.992        0.031      338.780       11.666      861.047
10/02/2013  01:45:00      -71.415       52.755      -17.314       27.528       31.089       17.340      757.787      966.514      300.665        0.510        0.101       88.788       13.810        0.024      338.730       11.581      861.050
10/02/2013  01:46:00      -54.718       67.668      -12.356       43.380       31.262       20.838     1881.790      977.304      434.203        0.551        0.165       87.023       15.138        0.030      338.767       11.642      861.057
10/02/2013  01:47:00      -54.368       38.572       -5.966       27.530       39.046       20.483      757.920     1524.569      419.572        0.359        0.135       66.661       16.652        0.062      338.775       11.655      861.058
10/02/2013  01:48:00      -38.432       14.895        0.239       23.559       20.185       12.660      555.012      407.453      160.282        0.141        0.056       41.217       10.098        0.060      338.766       11.640      861.067
10/02/2013  01:49:00      -41.524       19.370       -2.301       10.126       13.916        8.557      102.530      193.654       73.225        0.124        0.018       45.820        6.306        0.019      338.628       11.409      861.073
10/02/2013  01:50:00       -2.973      -12.538      -14.494       10.019       15.447        5.781      100.381      238.621       33.422        0.037        0.019       12.885        4.791        0.138      338.584       11.335      861.062
10/02/2013  01:51:00       18.040      -43.302      -12.462       18.273       16.376       19.352      333.893      268.177      374.506        0.167        0.049       46.909       12.395        0.070      338.551       11.280      861.043
10/02/2013  01:52:00       12.554      -16.963       -1.359       15.009       21.520       11.730      225.269      463.127      137.582        0.064        0.041       21.104        7.698        0.133      338.533       11.250      861.019
10/02/2013  01:53:00       20.807       12.523        1.323       14.533       15.065       16.308      211.199      226.939      265.949        0.065        0.035       24.285        8.279        0.116      338.327       10.902      861.015
10/02/2013  01:54:00       -2.036      -11.724        9.817       11.730       17.112       11.581      137.603      292.831      134.123        0.040        0.028       11.900        7.795        0.429      338.179       10.655      861.007
10/02/2013  01:55:00       12.392      -12.451        1.740       10.891        9.363        9.528      118.620       87.662       90.781        0.030        0.015       17.566        7.230        0.169      338.183       10.662      861.002
10/02/2013  01:56:00       12.750      -37.369        1.065       21.601       14.173       10.404      466.595      200.872      108.243        0.117        0.039       39.484        9.686        0.060      338.304       10.865      860.991
10/02/2013  01:57:00        5.480      -30.342        1.147       16.529       12.385       10.168      273.203      153.384      103.389        0.074        0.026       30.832        9.516        0.095      338.317       10.886      860.987
10/02/2013  01:58:00       -9.848       -4.044        7.513       20.809       11.596        8.664      433.004      134.458       75.064        0.041        0.032       10.646        7.530        0.500      338.264       10.797      860.978
10/02/2013  01:59:00      -15.008      -24.084        8.679       23.099       16.318       13.177      533.570      266.293      173.630        0.093        0.049       28.377       10.795        0.145      338.221       10.723      860.973
10/02/2013  02:00:00      -21.494      -19.561        4.310       15.767       13.548       10.203      248.606      183.559      104.092        0.070        0.027       29.063        6.304        0.047      338.197       10.684      860.976
10/02/2013  02:01:00      -56.925      -18.672       -5.179       18.033       15.953        8.356      325.175      254.493       69.823        0.213        0.032       59.909        7.736        0.017      338.309       10.873      860.977
10/02/2013  02:02:00      -79.581      -52.631       -8.441       25.855       17.847       13.730      668.468      318.529      188.505        0.517        0.059       95.411       10.085        0.011      338.236       10.750      860.977
10/02/2013  02:03:00      -15.905      -30.088       16.369       44.872       24.341       20.455     2013.475      592.467      418.402        0.222        0.151       34.033       19.990        0.345      338.110       10.539      860.976
10/02/2013  02:04:00      -44.953      -35.273       -1.901       33.951       34.692       17.245     1152.699     1203.546      297.406        0.296        0.133       57.140       17.842        0.098      338.101       10.523      860.971
10/02/2013  02:05:00      -39.271      -46.400       12.182       40.502       21.208       18.132     1640.374      449.764      328.755        0.313        0.121       60.788       17.060        0.079      338.059       10.454      860.979
10/02/2013  02:06:00      -84.313      -54.237        0.934       33.729       24.290       14.813     1137.632      589.982      219.411        0.600        0.097      100.251       14.745        0.022      338.047       10.433      860.990
10/02/2013  02:07:00      -67.993      -48.825        3.408       26.461       25.841       13.550      700.173      667.743      183.609        0.428        0.078       83.707       12.010        0.021      338.057       10.451      860.981
10/02/2013  02:08:00      -92.580      -62.617        4.762       41.441       52.225       23.867     1717.373     2727.477      569.621        0.876        0.251      111.767       17.222        0.024      337.964       10.295      860.974
10/02/2013  02:09:00      -83.494      -57.519        3.407       52.445       35.740       29.051     2750.459     1277.357      843.932        0.758        0.244      101.389       23.699        0.055      337.835       10.078      860.960
10/02/2013  02:10:00      -96.819      -75.838       -1.562       50.864       42.310       29.457     2587.117     1790.131      867.686        1.019        0.262      122.985       27.441        0.050      337.779        9.984      860.955
10/02/2013  02:11:00     -123.347      -99.162      -14.118       33.252       29.539       27.013     1105.683      872.561      729.724        1.398        0.135      158.264       19.617        0.015      337.659        9.781      860.951
10/02/2013  02:12:00     -137.683     -111.286      -12.917       34.771       37.952       23.261     1209.032     1440.377      541.086        1.735        0.160      177.034       17.653        0.010      337.583        9.655      860.964
10/02/2013  02:13:00     -119.362     -119.459       -1.908       50.848       36.508       26.110     2585.476     1332.835      681.714        1.656        0.230      168.872       21.829        0.017      337.542        9.586      860.960
10/02/2013  02:14:00      -68.883      -56.125       15.010       68.490       38.293       30.448     4690.857     1466.359      927.072        0.760        0.354       88.853       37.544        0.179      337.496        9.508      860.942
10/02/2013  02:15:00      -36.889      -36.369       20.592       52.166       37.427       28.762     2721.309     1400.751      827.246        0.403        0.247       51.802       27.385        0.279      337.458        9.447      860.924
10/02/2013  02:16:00      -86.912      -81.100       -3.549       39.223       51.000       28.664     1538.434     2600.962      821.610        0.955        0.248      118.873       19.179        0.026      337.419        9.378      860.909
10/02/2013  02:17:00      -27.390      -41.080       -0.410       38.082       33.569       25.850     1450.228     1126.883      668.237        0.284        0.162       49.374       17.273        0.122      337.446        9.426      860.904
10/02/2013  02:18:00      -45.472      -34.723        6.140       46.244       25.428       24.995     2138.509      646.560      624.748        0.336        0.170       57.213       20.735        0.131      337.502        9.519      860.894
10/02/2013  02:19:00      -74.226      -46.091        6.492       44.354       25.652       18.245     1967.269      658.001      332.894        0.532        0.148       87.372       22.809        0.068      337.479        9.480      860.874
10/02/2013  02:20:00      -43.286     -104.089        1.305       42.770       68.283       23.138     1829.281     4662.560      535.350        0.987        0.351      112.731       25.095        0.050      337.510        9.533      860.862
10/02/2013  02:21:00      -33.029     -152.250       -4.282       36.721       55.258       36.735     1348.410     3053.424     1349.463        1.502        0.288      155.792       34.168        0.048      337.532        9.570      860.856
10/02/2013  02:22:00      -27.082     -128.179       -9.580       26.527       36.487       28.818      703.661     1331.292      830.493        1.006        0.143      131.009       24.640        0.035      337.620        9.717      860.843
10/02/2013  02:23:00      -39.807      -65.578       -4.284       37.493       34.785       21.115     1405.713     1209.973      445.852        0.448        0.153       76.714       16.866        0.048      337.673        9.807      860.841
10/02/2013  02:24:00      -71.330      -32.554        1.032       38.917       26.561       21.402     1514.511      705.476      458.032        0.441        0.134       78.408       17.185        0.048      337.490        9.500      860.839
10/02/2013  02:25:00      -55.690      -44.226        4.834       32.857       24.284       22.849     1079.569      589.720      522.082        0.364        0.110       71.115        8.771        0.015      337.358        9.279      860.845
10/02/2013  02:26:00      -39.621      -31.249        2.317       37.078       33.173       18.433     1374.814     1100.479      339.775        0.268        0.141       50.461       16.336        0.105      337.385        9.323      860.837
10/02/2013  02:27:00      -74.214      -33.635       -0.155       37.009       30.988       23.339     1369.665      960.225      544.688        0.476        0.144       81.480       14.776        0.033      337.278        9.145      860.834
10/02/2013  02:28:00      -47.937      -31.175       -3.968       21.426       21.334       13.653      459.064      455.160      186.399        0.219        0.055       57.183        5.002        0.008      337.352        9.268      860.834
10/02/2013  02:29:00      -98.940      -29.882        2.778       38.997       37.709       23.375     1520.743     1421.949      546.373        0.709        0.174      103.354       18.899        0.033      337.249        9.097      860.826
10/02/2013  02:30:00     -107.386      -65.671        1.435       29.313       36.692       25.096      859.258     1346.338      629.828        0.934        0.142      125.875       18.779        0.022      337.181        8.982      860.818
10/02/2013  02:31:00       -9.300      -35.715       12.428       59.258       33.668       22.724     3511.558     1133.538      516.361        0.334        0.258       36.906       26.856        0.530      337.236        9.075      860.819
10/02/2013  02:32:00      -12.567      -47.515       -0.117       28.724       34.051       29.535      825.096     1159.466      872.318        0.264        0.143       49.149       19.261        0.154      337.389        9.331      860.815
10/02/2013  02:33:00       -4.601      -74.736        9.253       29.291       32.704       18.486      857.939     1069.563      341.731        0.398        0.113       74.877       12.868        0.030      337.506        9.526      860.807
10/02/2013  02:34:00      -51.519      -33.290        6.843       65.948       40.460       22.905     4349.138     1637.044      524.621        0.516        0.326       61.339       26.087        0.181      337.331        9.232      860.808
10/02/2013  02:35:00      -71.767      -65.036        7.482       72.532       61.531       31.446     5260.942     3786.083      988.868        0.973        0.502       96.851       35.067        0.131      337.191        8.998      860.795
10/02/2013  02:36:00      -37.836      -68.674        5.483       39.168       53.401       21.079     1534.117     2851.716      444.342        0.550        0.242       78.407       26.470        0.114      337.401        9.350      860.776
10/02/2013  02:37:00      -79.971      -52.910        2.853       55.104       41.762       26.836     3036.402     1744.093      720.167        0.735        0.275       95.890       19.249        0.040      337.293        9.170      860.775
10/02/2013  02:38:00      -32.818      -79.435       13.108       38.972       45.430       23.268     1518.834     2063.919      541.419        0.584        0.206       85.947       14.502        0.028      337.366        9.291      860.768
10/02/2013  02:39:00      -29.171      -29.708      -10.696       26.824       23.777       10.423      719.542      565.357      108.634        0.162        0.070       41.635        4.649        0.012      337.461        9.450      860.759
10/02/2013  02:40:00      -38.772      -33.183        0.797       22.932       27.737       12.748      525.868      769.366      162.505        0.203        0.073       51.033        6.398        0.016      337.407        9.360      860.770
10/02/2013  02:41:00      -18.518      -38.870       -8.411       16.374       22.728       16.610      268.103      516.580      275.883        0.149        0.053       43.056       13.301        0.095      337.332        9.235      860.766
10/02/2013  02:42:00      -78.319      -30.665        0.074       21.631       19.528       12.762      467.886      381.341      162.862        0.404        0.051       84.108        8.057        0.009      337.271        9.133      860.765
10/02/2013  02:43:00      -41.574      -36.607        5.687       30.435       25.025       19.264      926.285      626.266      371.110        0.251        0.096       55.394       16.077        0.084      337.166        8.957      860.782
10/02/2013  02:44:00      -13.591      -20.807        4.401       27.357       26.525       18.501      748.415      703.554      342.288        0.122        0.090       24.853       14.458        0.338      337.179        8.981      860.778
10/02/2013  02:45:00      -24.708      -64.766        1.496       34.498       30.659       22.319     1190.127      939.979      498.160        0.372        0.131       69.319       20.198        0.085      337.244        9.086      860.782
10/02/2013  02:46:00        9.276      -18.377       26.736       26.511       24.552       20.477      702.832      602.803      419.294        0.143        0.086       20.585       16.714        0.659      337.302        9.185      860.786
10/02/2013  02:47:00      -10.983      -56.992       16.105       40.634       43.306       24.161     1651.106     1875.437      583.731        0.387        0.206       58.040       10.295        0.031      337.240        9.080      860.784
10/02/2013  02:48:00      -14.486       -4.526       15.150       42.567       30.352       25.819     1811.958      921.228      666.608        0.193        0.170       15.176       29.451        3.766      337.326        9.225      860.784
10/02/2013  02:49:00      -85.776      -32.127        0.071       48.083       26.291       19.669     2312.021      691.218      386.854        0.589        0.170       91.595       21.332        0.054      337.410        9.367      860.767
10/02/2013  02:50:00     -117.705      -48.561       -0.418       79.371       42.235       26.345     6299.748     1783.833      694.084        1.249        0.439      127.329       32.262        0.064      337.176        8.975      860.750
10/02/2013  02:51:00     -100.068        2.191      -14.132       36.752       50.397       23.957     1350.717     2539.829      573.961        0.734        0.223      100.092       23.299        0.054      337.386        9.327      860.742
10/02/2013  02:52:00      -60.918      -33.979       -5.753       43.490       29.852       26.822     1891.354      891.117      719.410        0.420        0.175       69.754       27.288        0.153      337.566        9.628      860.737
10/02/2013  02:53:00      -39.703      -18.207        4.182       60.350       39.161       14.402     3642.115     1533.620      207.406        0.365        0.269       43.678       20.996        0.231      337.650        9.768      860.728
10/02/2013  02:54:00      -39.028      -20.505       -0.957       42.136       33.868       17.686     1775.450     1147.069      312.796        0.259        0.162       44.087       13.998        0.101      337.412        9.369      860.735
10/02/2013  02:55:00     -108.971      -58.037       -0.635       71.781       36.661       22.882     5152.555     1344.055      523.583        1.113        0.351      123.463       25.020        0.041      337.243        9.085      860.721
10/02/2013  02:56:00      -50.345      -48.333        8.931       81.034       37.612       29.651     6566.439     1414.644      879.166        0.690        0.443       69.790       39.213        0.316      337.090        8.828      860.712
10/02/2013  02:57:00      -34.627       -1.256        8.296       23.449       22.531       15.628      549.853      507.654      244.226        0.129        0.065       34.650       15.727        0.206      337.162        8.949      860.719
10/02/2013  02:58:00      -41.133      -21.152        1.909       34.582       25.081       15.606     1195.947      629.072      243.535        0.211        0.103       46.253        9.054        0.038      337.158        8.945      860.714
10/02/2013  02:59:00      -31.852      -41.590        1.354       22.152       29.212       18.128      490.715      853.361      328.638        0.221        0.084       52.386       16.136        0.095      337.251        9.099      860.710
10/02/2013  03:00:00      -56.471      -56.746       -5.949       27.378       25.593       18.689      749.560      655.009      349.262        0.410        0.088       80.057       18.707        0.055      337.288        9.161      860.704
10/02/2013  03:01:00      -28.082      -28.576        2.852       30.273       23.665       22.383      916.427      560.053      501.002        0.179        0.099       40.064       18.194        0.206      337.245        9.090      860.712
10/02/2013  03:02:00      -50.597      -10.467        2.932       36.951       19.219       15.790     1365.351      369.363      249.320        0.233        0.099       51.668       18.417        0.127      337.167        8.960      860.709
10/02/2013  03:03:00      -60.702      -45.988       -0.860       41.453       28.368       14.754     1718.317      804.754      217.676        0.427        0.137       76.155       16.863        0.049      337.115        8.870      860.700
10/02/2013  03:04:00      -38.152      -20.762        4.061       39.027       29.257       19.033     1523.134      855.986      362.265        0.232        0.137       43.435       23.252        0.287      337.025        8.720      860.696
10/02/2013  03:05:00      -64.117      -41.476        8.015       36.788       28.007       18.236     1353.363      784.393      332.535        0.418        0.124       76.363       18.461        0.058      337.018        8.709      860.697
10/02/2013  03:06:00      -38.688      -72.910        7.816       59.885       47.094       22.422     3586.269     2217.868      502.755        0.659        0.315       82.538       31.232        0.143      337.022        8.715      860.697
10/02/2013  03:07:00      -47.043      -65.914       -7.769       37.964       33.343       16.124     1441.278     1111.736      259.976        0.471        0.141       80.980        5.092        0.004      336.992        8.664      860.679
10/02/2013  03:08:00      -36.970      -37.300        7.691       32.829       30.254       19.465     1077.748      915.286      378.869        0.259        0.119       52.517       18.119        0.119      337.050        8.761      860.660
10/02/2013  03:09:00      -84.106      -42.306        5.293       43.676       31.386       19.342     1907.600      985.075      374.101        0.608        0.163       94.146       17.593        0.035      336.943        8.582      860.653
10/02/2013  03:10:00      -94.881      -60.802        0.972       28.914       19.884       13.397      836.019      395.354      179.490        0.706        0.071      112.691        7.081        0.004      336.922        8.546      860.648
10/02/2013  03:11:00      -97.155      -64.338       -3.665       46.466       29.289       24.786     2159.055      857.867      614.337        0.861        0.182      116.527       13.043        0.013      336.878        8.475      860.631
10/02/2013  03:12:00     -108.493     -100.228       -5.335       41.046       34.491       28.800     1684.740     1189.636      829.437        1.277        0.185      147.704       26.612        0.032      336.831        8.397      860.624
10/02/2013  03:13:00      -96.960      -71.312       -2.095       46.225       43.907       23.792     2136.773     1927.786      566.037        0.956        0.232      120.361       21.338        0.031      336.807        8.357      860.612
10/02/2013  03:14:00      -76.527      -51.644        4.895       52.623       31.323       22.105     2769.194      981.102      488.644        0.639        0.212       92.323       26.410        0.082      336.809        8.360      860.601
10/02/2013  03:15:00     -101.817      -61.643        2.006       38.207       42.390       25.117     1459.794     1796.925      630.873        0.903        0.194      119.024       23.851        0.040      336.839        8.410      860.595
10/02/2013  03:16:00      -74.372      -62.961        5.859       45.512       32.285       24.943     2071.297     1042.351      622.139        0.663        0.187       97.444       27.037        0.077      336.816        8.371      860.581
10/02/2013  03:17:00      -80.988      -54.587       -0.897       44.158       29.096       23.257     1949.895      846.579      540.883        0.644        0.167       97.667       19.016        0.038      336.818        8.375      860.567
10/02/2013  03:18:00      -50.471      -38.476        5.206       54.017       38.267       20.029     2917.877     1464.395      401.168        0.442        0.239       63.464       24.773        0.152      336.812        8.365      860.551
10/02/2013  03:19:00      -32.295      -34.417        3.230       31.244       33.003       18.104      976.182     1089.230      327.754        0.232        0.120       47.196       19.034        0.163      336.810        8.363      860.552
10/02/2013  03:20:00      -41.669      -24.711        2.543       29.457       13.231       13.465      867.726      175.067      181.299        0.179        0.061       48.445        9.163        0.036      336.828        8.393      860.555
10/02/2013  03:21:00      -25.939      -28.584       -8.914       17.990       23.996        8.463      323.630      575.817       71.629        0.127        0.049       38.599        8.597        0.050      336.972        8.631      860.543
10/02/2013  03:22:00      -69.650      -35.727      -12.472       28.337       32.740       15.658      802.995     1071.905      245.172        0.420        0.106       78.279       21.166        0.073      336.845        8.421      860.539
10/02/2013  03:23:00      -79.290      -74.978      -15.238       13.338       16.845       13.231      177.898      283.765      175.068        0.639        0.032      109.127        7.210        0.004      336.769        8.294      860.540
10/02/2013  03:24:00      -49.355      -57.407       -4.989       26.739       21.268       11.708      714.979      452.316      137.074        0.353        0.065       75.707       14.298        0.036      336.784        8.320      860.548
10/02/2013  03:25:00      -57.740      -68.468       -9.211       19.990       17.624       12.459      399.617      310.614      155.222        0.449        0.043       89.564        7.876        0.008      336.833        8.400      860.538
10/02/2013  03:26:00      -35.638      -24.756        5.503       25.530       19.138       18.225      651.792      366.252      332.165        0.163        0.068       43.392       11.706        0.073      336.818        8.376      860.533
10/02/2013  03:27:00      -68.937      -64.542        2.226       45.329       33.560       25.448     2054.694     1126.259      647.621        0.637        0.191       94.435       28.898        0.094      336.724        8.218      860.544
10/02/2013  03:28:00      -89.353      -92.545        1.684       44.597       34.447       27.599     1988.919     1186.573      761.718        1.024        0.197      128.641       24.123        0.035      336.720        8.212      860.541
10/02/2013  03:29:00      -91.626      -79.513        2.774       39.436       28.615       26.215     1555.224      818.797      687.221        0.889        0.153      121.317       20.551        0.029      336.647        8.090      860.545
10/02/2013  03:30:00      -79.379      -58.846        3.144       45.671       33.951       23.459     2085.812     1152.646      550.304        0.678        0.189       98.813       26.414        0.071      336.666        8.122      860.549
10/02/2013  03:31:00      -70.077      -70.357        4.514       49.511       36.874       27.553     2451.320     1359.690      759.158        0.722        0.229       99.302       27.823        0.079      336.630        8.061      860.557
10/02/2013  03:32:00      -55.417      -37.837       10.345       35.973       27.087       20.303     1294.091      733.721      412.213        0.352        0.122       67.102       13.933        0.043      336.679        8.142      860.538
10/02/2013  03:33:00      -49.335      -40.181       10.417       32.595       21.676       19.806     1062.402      469.838      392.291        0.304        0.096       63.627       16.239        0.065      336.661        8.112      860.523
10/02/2013  03:34:00      -55.264      -42.934        1.717       49.105       31.784       17.592     2411.335     1010.241      309.482        0.431        0.187       69.982       11.924        0.029      336.672        8.132      860.520
10/02/2013  03:35:00      -33.466      -24.756        7.762       37.743       26.051       18.852     1424.556      678.645      355.411        0.213        0.123       41.627       17.408        0.175      336.582        7.981      860.526
10/02/2013  03:36:00      -50.976      -32.485        3.937       32.314       26.764       21.634     1044.203      716.289      468.045        0.295        0.111       60.447       19.840        0.108      336.664        8.118      860.527
10/02/2013  03:37:00      -24.039      -20.241       13.025       37.042       21.464       22.363     1372.099      460.686      500.093        0.174        0.117       31.426       16.899        0.289      336.645        8.086      860.521
10/02/2013  03:38:00      -61.945      -46.791       -4.575       29.174       23.168       19.264      851.136      536.744      371.114        0.390        0.088       77.631       14.113        0.033      336.708        8.192      860.510
10/02/2013  03:39:00      -63.779      -47.442       -6.596       29.703       24.332       19.478      882.263      592.062      379.407        0.411        0.093       79.489       17.233        0.047      336.733        8.233      860.503
10/02/2013  03:40:00      -86.946      -58.910       -4.410       24.879       21.251       14.923      618.967      451.607      222.690        0.617        0.065      105.024        7.564        0.005      336.685        8.154      860.499
10/02/2013  03:41:00      -93.450      -41.118      -11.444       15.005       13.304       11.670      225.158      176.989      136.190        0.555        0.027      102.096        7.001        0.005      336.655        8.104      860.494
10/02/2013  03:42:00      -82.991      -46.532       -1.670       31.097       18.809       17.893      967.003      353.772      320.172        0.535        0.082       95.146       17.041        0.032      336.648        8.092      860.498
10/02/2013  03:43:00     -107.498      -26.838       -8.985       21.243       14.267       14.798      451.265      203.561      218.990        0.662        0.044      110.797       10.787        0.009      336.672        8.133      860.498
10/02/2013  03:44:00     -111.679      -31.018       -8.577       23.919       21.990       12.830      572.128      483.573      164.613        0.736        0.061      115.907       10.255        0.008      336.633        8.068      860.490
10/02/2013  03:45:00     -106.093      -34.679       -7.121       16.737       23.668       14.291      280.122      560.159      204.222        0.678        0.052      111.617       10.568        0.009      336.677        8.141      860.478
10/02/2013  03:46:00     -106.553       -2.444       -8.079       38.719       22.398       18.351     1499.189      501.682      336.777        0.688        0.117      106.581       19.796        0.034      336.536        7.905      860.480
10/02/2013  03:47:00      -83.875       -8.964       -3.507       46.378       19.433       14.767     2150.898      377.650      218.050        0.494        0.137       84.353       20.050        0.056      336.465        7.786      860.472
10/02/2013  03:48:00      -98.969      -27.995        1.798       33.405       29.925       17.879     1115.910      895.519      319.672        0.646        0.117      102.853       17.641        0.029      336.548        7.924      860.459
10/02/2013  03:49:00      -63.033      -39.426        3.414       31.781       20.686       17.275     1010.011      427.897      298.416        0.364        0.087       74.348       16.612        0.050      336.636        8.073      860.450
10/02/2013  03:50:00      -88.146      -22.938       -5.067       18.407       20.477       10.124      338.802      419.322      102.488        0.459        0.043       91.082        6.174        0.005      336.664        8.118      860.456
10/02/2013  03:51:00      -94.159      -21.641      -11.740       21.769       16.165       16.895      473.868      261.309      285.445        0.525        0.051       96.614       14.796        0.023      336.668        8.124      860.463
10/02/2013  03:52:00      -70.291      -42.859       -3.521       34.129       23.296       17.268     1164.820      542.684      298.169        0.440        0.100       82.327       19.206        0.054      336.635        8.070      860.461
10/02/2013  03:53:00      -10.281      -21.482        4.717       36.711       18.509       18.964     1347.716      342.565      359.646        0.132        0.102       23.816        6.882        0.084      336.701        8.180      860.470
10/02/2013  03:54:00      -71.444      -46.463        3.792       37.732       22.876       16.182     1423.694      523.305      261.861        0.474        0.110       85.223       17.819        0.044      336.630        8.062      860.459
10/02/2013  03:55:00      -83.608      -36.729        4.764       42.313       19.384       18.539     1790.351      375.748      343.693        0.544        0.125       91.320       20.452        0.050      336.587        7.990      860.457
10/02/2013  03:56:00      -22.835      -26.511        3.602       39.439       25.842       19.442     1555.457      667.800      377.994        0.192        0.130       34.990       16.008        0.209      336.573        7.967      860.452
10/02/2013  03:57:00      -30.243      -24.252        4.488       44.318       20.184       20.088     1964.046      407.390      403.546        0.215        0.139       38.766       23.117        0.356      336.585        7.987      860.446
10/02/2013  03:58:00     -108.658      -61.292        1.735       34.644       32.939       20.634     1200.231     1084.965      425.779        0.914        0.136      124.752       16.927        0.018      336.527        7.888      860.435
10/02/2013  03:59:00      -64.708      -70.744        0.449       41.937       35.378       26.504     1758.704     1251.628      702.436        0.645        0.186       95.874       20.435        0.045      336.445        7.750      860.428
10/02/2013  04:00:00      -83.033      -56.810        0.817       39.776       30.100       27.446     1582.158      905.981      753.273        0.668        0.162      100.607       23.393        0.054      336.352        7.595      860.419
10/02/2013  04:01:00      -78.989      -87.236       -0.269       35.571       33.524       26.850     1265.274     1123.873      720.943        0.848        0.156      117.683       27.493        0.055      336.404        7.682      860.420
10/02/2013  04:02:00      -68.081      -54.646        6.784       37.490       26.625       18.565     1405.502      708.865      344.656        0.506        0.123       87.299       18.262        0.044      336.467        7.789      860.421
10/02/2013  04:03:00      -93.167      -42.244       -7.306       17.537       21.990       15.243      307.557      483.567      232.351        0.577        0.051      102.297        9.079        0.008      336.434        7.734      860.416
10/02/2013  04:04:00      -84.678      -57.693      -17.135       32.731       22.756       16.571     1071.321      517.833      274.585        0.633        0.093      102.464       11.318        0.012      336.447        7.754      860.408
10/02/2013  04:05:00      -82.725      -49.597        0.383       41.805       21.921       21.252     1747.645      480.539      451.668        0.599        0.134       96.454       23.313        0.058      336.430        7.728      860.411
10/02/2013  04:06:00      -22.753      -38.213       13.794       39.232       26.889       23.466     1539.185      723.006      550.673        0.249        0.141       44.474       17.132        0.148      336.461        7.777      860.407
10/02/2013  04:07:00      -96.937      -75.848        0.194       47.027       31.850       25.386     2211.516     1014.411      644.435        0.951        0.194      123.084       27.106        0.048      336.374        7.634      860.407
10/02/2013  04:08:00      -96.127      -70.070        2.903       43.606       36.264       25.981     1901.477     1315.053      675.015        0.902        0.195      118.955       19.895        0.028      336.408        7.689      860.405
10/02/2013  04:09:00      -77.515      -57.003        0.633       55.427       38.514       27.650     3072.191     1483.290      764.533        0.729        0.266       96.218       30.968        0.104      336.290        7.493      860.414
10/02/2013  04:10:00     -121.687      -87.726       -0.007       44.115       45.052       26.585     1946.099     2029.643      706.741        1.359        0.234      150.012       24.578        0.027      336.260        7.442      860.429
10/02/2013  04:11:00     -138.106     -107.581      -10.855       44.688       29.023       19.834     1996.992      842.314      393.404        1.700        0.162      175.063       20.444        0.014      336.282        7.480      860.435
10/02/2013  04:12:00     -131.908     -138.887      -13.379       56.281       49.251       28.721     3167.562     2425.705      824.869        2.164        0.321      191.545       34.179        0.032      336.199        7.339      860.434
10/02/2013  04:13:00     -156.255     -122.138      -16.695       28.836       32.115       26.504      831.515     1031.344      702.441        2.109        0.128      198.327       17.750        0.008      336.207        7.355      860.422
10/02/2013  04:14:00     -132.287      -81.217       -2.454       30.748       25.675       23.257      945.413      659.197      540.874        1.312        0.107      155.229       19.339        0.016      336.223        7.380      860.422
10/02/2013  04:15:00     -155.719      -67.958       -3.083       28.099       24.376       20.604      789.531      594.208      424.542        1.534        0.090      169.902       14.609        0.007      336.236        7.402      860.415
10/02/2013  04:16:00     -114.360      -64.528       -5.256       44.623       33.073       20.046     1991.228     1093.837      401.835        1.038        0.174      131.309       16.860        0.016      336.270        7.459      860.419
10/02/2013  04:17:00     -125.959      -36.864       -9.408       36.496       21.548       15.128     1331.935      464.327      228.850        0.967        0.101      131.242       18.466        0.020      336.229        7.392      860.434
10/02/2013  04:18:00      -59.907      -49.661        1.422       42.600       21.805       22.322     1814.718      475.452      498.276        0.442        0.139       77.814       17.769        0.052      336.240        7.408      860.445
10/02/2013  04:19:00      -96.518      -65.800        2.593       40.769       34.027       19.803     1662.104     1157.822      392.175        0.843        0.161      116.813       17.266        0.022      336.217        7.370      860.436
10/02/2013  04:20:00     -138.705      -87.473       -7.149       51.225       46.109       24.598     2623.995     2126.003      605.065        1.615        0.268      163.984       29.473        0.032      336.207        7.352      860.433
10/02/2013  04:21:00     -134.275     -123.001       -9.427       34.542       40.362       25.619     1193.141     1629.106      656.339        1.836        0.174      182.096       14.804        0.007      336.124        7.213      860.434
10/02/2013  04:22:00     -133.821      -96.409       -4.941       31.301       31.092       21.562      979.723      966.689      464.909        1.482        0.121      164.933       16.959        0.011      336.114        7.197      860.428
10/02/2013  04:23:00     -123.647      -78.331       -6.436       28.995       35.041       24.749      840.717     1227.879      612.491        1.207        0.134      146.371       21.225        0.021      336.109        7.189      860.414
10/02/2013  04:24:00     -105.548     -101.340       -4.269       33.631       37.654       20.124     1131.012     1417.791      404.974        1.219        0.148      146.322       18.062        0.015      336.134        7.230      860.400
10/02/2013  04:25:00     -107.820     -125.749       -8.196       42.540       31.001       23.408     1809.634      961.078      547.914        1.541        0.166      165.644       19.346        0.014      336.099        7.172      860.400
10/02/2013  04:26:00     -142.834     -129.022      -14.705       44.648       35.712       27.289     1993.476     1275.332      744.686        2.064        0.201      192.479       21.473        0.012      335.995        6.997      860.383
10/02/2013  04:27:00     -132.777     -101.931       -2.408       31.886       45.829       26.083     1016.721     2100.296      680.310        1.591        0.190      167.391       16.893        0.010      336.008        7.020      860.353
10/02/2013  04:28:00     -113.168      -59.294        6.077       49.902       54.595       30.125     2490.172     2980.574      907.531        1.137        0.319      127.760       28.546        0.050      336.013        7.029      860.340
10/02/2013  04:29:00     -125.005      -86.822       -2.285       39.167       36.045       25.719     1534.015     1299.277      661.459        1.333        0.175      152.198       20.558        0.018      336.024        7.048      860.326
10/02/2013  04:30:00     -100.102      -65.747       -0.572       42.529       34.258       27.104     1808.745     1173.632      734.650        0.903        0.186      119.763       21.394        0.032      336.040        7.074      860.312
10/02/2013  04:31:00      -70.252      -45.962        8.447       47.797       32.862       23.368     2284.539     1079.912      546.064        0.551        0.196       83.951       23.925        0.081      336.005        7.016      860.314
10/02/2013  04:32:00      -76.985      -68.073        8.700       52.489       35.879       22.744     2755.121     1287.327      517.309        0.760        0.228      102.765       27.665        0.072      336.013        7.031      860.321
10/02/2013  04:33:00      -55.895      -49.117        2.818       39.846       34.863       26.709     1587.727     1215.428      713.396        0.453        0.176       74.410       18.507        0.062      336.104        7.182      860.310
10/02/2013  04:34:00      -57.470      -54.087        5.266       46.429       38.911       26.696     2155.658     1514.074      712.683        0.532        0.219       78.920       23.391        0.088      336.093        7.162      860.309
10/02/2013  04:35:00      -96.573      -88.650       -0.050       43.376       35.172       26.059     1881.480     1237.082      679.064        1.049        0.190      131.092       28.390        0.047      336.108        7.189      860.313
10/02/2013  04:36:00      -73.701      -58.167        4.055       45.364       36.817       25.628     2057.884     1355.482      656.796        0.645        0.204       93.889       25.074        0.071      336.134        7.231      860.306
10/02/2013  04:37:00      -42.475      -51.674       12.807       47.079       30.611       20.857     2216.452      937.015      434.995        0.411        0.179       66.891       19.781        0.087      336.097        7.170      860.295
10/02/2013  04:38:00     -111.572     -125.718       -7.781       36.688       32.034       20.787     1345.988     1026.170      432.111        1.556        0.140      168.088       20.248        0.015      336.059        7.107      860.272
10/02/2013  04:39:00     -122.910     -101.960        1.476       42.521       32.717       29.351     1808.077     1070.403      861.454        1.462        0.187      159.696       26.646        0.028      336.032        7.062      860.249
10/02/2013  04:40:00      -72.010      -78.497       10.158       58.422       42.641       30.912     3413.158     1818.232      955.559        0.882        0.309      106.523       33.239        0.097      336.038        7.071      860.241
10/02/2013  04:41:00      -60.686      -65.678        2.998       52.786       40.919       25.135     2786.395     1674.388      631.791        0.655        0.255       89.423       31.392        0.123      336.092        7.162      860.237
10/02/2013  04:42:00      -76.899      -68.518        3.543       56.116       36.665       25.182     3149.009     1344.316      634.137        0.787        0.256      102.996       20.026        0.038      336.021        7.042      860.229
10/02/2013  04:43:00     -108.308      -83.404       -3.837       34.828       27.468       19.176     1212.995      754.517      367.723        1.052        0.117      136.700       16.007        0.014      335.953        6.929      860.222
10/02/2013  04:44:00      -66.360      -56.700       -1.085       45.971       31.383       25.444     2113.312      984.906      647.382        0.568        0.187       87.285       25.643        0.086      335.985        6.983      860.224
10/02/2013  04:45:00      -75.481     -101.513        1.646       44.645       52.874       28.151     1993.140     2795.668      792.496        1.079        0.279      126.500       29.472        0.054      335.882        6.812      860.215
10/02/2013  04:46:00      -90.867      -83.993       -2.291       50.721       35.607       29.850     2572.575     1267.850      891.001        1.002        0.237      123.741       29.688        0.058      335.924        6.882      860.210
10/02/2013  04:47:00     -125.541     -115.600       -6.670       34.051       31.441       23.855     1159.456      988.559      569.040        1.594        0.136      170.657       21.782        0.016      335.924        6.880      860.214
10/02/2013  04:48:00     -151.445      -85.704       -5.163       39.364       41.980       27.953     1549.496     1762.314      781.378        1.720        0.205      174.014       22.351        0.016      335.964        6.948      860.218
10/02/2013  04:49:00     -124.312      -93.101       -1.458       51.109       46.681       29.953     2612.108     2179.120      897.153        1.490        0.284      155.310       25.441        0.027      335.906        6.852      860.216
10/02/2013  04:50:00     -125.125      -86.619        2.845       56.312       36.199       26.418     3170.994     1310.363      697.924        1.417        0.259      152.181       23.443        0.024      335.892        6.828      860.227
10/02/2013  04:51:00     -128.996      -88.235       -2.323       60.634       49.902       31.650     3676.530     2490.199     1001.754        1.580        0.358      156.287       34.695        0.049      335.894        6.831      860.240
10/02/2013  04:52:00      -69.591      -67.779        0.018       42.841       32.931       27.833     1835.390     1084.453      774.677        0.656        0.185       97.144       28.588        0.087      335.911        6.861      860.247
10/02/2013  04:53:00      -85.060      -64.969       -3.583       27.100       27.564       17.401      734.392      759.754      302.779        0.663        0.090      107.034       12.578        0.014      335.932        6.894      860.264
10/02/2013  04:54:00      -98.673      -49.010       -2.435       40.908       27.085       22.731     1673.471      733.585      516.700        0.753        0.146      110.174       22.913        0.043      335.934        6.898      860.283
10/02/2013  04:55:00      -69.701      -42.513        4.724       43.060       23.135       17.401     1854.206      535.210      302.780        0.469        0.135       81.643       14.297        0.031      335.884        6.815      860.301
10/02/2013  04:56:00      -68.783      -24.821       -0.721       28.182       20.454       15.206      794.206      418.385      231.231        0.340        0.072       73.125       12.322        0.028      335.858        6.771      860.313
10/02/2013  04:57:00      -26.972      -14.906       -1.035       23.132       13.898       11.824      535.104      193.152      139.808        0.091        0.043       30.817        6.792        0.049      335.865        6.785      860.326
10/02/2013  04:58:00      -43.337      -27.384       -3.546       21.841       27.575       13.557      477.036      760.377      183.799        0.203        0.071       51.264       14.539        0.080      335.885        6.817      860.340
10/02/2013  04:59:00      -37.699      -17.351        1.892       20.126       23.741       14.692      405.059      563.651      215.855        0.145        0.059       41.500       13.292        0.103      335.897        6.837      860.333
10/02/2013  05:00:00      -36.421      -18.468        9.294       21.827       15.192       17.014      476.439      230.802      289.493        0.138        0.050       40.836       12.444        0.093      335.947        6.919      860.323
10/02/2013  05:01:00      -31.341      -19.833       -0.319       31.446       13.050       14.312      988.871      170.310      204.845        0.137        0.068       37.089       12.591        0.115      335.930        6.893      860.313
10/02/2013  05:02:00      -33.278      -21.810        5.416       30.448       12.435       13.109      927.071      154.639      171.857        0.143        0.063       39.788       11.662        0.086      335.899        6.841      860.302
10/02/2013  05:03:00      -40.180      -20.917        0.462       30.400       15.332       11.225      924.185      235.060      126.001        0.167        0.064       45.298        7.838        0.030      335.873        6.797      860.293
10/02/2013  05:04:00      -53.149      -19.121        1.450       29.439       16.412       12.606      866.683      269.361      158.902        0.224        0.065       56.484       12.926        0.052      335.887        6.820      860.289
10/02/2013  05:05:00      -83.650      -16.795       -7.403       10.086       15.214        9.662      101.732      231.472       93.363        0.388        0.021       85.320        6.026        0.005      335.902        6.846      860.284
10/02/2013  05:06:00      -95.780      -27.265       -8.672       14.570       17.060       11.677      212.275      291.050      136.348        0.532        0.032       99.585        9.536        0.009      335.905        6.850      860.264
10/02/2013  05:07:00      -73.744      -50.629        3.240       42.677       39.847       26.282     1821.326     1587.823      690.769        0.606        0.205       89.451       20.246        0.051      335.847        6.753      860.253
10/02/2013  05:08:00     -107.488      -58.622        0.041       41.112       28.508       18.537     1690.235      812.699      343.620        0.892        0.142      122.435       10.359        0.007      335.797        6.671      860.249
10/02/2013  05:09:00      -80.678      -42.396        2.478       40.500       34.527       25.079     1640.251     1192.119      628.962        0.589        0.173       91.140       23.413        0.066      335.780        6.642      860.257
10/02/2013  05:10:00     -119.572      -29.614      -11.305       14.604       14.556        9.503      213.266      211.865       90.313        0.791        0.026      123.184        7.650        0.004      335.792        6.663      860.246
10/02/2013  05:11:00      -83.537      -25.759       -7.361       23.484       16.941       13.421      551.509      287.012      180.121        0.436        0.051       87.418       13.041        0.022      335.920        6.875      860.228
10/02/2013  05:12:00      -86.821      -15.268       -8.182       18.241       17.538       12.560      332.737      307.586      157.749        0.432        0.040       88.154       10.949        0.015      336.002        7.011      860.223
10/02/2013  05:13:00      -87.463      -15.226       -4.795       21.612       15.669       11.342      467.090      245.528      128.638        0.437        0.042       88.779        9.061        0.010      335.931        6.893      860.235
10/02/2013  05:14:00      -94.788      -15.044      -13.292       26.814       19.587       14.595      718.973      383.659      213.017        0.535        0.066       95.974       14.533        0.023      335.946        6.917      860.244
10/02/2013  05:15:00      -98.296      -15.427       -7.236       22.361       18.222       15.797      499.994      332.044      249.530        0.552        0.054       99.500       12.951        0.017      335.896        6.835      860.261
10/02/2013  05:16:00      -69.434      -46.438       -2.472       30.203       24.661       19.386      912.201      608.143      375.810        0.444        0.095       83.531       17.591        0.044      335.899        6.841      860.260
10/02/2013  05:17:00      -36.873      -19.794        8.537       42.042       23.208       21.056     1767.544      538.612      443.370        0.229        0.137       41.850       20.700        0.245      335.913        6.863      860.256
10/02/2013  05:18:00      -13.360      -22.240        7.415       31.163       18.254       17.157      971.112      333.195      294.359        0.116        0.080       25.944       11.993        0.214      335.956        6.934      860.265
10/02/2013  05:19:00      -62.924      -49.153        4.506       32.392       27.374       20.919     1049.260      749.327      437.603        0.432        0.112       79.847       11.756        0.022      335.932        6.894      860.264
10/02/2013  05:20:00      -47.816      -56.012        8.896       38.412       41.655       23.194     1475.491     1735.118      537.970        0.462        0.187       73.646       17.845        0.059      335.963        6.946      860.258
10/02/2013  05:21:00      -96.261      -80.900       -6.221       48.424       39.068       23.235     2344.886     1526.321      539.863        1.013        0.221      125.742       23.791        0.036      335.814        6.697      860.240
10/02/2013  05:22:00     -118.878      -80.910       -6.257       53.484       38.164       26.888     2860.590     1456.504      722.976        1.288        0.252      143.800       22.454        0.024      335.717        6.536      860.237
10/02/2013  05:23:00     -130.648     -106.568       -7.186       36.719       38.417       20.025     1348.281     1475.835      401.015        1.585        0.161      168.599       16.093        0.009      335.714        6.532      860.247
10/02/2013  05:24:00     -113.873      -79.607        0.678       52.384       51.502       28.839     2744.060     2652.416      831.680        1.277        0.311      138.940       24.499        0.031      335.680        6.474      860.262
10/02/2013  05:25:00     -102.964      -88.631       -5.277       51.823       45.211       28.356     2685.599     2044.051      804.084        1.201        0.277      135.857       27.174        0.040      335.640        6.409      860.271
10/02/2013  05:26:00     -108.547     -106.760      -11.343       53.704       52.110       31.661     2884.132     2715.456     1002.418        1.495        0.330      152.251       26.861        0.031      335.690        6.492      860.270
10/02/2013  05:27:00     -120.609      -82.682       -5.598       57.015       50.821       28.031     3250.723     2582.741      785.739        1.402        0.331      146.229       24.188        0.027      335.694        6.500      860.278
10/02/2013  05:28:00     -136.016      -76.512       -5.335       36.325       43.455       27.018     1319.535     1888.329      729.976        1.416        0.197      156.059       21.853        0.020      335.681        6.476      860.282
10/02/2013  05:29:00     -143.565      -87.451       -3.653       34.569       36.539       27.692     1195.050     1335.072      766.826        1.578        0.165      168.103       22.483        0.018      335.671        6.460      860.295
10/02/2013  05:30:00     -121.501      -97.748       -3.799       35.971       33.827       24.527     1293.912     1144.265      601.589        1.369        0.152      155.939       22.012        0.020      335.684        6.481      860.294
10/02/2013  05:31:00      -98.397      -94.998       -0.776       42.564       34.625       25.313     1811.701     1198.888      640.725        1.118        0.183      136.772       26.339        0.037      335.702        6.512      860.285
10/02/2013  05:32:00     -122.893     -108.851       -8.611       41.036       38.875       25.085     1683.915     1511.299      629.263        1.542        0.191      164.168       26.381        0.026      335.672        6.461      860.277
10/02/2013  05:33:00     -126.534      -90.130        0.494       49.978       32.162       20.851     2497.810     1034.406      434.773        1.405        0.198      155.353       23.789        0.023      335.718        6.540      860.268
10/02/2013  05:34:00      -73.332      -69.225       -3.525       47.382       36.278       18.307     2245.011     1316.122      335.145        0.704        0.195      100.845       21.478        0.045      335.742        6.579      860.258
10/02/2013  05:35:00     -106.110     -113.671      -11.839       44.952       34.722       26.338     2020.645     1205.618      693.702        1.412        0.196      155.501       24.681        0.025      335.731        6.561      860.265
10/02/2013  05:36:00     -126.404      -80.243      -10.713       67.885       57.240       31.276     4608.317     3276.382      978.168        1.570        0.443      149.723       33.269        0.049      335.576        6.302      860.288
10/02/2013  05:37:00     -143.873     -121.980       -8.779       60.979       39.341       34.062     3718.385     1547.722     1160.189        2.104        0.321      188.623       32.180        0.029      335.463        6.113      860.308
10/02/2013  05:38:00      -94.238     -100.615       -3.798       42.005       43.229       27.500     1764.457     1868.732      756.236        1.170        0.219      137.856       21.984        0.025      335.519        6.206      860.326
10/02/2013  05:39:00      -60.951      -68.294       -0.917       33.673       30.602       26.606     1133.856      936.454      707.861        0.558        0.139       91.538       25.445        0.077      335.559        6.274      860.339
10/02/2013  05:40:00       -2.649      -25.602       23.129       36.009       30.953       19.481     1296.619      958.117      379.515        0.192        0.132       25.739       18.378        0.510      335.598        6.339      860.370
10/02/2013  05:41:00      -89.333      -63.515        6.038       42.268       28.745       23.554     1786.558      826.285      554.814        0.761        0.158      109.611       23.815        0.047      335.626        6.385      860.390
10/02/2013  05:42:00      -80.247      -50.915        2.413       43.834       40.390       24.646     1921.389     1631.323      607.406        0.660        0.208       95.036       23.915        0.063      335.664        6.448      860.393
10/02/2013  05:43:00      -96.735      -78.375       -2.792       43.066       33.541       23.283     1854.697     1124.971      542.099        0.951        0.176      124.500       26.686        0.046      335.639        6.407      860.382
10/02/2013  05:44:00     -105.109      -79.878        0.332       38.922       27.831       23.126     1514.893      774.544      534.823        1.013        0.141      132.017       20.397        0.024      335.666        6.453      860.367
10/02/2013  05:45:00      -59.188      -45.391        8.895       45.185       36.026       22.460     2041.696     1297.857      504.466        0.474        0.192       74.589       21.407        0.082      335.623        6.381      860.352
10/02/2013  05:46:00      -61.405      -68.849        8.262       50.741       36.325       22.077     2574.653     1319.501      487.407        0.648        0.219       92.253       24.026        0.068      335.629        6.392      860.351
10/02/2013  05:47:00     -100.321      -81.669       -0.043       37.649       38.942       26.177     1417.483     1516.461      685.224        1.018        0.181      129.361       22.775        0.031      335.564        6.281      860.326
10/02/2013  05:48:00      -97.206      -67.572        7.275       51.019       43.993       26.906     2602.980     1935.424      723.924        0.966        0.263      118.385       29.292        0.061      335.495        6.167      860.309
10/02/2013  05:49:00      -62.072      -31.043        7.994       61.702       43.384       30.276     3807.076     1882.145      916.636        0.574        0.330       69.402       27.393        0.156      335.408        6.021      860.293
10/02/2013  05:50:00      -89.655      -17.716       20.070       63.089       45.073       38.361     3980.223     2031.572     1471.581        0.812        0.374       91.389       30.910        0.114      335.373        5.964      860.287
10/02/2013  05:51:00     -131.464      -64.749       -5.089       74.665       49.087       39.548     5574.882     2409.553     1564.009        1.552        0.477      146.544       39.610        0.073      335.444        6.079      860.283
10/02/2013  05:52:00     -128.173      -86.689      -10.623       62.804       48.687       38.475     3944.310     2370.394     1480.289        1.592        0.390      154.736       27.877        0.032      335.490        6.158      860.290
10/02/2013  05:53:00      -77.036      -45.679       14.771       77.185       42.471       39.376     5957.558     1803.791     1550.432        0.877        0.466       89.560       27.674        0.095      335.494        6.164      860.298
10/02/2013  05:54:00     -138.760      -73.587        0.284       68.431       46.577       36.850     4682.792     2169.380     1357.907        1.644        0.411      157.065       33.811        0.046      335.433        6.062      860.291
10/02/2013  05:55:00     -174.844     -114.122      -13.853       40.476       42.164       28.651     1638.296     1777.833      820.852        2.401        0.212      208.793       17.013        0.007      335.433        6.060      860.291
10/02/2013  05:56:00     -143.557     -134.004       -0.453       45.934       48.066       30.338     2109.974     2310.332      920.408        2.195        0.267      196.382       24.192        0.015      335.387        5.985      860.299
10/02/2013  05:57:00     -143.223      -88.249       -5.267       62.641       45.632       28.227     3923.947     2082.273      796.746        1.756        0.340      168.229       32.861        0.038      335.456        6.101      860.314
10/02/2013  05:58:00      -99.169      -76.897        4.276       54.418       46.772       29.834     2961.346     2187.622      890.085        1.090        0.302      125.490       30.892        0.061      335.457        6.104      860.331
10/02/2013  05:59:00     -129.875     -106.405       -0.417       59.841       37.461       27.207     3580.926     1403.349      740.229        1.696        0.286      167.897       24.145        0.021      335.432        6.060      860.343
10/02/2013  06:00:00      -86.788      -45.040       13.201       64.119       41.324       26.488     4111.260     1707.635      701.612        0.813        0.326       97.779       26.121        0.071      335.487        6.153      860.347
10/02/2013  06:01:00      -70.512      -32.573        2.275       42.946       41.927       23.840     1844.320     1757.869      568.354        0.510        0.209       77.672       22.957        0.087      335.464        6.114      860.342
10/02/2013  06:02:00     -128.659      -27.860        4.572       57.588       43.139       31.693     3316.412     1860.960     1004.437        1.176        0.309      131.641       28.851        0.048      335.378        5.973      860.326
10/02/2013  06:03:00     -165.930      -12.963      -14.815       47.339       29.502       26.901     2241.023      870.387      723.674        1.588        0.192      166.435       23.973        0.021      335.382        5.978      860.323
10/02/2013  06:04:00     -112.698      -62.660        1.299       49.859       37.125       23.097     2485.966     1378.298      533.470        1.051        0.220      128.946       21.607        0.028      335.334        5.898      860.327
10/02/2013  06:05:00     -130.709      -28.240       -4.213       32.677       41.790       27.371     1067.775     1746.398      749.149        1.073        0.178      133.725       22.862        0.029      335.326        5.884      860.328
10/02/2013  06:06:00     -113.140      -15.271        1.427       46.183       28.752       21.798     2132.909      826.660      475.139        0.823        0.172      114.166       20.995        0.034      335.206        5.685      860.329
10/02/2013  06:07:00     -116.766      -47.202        4.920       38.274       36.495       25.922     1464.876     1331.904      671.962        0.968        0.173      125.946       22.124        0.031      335.288        5.820      860.328
10/02/2013  06:08:00      -94.320      -40.386        5.249       41.220       35.683       22.970     1699.091     1273.283      527.615        0.703        0.175      102.603       15.967        0.024      335.364        5.946      860.336
10/02/2013  06:09:00     -130.915      -67.022       -3.481       34.469       31.586       20.677     1188.102      997.689      427.522        1.213        0.131      147.074       18.685        0.016      335.373        5.962      860.344
10/02/2013  06:10:00      -99.093      -54.709        3.316       46.259       22.430       21.807     2139.898      503.105      475.548        0.797        0.156      113.192       19.644        0.030      335.421        6.042      860.352
10/02/2013  06:11:00      -78.616      -60.624        0.382       28.546       23.176       20.499      814.893      537.121      420.226        0.581        0.089       99.276       18.652        0.035      335.427        6.053      860.353
10/02/2013  06:12:00      -79.381      -48.528      -12.417       29.214       20.863       16.584      853.459      435.268      275.023        0.519        0.078       93.040       15.924        0.029      335.526        6.218      860.361
10/02/2013  06:13:00      -60.745      -42.113       -4.242       24.681       20.842       16.451      609.171      434.381      270.624        0.340        0.066       73.915        7.400        0.010      335.588        6.321      860.375
10/02/2013  06:14:00       -2.512      -22.855       17.519       39.437       19.141       23.421     1555.270      366.394      548.529        0.165        0.124       22.993       25.196        1.201      335.579        6.307      860.382
10/02/2013  06:15:00      -13.821      -30.525       14.050       38.221       27.987       20.712     1460.828      783.261      428.992        0.200        0.134       33.509       22.232        0.440      335.517        6.203      860.380
10/02/2013  06:16:00      -73.568      -40.421       -0.347       33.319       24.365       17.221     1110.134      593.631      296.570        0.452        0.100       83.941       17.007        0.041      335.518        6.205      860.369
10/02/2013  06:17:00     -108.245      -37.717      -10.626       18.039       18.771       12.485      325.421      352.346      155.870        0.704        0.042      114.628        6.709        0.003      335.590        6.326      860.357
10/02/2013  06:18:00      -98.822      -44.848       -3.511       30.295       16.012       13.388      917.776      256.370      179.249        0.657        0.068      108.522       10.269        0.009      335.543        6.247      860.354
10/02/2013  06:19:00      -90.441      -52.300        1.034       33.487       21.365       23.733     1121.372      456.463      563.248        0.653        0.107      104.474       24.536        0.055      335.518        6.206      860.354
10/02/2013  06:20:00     -109.884      -42.252       -7.467       20.645       15.745       16.276      426.235      247.911      264.909        0.743        0.047      117.727       12.146        0.011      335.559        6.273      860.356
10/02/2013  06:21:00     -126.568      -51.097      -11.323       13.159       13.105       10.568      173.149      171.750      111.690        0.961        0.023      136.493        3.071        0.001      335.551        6.261      860.360
10/02/2013  06:22:00     -128.338      -43.296       -5.182       20.044       21.713       15.486      401.767      471.465      239.821        0.974        0.056      135.445       11.559        0.007      335.574        6.299      860.365
10/02/2013  06:23:00     -138.635      -49.745       -3.852       21.623       29.461       18.269      467.573      867.946      333.768        1.169        0.083      147.290       14.314        0.009      335.584        6.315      860.376
10/02/2013  06:24:00     -131.393      -43.413       -4.681       28.552       25.177       17.817      815.240      633.875      317.452        1.047        0.088      138.379       15.584        0.013      335.609        6.357      860.384
10/02/2013  06:25:00     -131.801      -70.343       -5.134       27.988       23.183       19.308      783.309      537.467      372.794        1.202        0.085      149.397       15.995        0.011      335.540        6.243      860.383
10/02/2013  06:26:00     -129.425      -58.068       -4.100       34.500       28.517       19.466     1190.227      813.245      378.935        1.126        0.119      141.854       18.017        0.016      335.576        6.302      860.387
10/02/2013  06:27:00     -103.279      -55.534        3.903       44.546       31.229       23.400     1984.374      975.247      547.558        0.864        0.175      117.263       22.633        0.037      335.579        6.306      860.392
10/02/2013  06:28:00     -123.661      -81.380       -4.015       33.258       27.148       18.814     1106.111      737.029      353.959        1.206        0.110      148.036       12.709        0.007      335.564        6.282      860.396
10/02/2013  06:29:00     -112.035      -51.789       -2.197       39.087       22.414       21.591     1527.783      502.398      466.151        0.887        0.125      123.426       15.825        0.016      335.627        6.388      860.397
10/02/2013  06:30:00     -119.609      -35.798       -4.052       35.882       32.942       22.110     1287.493     1085.151      488.868        0.923        0.143      124.851       21.783        0.030      335.613        6.363      860.396
10/02/2013  06:31:00     -115.486      -34.473       -5.103       24.148       27.050       15.342      583.112      731.698      235.380        0.805        0.078      120.521       12.904        0.011      335.681        6.477      860.378
10/02/2013  06:32:00     -114.979      -43.787       -7.457       44.165       28.517       17.292     1950.537      813.206      299.026        0.913        0.153      123.035       22.434        0.033      335.645        6.417      860.365
10/02/2013  06:33:00      -77.306      -19.477       -0.084       27.007       20.952       13.124      729.358      439.002      172.248        0.385        0.067       79.722       11.305        0.020      335.735        6.568      860.359
10/02/2013  06:34:00      -95.247      -15.372       -2.621       31.539       28.346       17.522      994.697      803.502      307.019        0.571        0.105       96.480       16.478        0.029      335.696        6.503      860.355
10/02/2013  06:35:00      -37.162      -37.012       11.301       50.513       23.496       21.466     2551.577      552.060      460.800        0.322        0.178       52.449       24.189        0.213      335.738        6.573      860.351
10/02/2013  06:36:00     -103.278      -65.280       -3.195       27.031       22.427       19.222      730.684      502.976      369.481        0.827        0.080      122.180       15.286        0.016      335.703        6.514      860.332
10/02/2013  06:37:00      -74.868      -50.993       -5.972       38.966       25.698       16.071     1518.377      660.397      258.272        0.534        0.122       90.584       12.324        0.019      335.760        6.610      860.322
10/02/2013  06:38:00      -81.289      -56.091       -0.771       26.054       19.041       16.334      678.825      362.568      266.790        0.553        0.065       98.763       11.528        0.014      335.691        6.495      860.323
10/02/2013  06:39:00      -85.985      -58.794       -4.270       40.979       29.244       16.623     1679.263      855.231      276.331        0.684        0.141      104.164       16.427        0.025      335.750        6.592      860.319
10/02/2013  06:40:00      -92.249      -58.483       -0.319       34.707       24.586       18.130     1204.590      604.494      328.698        0.703        0.107      109.225       18.791        0.030      335.693        6.498      860.315
10/02/2013  06:41:00     -111.680      -60.429        5.043       42.740       28.007       22.962     1826.670      784.393      527.269        0.964        0.157      126.980       23.395        0.034      335.656        6.435      860.315
10/02/2013  06:42:00     -117.717      -54.920       -1.395       42.513       37.704       25.801     1807.355     1421.576      665.688        1.038        0.195      129.898       27.152        0.044      335.658        6.440      860.313
10/02/2013  06:43:00     -101.449      -48.044        1.055       34.139       35.671       20.612     1165.461     1272.435      424.841        0.773        0.143      112.250       21.654        0.037      335.664        6.450      860.304
10/02/2013  06:44:00      -73.849      -44.921       -1.110       44.725       25.199       21.523     2000.337      634.967      463.227        0.529        0.155       86.438        9.341        0.012      335.660        6.442      860.304
10/02/2013  06:45:00      -77.802      -46.609        3.793       52.958       32.780       17.569     2804.511     1074.523      308.653        0.621        0.209       90.695       19.103        0.044      335.605        6.350      860.303
10/02/2013  06:46:00     -131.592      -45.916      -13.396       20.831       18.472       13.500      433.928      341.230      182.252        1.028        0.048      139.373        8.484        0.004      335.619        6.374      860.315
10/02/2013  06:47:00      -69.655      -53.107       -5.486       47.764       35.266       18.714     2281.375     1243.719      350.225        0.579        0.194       87.591       20.044        0.052      335.610        6.359      860.331
10/02/2013  06:48:00      -39.147      -43.623       12.218       50.211       32.066       25.773     2521.138     1028.208      664.235        0.390        0.211       58.612       31.330        0.286      335.625        6.384      860.361
10/02/2013  06:49:00      -28.568      -31.436       11.304       55.140       27.358       27.228     3040.376      748.476      741.341        0.323        0.227       42.478       28.227        0.442      335.663        6.447      860.393
10/02/2013  06:50:00     -121.668      -54.410       -0.533       24.885       27.306       17.255      619.276      745.614      297.746        0.971        0.083      133.280       12.616        0.009      335.520        6.208      860.422
10/02/2013  06:51:00     -122.847      -60.671        1.203       36.101       32.700       23.609     1303.311     1069.259      557.379        1.085        0.146      137.012       19.971        0.021      335.505        6.184      860.452
10/02/2013  06:52:00      -63.766      -40.619        6.350       46.756       33.106       23.334     2186.168     1095.998      544.486        0.479        0.191       75.604       24.607        0.106      335.587        6.320      860.479
10/02/2013  06:53:00      -75.585      -52.847        1.911       43.986       30.519       19.596     1934.769      931.426      384.015        0.588        0.163       92.227       18.641        0.041      335.619        6.374      860.506
10/02/2013  06:54:00     -105.099      -64.408       -1.760       52.832       28.492       21.808     2791.221      811.814      475.585        0.964        0.204      123.265       25.323        0.042      335.562        6.279      860.524
10/02/2013  06:55:00      -84.129      -48.959        3.104       37.096       29.736       23.298     1376.097      884.226      542.779        0.614        0.140       97.338       23.284        0.057      335.567        6.287      860.526
10/02/2013  06:56:00      -98.597      -57.045       -6.954       28.375       26.200       16.368      805.153      686.464      267.922        0.739        0.088      113.910       11.147        0.010      335.624        6.382      860.520
10/02/2013  06:57:00      -66.746      -29.460        3.441       31.638       27.735       17.027     1000.984      769.236      289.935        0.370        0.103       72.958       15.312        0.044      335.646        6.419      860.524
10/02/2013  06:58:00      -89.804      -21.955       -2.514       28.589       24.698       15.650      817.309      609.979      244.920        0.511        0.084       92.448       13.305        0.021      335.570        6.292      860.531
10/02/2013  06:59:00      -79.890      -29.741       -4.207       45.568       28.381       18.056     2076.463      805.461      326.027        0.525        0.160       85.246       19.183        0.051      335.547        6.254      860.540
10/02/2013  07:00:00      -45.057      -17.833        4.254       65.525       22.232       22.970     4293.512      494.275      527.633        0.384        0.266       48.458       32.882        0.460      335.607        6.355      860.541
10/02/2013  07:01:00      -60.362      -36.628       -1.208       45.628       31.504       16.669     2081.959      992.503      277.857        0.417        0.168       70.605       20.507        0.084      335.519        6.208      860.547
10/02/2013  07:02:00       -4.409      -28.095        9.812       37.420       20.772       18.538     1400.271      431.487      343.657        0.154        0.109       28.439       15.196        0.286      335.648        6.423      860.548
10/02/2013  07:03:00      -37.890      -17.371        0.058       37.461       18.686       13.284     1403.333      349.154      176.461        0.183        0.096       41.682       18.150        0.190      335.618        6.372      860.558
10/02/2013  07:04:00      -32.631      -26.841        2.385       26.997       22.558       16.247      728.820      508.842      263.961        0.165        0.075       42.252       14.191        0.113      335.633        6.396      860.557
10/02/2013  07:05:00      -11.340      -12.306        8.746       21.979       16.684       14.695      483.062      278.348      215.952        0.067        0.049       16.735       10.351        0.383      335.677        6.472      860.557
10/02/2013  07:06:00      -42.632       -7.211        0.912       35.718       24.085       19.820     1275.757      580.069      392.834        0.206        0.112       43.237       19.436        0.202      335.611        6.361      860.574
10/02/2013  07:07:00      -82.864       13.579       -3.319       24.892       18.880       17.911      619.591      356.452      320.791        0.418        0.065       83.969       16.040        0.036      335.556        6.270      860.603
10/02/2013  07:08:00      -59.313      -26.581       -1.606       35.342       20.690       12.776     1249.038      428.064      163.217        0.303        0.092       64.996       11.494        0.031      335.625        6.386      860.623
10/02/2013  07:09:00      -11.842      -28.890       18.337       31.854       20.305       19.358     1014.655      412.283      374.735        0.156        0.090       31.223       18.537        0.352      335.637        6.404      860.621
10/02/2013  07:10:00      -64.923      -38.352       -8.585       12.485       12.320       11.229      155.876      151.772      126.094        0.310        0.022       75.405        7.640        0.010      335.606        6.352      860.609
10/02/2013  07:11:00      -67.373      -33.193       -6.862       22.932       13.286        9.505      525.855      176.529       90.351        0.324        0.040       75.106        9.555        0.016      335.690        6.495      860.601
10/02/2013  07:12:00      -68.597      -32.585       -6.281       14.108       11.271        9.221      199.047      127.031       85.026        0.311        0.021       75.943        4.820        0.004      335.677        6.471      860.586
10/02/2013  07:13:00      -60.673      -24.343       -3.710       17.231       13.349       12.087      296.890      178.197      146.105        0.245        0.031       65.375        9.337        0.020      335.727        6.554      860.576
10/02/2013  07:14:00      -41.345      -26.119        5.534       30.528       16.481       14.384      931.975      271.625      206.902        0.192        0.071       48.904       14.498        0.088      335.819        6.707      860.565
10/02/2013  07:15:00      -32.699      -35.951        1.910       21.989       18.125       13.477      483.522      328.517      181.632        0.168        0.050       48.597       11.535        0.056      335.847        6.752      860.562
10/02/2013  07:16:00      -46.134      -14.951       -8.369       18.832       19.749       13.041      354.628      390.005      170.062        0.167        0.046       48.496       10.732        0.049      335.976        6.968      860.560
10/02/2013  07:17:00      -52.930      -40.400        1.448       29.317       25.957       18.133      859.470      673.763      328.822        0.315        0.093       66.586       15.844        0.057      335.928        6.889      860.572
10/02/2013  07:18:00      -31.132      -46.006        6.752       50.177       27.653       25.220     2517.738      764.704      636.057        0.352        0.196       55.550       24.772        0.199      335.868        6.788      860.599
10/02/2013  07:19:00      -40.353      -31.198        1.982       31.832       25.901       22.256     1013.280      670.885      495.328        0.239        0.109       51.006       19.323        0.144      335.746        6.586      860.623
10/02/2013  07:20:00      -98.977      -65.201       -1.378       50.411       33.579       30.123     2541.306     1127.554      907.409        0.931        0.229      118.523       20.118        0.029      335.733        6.564      860.635
10/02/2013  07:21:00      -87.045      -82.667        4.724       48.240       37.941       27.953     2327.081     1439.491      781.358        0.949        0.227      120.044       25.810        0.046      335.733        6.565      860.645
10/02/2013  07:22:00      -93.935      -67.833        3.838       61.468       43.005       31.159     3778.342     1849.411      970.892        1.002        0.330      115.867       23.814        0.042      335.689        6.490      860.648
10/02/2013  07:23:00      -85.131      -96.823        4.784       63.569       43.255       29.706     4040.990     1871.007      882.423        1.172        0.340      128.927       25.061        0.038      335.727        6.553      860.657
10/02/2013  07:24:00     -124.031      -89.500       -6.722       32.318       43.504       21.795     1044.460     1892.582      475.022        1.342        0.171      152.951       20.741        0.018      335.701        6.510      860.649
10/02/2013  07:25:00      -98.238      -77.375        2.706       33.599       35.132       22.530     1128.889     1234.254      507.590        0.926        0.144      125.050       21.616        0.030      335.771        6.629      860.634
10/02/2013  07:26:00      -94.584      -87.255       -0.234       39.622       34.418       22.781     1569.865     1184.624      518.977        0.992        0.164      128.684       23.722        0.034      335.793        6.663      860.627
10/02/2013  07:27:00     -100.501      -55.841       -1.078       67.833       36.681       26.733     4601.320     1345.467      714.674        0.994        0.333      114.973       31.513        0.075      335.776        6.636      860.617
10/02/2013  07:28:00     -110.604      -64.916       -1.794       42.406       31.993       21.026     1798.240     1023.567      442.086        0.986        0.163      128.247       19.586        0.023      335.696        6.503      860.608
10/02/2013  07:29:00      -80.170      -64.053        3.282       44.192       26.308       22.125     1952.927      692.105      489.502        0.684        0.157      102.616       24.078        0.055      335.729        6.558      860.597
10/02/2013  07:30:00      -60.629      -75.426       11.657       58.010       39.363       28.575     3365.128     1549.478      816.546        0.761        0.287       96.772       32.778        0.115      335.782        6.646      860.597
10/02/2013  07:31:00     -134.486     -128.318       -9.643       53.583       48.985       29.665     2871.092     2399.525      880.008        2.040        0.308      185.881       28.505        0.024      335.589        6.321      860.594
10/02/2013  07:32:00     -115.365      -93.621      -14.951       69.319       52.513       26.781     4805.061     2757.656      717.198        1.529        0.414      148.573       24.326        0.027      335.580        6.307      860.586
10/02/2013  07:33:00     -103.966      -98.664       -5.757       52.594       49.621       34.626     2766.140     2462.249     1198.934        1.350        0.321      143.330       28.536        0.040      335.499        6.174      860.579
10/02/2013  07:34:00     -138.863     -102.030      -10.738       39.456       53.912       30.529     1556.803     2906.471      932.008        1.760        0.270      172.316       17.456        0.010      335.540        6.242      860.591
10/02/2013  07:35:00     -145.332     -121.294       -4.495       51.647       55.130       30.557     2667.459     3039.370      933.728        2.125        0.332      189.298       28.898        0.023      335.574        6.297      860.637
10/02/2013  07:36:00     -142.439     -140.027       -7.510       39.851       39.670       22.420     1588.101     1573.736      502.642        2.181        0.183      199.741       20.526        0.011      335.579        6.306      860.683
10/02/2013  07:37:00     -119.184      -83.645        0.841       47.102       51.586       34.651     2218.559     2661.159     1200.714        1.364        0.304      145.607       27.388        0.035      335.666        6.453      860.709
10/02/2013  07:38:00     -119.220      -86.659      -14.903       32.954       45.310       20.849     1085.973     2053.041      434.661        1.276        0.179      147.388       14.507        0.010      335.702        6.512      860.726
10/02/2013  07:39:00      -55.600      -48.297       -8.249       34.150       24.873       15.979     1166.220      618.690      255.327        0.377        0.102       73.648       12.835        0.030      335.759        6.608      860.733
10/02/2013  07:40:00      -68.793      -30.273       -9.824       24.856       40.457       15.636      617.796     1636.760      244.474        0.412        0.125       75.159       17.040        0.051      335.780        6.643      860.754
10/02/2013  07:41:00      -75.544      -93.099      -11.596       29.788       27.421       24.748      887.302      751.885      612.454        0.838        0.113      119.893       14.863        0.015      335.788        6.656      860.785
10/02/2013  07:42:00      -97.996     -107.109       -7.558       36.631       31.216       25.535     1341.794      974.422      652.023        1.205        0.148      145.174       21.603        0.022      335.720        6.543      860.804
10/02/2013  07:43:00      -80.217      -55.242       -8.737       23.106       33.344       17.837      533.868     1111.844      318.170        0.576        0.098       97.398       17.027        0.031      335.763        6.614      860.787
10/02/2013  07:44:00      -96.652      -30.081      -13.210       11.641       31.802       10.718      135.515     1011.356      114.871        0.584        0.063      101.225       10.647        0.011      335.807        6.688      860.766
10/02/2013  07:45:00      -57.118      -47.987       -4.963       21.895       22.057       19.099      479.377      486.518      364.789        0.346        0.067       74.600       12.678        0.029      335.895        6.834      860.759
10/02/2013  07:46:00      -85.131      -62.009        3.057       46.621       27.002       23.959     2173.529      729.117      574.018        0.729        0.174      105.321       28.286        0.072      335.926        6.885      860.764
10/02/2013  07:47:00      -59.236      -49.882        4.361       37.376       40.149       23.266     1396.978     1611.939      541.320        0.478        0.178       77.441       17.759        0.053      335.921        6.877      860.738
10/02/2013  07:48:00      -48.061      -74.670        3.798       33.688       39.964       28.308     1134.897     1597.093      801.317        0.572        0.177       88.800       27.847        0.098      335.866        6.785      860.691
10/02/2013  07:49:00      -85.017      -50.807        6.383       55.592       38.954       25.932     3090.466     1517.389      672.486        0.756        0.264       99.042       30.444        0.094      335.907        6.854      860.660
10/02/2013  07:50:00      -66.309      -52.662       11.461       43.021       35.971       19.864     1850.780     1293.922      394.564        0.542        0.177       84.677       22.001        0.068      335.992        6.995      860.655
10/02/2013  07:51:00      -61.991      -63.892        4.866       44.582       28.495       21.566     1987.557      811.939      465.093        0.561        0.163       89.023       22.148        0.062      336.027        7.053      860.653
10/02/2013  07:52:00      -47.671      -72.862        4.108       46.811       36.358       26.464     2191.248     1321.910      700.354        0.591        0.211       87.071       28.720        0.109      335.990        6.990      860.647
10/02/2013  07:53:00      -43.828      -54.614        6.973       55.119       42.302       29.128     3038.066     1789.488      848.466        0.531        0.284       70.026       26.445        0.143      336.029        7.056      860.651
10/02/2013  07:54:00      -73.849      -46.280        6.317       71.288       33.248       31.799     5081.990     1105.431     1011.198        0.742        0.360       87.152       36.532        0.176      335.957        6.936      860.677
10/02/2013  07:55:00      -67.106      -76.468        6.737       50.611       40.121       24.999     2561.433     1609.708      624.951        0.760        0.240      101.737       19.299        0.036      335.927        6.885      860.702
10/02/2013  07:56:00      -61.274      -74.410        0.222       23.823       20.299       17.677      567.556      412.064      312.461        0.529        0.065       96.391        9.238        0.009      336.022        7.044      860.702
10/02/2013  07:57:00      -90.588      -58.031       -6.083       30.357       28.621       23.837      921.528      819.180      568.196        0.696        0.115      107.582       18.660        0.030      335.975        6.966      860.697
10/02/2013  07:58:00      -63.292      -13.287       -9.218       23.073       15.024       14.784      532.342      225.716      218.553        0.262        0.049       64.671        8.995        0.019      336.011        7.024      860.675
10/02/2013  07:59:00       -8.976      -18.318       -2.023       23.370       15.894       11.375      546.146      252.633      129.385        0.067        0.046       20.399       11.457        0.315      336.139        7.240      860.670
10/02/2013  08:00:00      -48.128      -24.810        6.807       42.682       25.171       15.531     1821.745      633.574      241.206        0.284        0.135       54.146       11.056        0.042      336.118        7.204      860.689
10/02/2013  08:01:00      -68.927      -69.949       -6.510       61.317       32.429       28.167     3759.828     1051.651      793.353        0.764        0.280       98.202       33.736        0.118      336.078        7.137      860.711
10/02/2013  08:02:00      -74.264      -45.918       -7.343       48.527       31.079       18.561     2354.874      965.878      344.498        0.567        0.183       87.313        8.662        0.010      336.034        7.065      860.722
10/02/2013  08:03:00      -83.636      -37.720      -14.094       18.019       31.021       15.357      324.676      962.329      235.834        0.507        0.076       91.749       10.040        0.012      336.116        7.201      860.714
10/02/2013  08:04:00      -68.111      -61.867       -4.022       36.559       26.806       16.974     1336.584      718.539      288.127        0.541        0.117       92.015       19.514        0.045      336.131        7.226      860.732
10/02/2013  08:05:00      -75.308      -64.917        7.348       55.728       37.034       26.426     3105.620     1371.516      698.357        0.756        0.259       99.426       29.173        0.086      336.183        7.313      860.777
10/02/2013  08:06:00      -91.118      -69.407        8.515       53.636       46.472       32.450     2876.803     2159.615     1052.976        0.964        0.304      114.542       33.640        0.086      336.199        7.340      860.810
10/02/2013  08:07:00      -66.032      -64.992        9.207       43.219       32.789       26.876     1867.874     1075.114      722.327        0.617        0.183       92.650       25.372        0.075      336.206        7.352      860.798
10/02/2013  08:08:00      -36.153       -1.822        6.565       23.380       20.790       15.802      546.623      432.207      249.715        0.129        0.061       36.199        9.563        0.070      336.245        7.416      860.752
10/02/2013  08:09:00      -16.038       -2.747       11.056       18.307       12.150        8.016      335.152      147.613       64.253        0.047        0.027       16.271        9.074        0.311      336.301        7.510      860.734
10/02/2013  08:10:00      -44.459      -38.587        1.119       37.186       30.898       24.175     1382.825      954.701      584.447        0.319        0.146       58.869       16.562        0.079      336.363        7.614      860.778
10/02/2013  08:11:00      -62.863      -63.316        6.039       44.249       33.452       23.482     1957.951     1119.041      551.383        0.581        0.181       89.222       27.532        0.095      336.300        7.510      860.802
10/02/2013  08:12:00      -31.471       -7.759        6.096       32.924       11.440       19.543     1084.014      130.885      381.937        0.134        0.080       32.413       21.773        0.451      336.304        7.517      860.786
10/02/2013  08:13:00      -39.290       -9.381       -0.715       23.045       13.753       10.651      531.092      189.136      113.450        0.123        0.042       40.394        7.512        0.035      336.325        7.552      860.735
10/02/2013  08:14:00      -45.455      -22.356        3.480       28.371       17.109       13.215      804.907      292.706      174.649        0.192        0.064       50.655       15.279        0.091      336.336        7.568      860.706
10/02/2013  08:15:00      -17.593      -42.826      -12.302       33.372       26.860       25.919     1113.670      721.442      671.791        0.240        0.125       46.299       14.143        0.093      336.388        7.656      860.722
10/02/2013  08:16:00      -29.374      -29.166       11.875       32.705       23.325       21.041     1069.617      544.069      442.724        0.196        0.103       41.395       21.897        0.280      336.403        7.682      860.742
10/02/2013  08:17:00       -6.241      -21.505        7.774       49.991       39.011       25.893     2499.121     1521.862      670.473        0.263        0.235       22.392       22.707        1.028      336.406        7.685      860.729
10/02/2013  08:18:00      -43.124       -8.783       11.885       36.419       32.819       25.245     1326.327     1077.092      637.325        0.256        0.152       44.009       24.975        0.322      336.347        7.588      860.695
10/02/2013  08:19:00        2.888       15.539       16.328       32.483       31.153       22.676     1055.162      970.487      514.211        0.153        0.127       15.805       17.349        1.205      336.388        7.656      860.692
10/02/2013  08:20:00      -54.136      -25.165        5.376       51.643       43.911       21.915     2667.005     1928.154      480.258        0.433        0.254       59.699       15.186        0.065      336.373        7.629      860.707
10/02/2013  08:21:00      -86.091      -78.886        7.008       53.431       44.617       30.867     2854.843     1990.689      952.758        0.974        0.290      116.768       24.244        0.043      336.253        7.431      860.704
10/02/2013  08:22:00      -57.230      -49.228       -2.429       30.725       28.040       22.192      944.037      786.251      492.467        0.396        0.111       75.489       11.675        0.024      336.291        7.495      860.672
10/02/2013  08:23:00      -39.383      -21.291       -0.502       40.825       23.526       20.543     1666.719      553.472      422.028        0.232        0.132       44.770       14.127        0.100      336.323        7.546      860.617
10/02/2013  08:24:00      -30.407      -20.015        8.411       55.026       25.188       18.956     3027.881      634.431      359.345        0.271        0.201       36.403       16.077        0.195      336.375        7.633      860.593
10/02/2013  08:25:00      -37.590      -27.529       15.653       49.692       34.576       26.465     2469.292     1195.516      700.416        0.339        0.218       46.593       22.056        0.224      336.410        7.693      860.604
10/02/2013  08:26:00      -91.883      -15.761        5.693       37.593       41.432       21.530     1413.252     1716.588      463.519        0.616        0.180       93.225       16.426        0.031      336.331        7.561      860.604
10/02/2013  08:27:00      -50.443      -27.105       12.874       43.149       34.431       26.778     1861.879     1185.517      717.075        0.360        0.188       57.264       22.112        0.149      336.381        7.645      860.608
10/02/2013  08:28:00     -100.930      -64.732       -1.319       45.406       44.399       27.685     2061.671     1971.295      766.475        0.959        0.240      119.905       22.203        0.034      336.369        7.625      860.615
10/02/2013  08:29:00      -66.571      -54.509        8.150       53.027       40.677       34.372     2811.866     1654.592     1181.448        0.656        0.282       86.040       23.358        0.074      336.372        7.630      860.618
10/02/2013  08:30:00     -113.608      -70.276       12.171       70.703       46.479       32.369     4998.904     2160.336     1047.731        1.310        0.410      133.587       30.568        0.052      336.259        7.440      860.602
10/02/2013  08:31:00      -65.437      -16.555        4.188       52.147       41.109       24.054     2719.325     1689.957      578.587        0.478        0.249       67.498       29.816        0.195      336.285        7.484      860.576
10/02/2013  08:32:00      -52.037      -37.298        3.757       42.443       40.711       22.226     1801.429     1657.372      494.016        0.403        0.198       64.023       24.862        0.151      336.398        7.673      860.580
10/02/2013  08:33:00     -109.538      -74.381       -4.016       54.854       56.504       31.449     3008.992     3192.725      989.033        1.237        0.360      132.405       30.742        0.054      336.320        7.543      860.580
10/02/2013  08:34:00      -80.937      -66.474        6.134       67.087       39.060       27.284     4500.641     1525.691      744.426        0.889        0.339      104.736       27.307        0.068      336.223        7.381      860.556
10/02/2013  08:35:00      -46.401      -76.376        1.495       43.811       47.264       20.978     1919.445     2233.876      440.060        0.629        0.230       89.366       15.309        0.029      336.288        7.490      860.556
10/02/2013  08:36:00      -50.792      -67.001        1.634       61.388       49.026       32.829     3768.429     2403.538     1077.728        0.716        0.362       84.077       34.063        0.164      336.403        7.681      860.549
10/02/2013  08:37:00     -111.073      -97.910       -5.907       65.171       42.525       32.331     4247.290     1808.369     1045.313        1.453        0.355      148.067       30.068        0.041      336.308        7.520      860.552
10/02/2013  08:38:00     -104.208      -64.307        0.307       43.016       47.604       30.013     1850.417     2266.114      900.810        1.001        0.251      122.453       26.613        0.047      336.220        7.375      860.526
10/02/2013  08:39:00      -36.753      -21.792        6.022       32.165       21.571       17.062     1034.619      465.322      291.112        0.183        0.090       42.728       15.108        0.125      336.324        7.549      860.483
10/02/2013  08:40:00      -57.274      -59.758       -5.350       31.989       21.145       13.764     1023.302      447.101      189.442        0.427        0.083       82.772       10.195        0.015      336.318        7.540      860.477
10/02/2013  08:41:00      -26.392      -35.762        8.871       42.144       28.322       25.059     1776.101      802.144      627.940        0.263        0.160       44.446       16.521        0.138      336.443        7.750      860.504
10/02/2013  08:42:00      -22.139      -50.252       17.118       48.789       44.761       28.074     2380.338     2003.574      788.154        0.424        0.259       54.912       28.566        0.271      336.464        7.783      860.512
10/02/2013  08:43:00      -72.346      -64.182       -5.142       49.193       47.162       25.892     2419.939     2224.242      670.393        0.735        0.266       96.713       27.399        0.080      336.337        7.572      860.510
10/02/2013  08:44:00      -53.731      -30.131        7.141       39.284       30.935       21.822     1543.242      956.991      476.184        0.341        0.149       61.603       22.059        0.128      336.512        7.863      860.501
10/02/2013  08:45:00      -61.686      -56.580        5.064       47.926       48.175       28.321     2296.929     2320.851      802.102        0.622        0.271       83.704       28.266        0.114      336.482        7.814      860.489
10/02/2013  08:46:00      -66.730      -46.173        7.965       56.841       38.830       26.320     3230.929     1507.781      692.746        0.604        0.272       81.147       32.430        0.160      336.559        7.943      860.480
10/02/2013  08:47:00      -86.115      -45.313        5.866       37.903       33.935       19.992     1436.625     1151.617      399.676        0.625        0.149       97.309       17.932        0.034      336.429        7.725      860.447
10/02/2013  08:48:00      -38.935      -61.099        1.371       18.881       23.881       14.854      356.483      570.285      220.643        0.320        0.057       72.450        5.072        0.005      336.343        7.579      860.430
10/02/2013  08:49:00      -27.125      -28.198        7.549       22.296       21.992       16.688      497.131      483.658      278.504        0.142        0.063       39.127       14.118        0.130      336.498        7.840      860.400
10/02/2013  08:50:00      -38.702      -56.176       -5.386       40.589       43.993       19.276     1647.465     1935.355      371.550        0.432        0.198       68.217       20.059        0.086      336.501        7.846      860.377
10/02/2013  08:51:00     -101.637      -99.116       -2.174       51.623       43.792       24.320     2664.906     1917.699      591.470        1.267        0.259      141.965       22.531        0.025      336.523        7.881      860.381
10/02/2013  08:52:00     -115.069     -100.005       -0.327       46.229       46.693       23.263     2137.158     2180.270      541.164        1.405        0.243      152.453       20.555        0.018      336.519        7.875      860.383
10/02/2013  08:53:00     -106.099      -84.745       -3.894       54.262       33.329       26.365     2944.341     1110.793      695.101        1.160        0.238      135.789       21.698        0.026      336.558        7.942      860.381
10/02/2013  08:54:00      -89.386     -126.891       -1.745       53.967       43.174       36.137     2912.451     1864.026     1305.909        1.509        0.304      155.213       38.758        0.062      336.476        7.803      860.377
10/02/2013  08:55:00     -112.107      -82.042        4.558       76.496       50.062       34.793     5851.569     2506.159     1210.564        1.444        0.478      138.921       36.173        0.068      336.546        7.920      860.381
10/02/2013  08:56:00      -77.838      -47.276        5.343       59.991       41.859       25.104     3598.864     1752.139      630.186        0.715        0.299       91.070       25.240        0.077      336.491        7.827      860.367
10/02/2013  08:57:00     -109.360      -31.404       -3.237       42.966       27.816       19.786     1846.109      773.739      391.470        0.798        0.151      113.779       17.101        0.023      336.454        7.765      860.355
10/02/2013  08:58:00      -90.268      -64.696        4.659       40.521       49.932       25.628     1641.936     2493.173      656.815        0.857        0.240      111.058       25.446        0.052      336.582        7.980      860.357
10/02/2013  08:59:00      -47.650      -64.190        8.431       49.672       35.397       18.394     2467.303     1252.913      338.351        0.526        0.203       79.943       20.303        0.064      336.629        8.060      860.357
10/02/2013  09:00:00      -80.014      -69.740       -3.756       53.484       39.188       27.097     2860.592     1535.679      734.237        0.820        0.257      106.141       34.167        0.104      336.674        8.136      860.369
10/02/2013  09:01:00      -66.353      -79.436       -7.006       35.002       29.035       20.620     1225.138      843.046      425.164        0.663        0.125      103.502       16.414        0.025      336.648        8.092      860.378
10/02/2013  09:02:00      -31.286      -38.993       11.833       41.298       34.432       24.181     1705.505     1185.584      584.704        0.306        0.174       49.992       23.832        0.227      336.807        8.358      860.377
10/02/2013  09:03:00      -99.768      -71.933       -1.064       38.504       35.112       31.114     1482.537     1232.856      968.069        0.941        0.184      122.996       22.056        0.032      336.606        8.022      860.348
10/02/2013  09:04:00     -105.137      -70.292       -1.764       61.722       42.642       28.396     3809.558     1818.323      806.330        1.121        0.322      126.470       29.571        0.055      336.603        8.017      860.340
10/02/2013  09:05:00      -85.011      -57.830        2.378       42.031       37.718       20.522     1766.618     1422.658      421.138        0.709        0.181      102.816       17.855        0.030      336.600        8.011      860.362
10/02/2013  09:06:00      -93.242      -42.829       -6.395       27.574       18.389       14.768      760.332      338.156      218.080        0.594        0.066      102.608        9.984        0.009      336.598        8.008      860.375
10/02/2013  09:07:00      -72.829      -46.352       -3.358       28.620       31.249       15.168      819.092      976.501      230.071        0.474        0.101       86.328       10.956        0.016      336.674        8.134      860.392
10/02/2013  09:08:00      -85.858      -51.903       -0.893       52.293       33.693       22.125     2734.506     1135.204      489.497        0.721        0.218      100.327       20.657        0.042      336.722        8.217      860.425
10/02/2013  09:09:00     -132.283      -54.992       -6.023       31.279       20.448       15.076      978.364      418.119      227.274        1.109        0.081      143.258       10.989        0.006      336.634        8.066      860.450
10/02/2013  09:10:00      -49.351      -21.650       -9.876       32.854       15.274        7.041     1079.409      233.299       49.572        0.218        0.068       53.891        9.699        0.032      336.688        8.159      860.460
10/02/2013  09:11:00       -5.033       11.396       11.768       13.354       11.962       17.742      178.318      143.078      314.793        0.046        0.032       12.458        9.507        0.582      336.857        8.439      860.449
10/02/2013  09:12:00      -14.909        6.185       11.625       19.172       14.377       14.413      367.550      206.704      207.732        0.059        0.039       16.141        9.854        0.373      336.847        8.424      860.460
10/02/2013  09:13:00      -96.381      -21.398      -10.214       32.327       25.613       15.808     1045.003      656.007      249.896        0.590        0.098       98.728       16.840        0.029      336.834        8.402      860.504
10/02/2013  09:14:00     -113.119      -22.610       -3.052       43.908       34.036       25.114     1927.924     1158.418      630.698        0.852        0.186      115.357       17.650        0.023      336.918        8.541      860.550
10/02/2013  09:15:00     -124.802      -30.499        0.529       66.095       55.581       28.081     4368.590     3089.279      788.527        1.237        0.412      128.475       29.698        0.053      336.781        8.312      860.523
10/02/2013  09:16:00      -32.657       -2.647        9.542       36.402       19.882       17.685     1325.098      395.307      312.762        0.160        0.102       32.764       19.891        0.369      336.898        8.510      860.436
10/02/2013  09:17:00      -63.229       18.845       -6.608       26.877       15.755       12.869      722.356      248.210      165.617        0.277        0.057       65.978        9.000        0.019      336.716        8.207      860.394
10/02/2013  09:18:00     -114.540      -21.623      -13.399       30.855       27.454       14.389      952.033      753.734      207.050        0.784        0.096      116.563        9.436        0.007      336.736        8.240      860.430
10/02/2013  09:19:00      -87.236      -53.536        0.935       49.102       29.746       24.471     2411.017      884.818      598.824        0.719        0.195      102.353       16.168        0.025      336.852        8.432      860.456
10/02/2013  09:20:00      -49.995      -25.316        1.715       32.439       35.476       16.647     1052.265     1258.519      277.121        0.287        0.129       56.039       16.322        0.085      336.907        8.524      860.434
10/02/2013  09:21:00      -46.805       31.379       -8.414       25.803       23.269       10.416      665.776      541.426      108.489        0.228        0.066       56.351       14.224        0.064      336.788        8.326      860.386
10/02/2013  09:22:00      -47.958       64.010       -8.355       30.320       25.346       17.541      919.276      642.416      307.693        0.417        0.093       79.982       20.031        0.063      336.845        8.420      860.378
10/02/2013  09:23:00     -101.944       28.435      -11.963       28.561       28.487       13.715      815.755      811.524      188.104        0.658        0.091      105.836       10.059        0.009      336.817        8.374      860.380
10/02/2013  09:24:00     -133.233       19.314      -14.205       19.722       16.874       16.791      388.967      284.721      281.932        0.964        0.048      134.625       10.539        0.006      336.845        8.420      860.403
10/02/2013  09:25:00     -129.118        1.037      -13.060       24.826       16.403       16.519      616.306      269.051      272.883        0.900        0.058      129.122       13.646        0.011      336.831        8.399      860.426
10/02/2013  09:26:00     -102.283      -32.857      -12.102       24.667       43.101       12.622      608.440     1857.739      159.306        0.716        0.131      107.431        7.840        0.005      336.874        8.468      860.431
10/02/2013  09:27:00      -83.894      -40.509        2.876       39.680       28.881       16.438     1574.468      834.106      270.197        0.568        0.134       93.162       13.545        0.021      336.989        8.659      860.413
10/02/2013  09:28:00      -49.397      -32.599      -10.978       18.284       18.733       13.251      334.314      350.927      175.579        0.224        0.043       59.184        9.641        0.027      336.943        8.583      860.391
10/02/2013  09:29:00      -35.641      -41.785       -7.272       18.018       24.648       12.814      324.636      607.537      164.192        0.208        0.055       54.920       10.839        0.039      337.070        8.796      860.376
10/02/2013  09:30:00      -15.242       -5.663       -5.353       14.211       19.506       17.092      201.960      380.500      292.152        0.058        0.044       16.260        8.959        0.304      337.268        9.127      860.356
10/02/2013  09:31:00      -13.396       37.098       -2.881       13.141       15.090       10.070      172.677      227.705      101.399        0.103        0.025       39.443        3.287        0.007      337.112        8.865      860.355
10/02/2013  09:32:00      -38.421       17.496       -2.246       16.706       15.160        9.832      279.086      229.834       96.666        0.120        0.030       42.217        3.639        0.007      337.082        8.816      860.376
10/02/2013  09:33:00      -39.476      -13.194       -4.115       22.179       16.044       13.197      491.915      257.396      174.148        0.134        0.046       41.622       12.483        0.090      337.134        8.902      860.384
10/02/2013  09:34:00      -10.141       20.257       15.353       19.242       14.555       13.117      370.255      211.857      172.049        0.075        0.038       22.654       12.868        0.323      337.302        9.184      860.355
10/02/2013  09:35:00       10.477       43.383       56.499       31.705       36.497       29.598     1005.193     1331.999      876.069        0.420        0.161       44.630       15.199        0.116      337.390        9.332      860.282
10/02/2013  09:36:00       48.269       59.534       51.014       65.610       33.365       46.006     4304.625     1113.244     2116.566        0.800        0.377       76.643       46.055        0.361      337.256        9.107      860.267
10/02/2013  09:37:00        4.371       10.092       19.850       31.275       22.149       15.748      978.138      490.583      248.015        0.112        0.086       10.998       17.322        2.481      337.420        9.381      860.329
10/02/2013  09:38:00      -14.621       42.613        0.322       18.734       35.082       17.597      350.973     1230.728      309.650        0.196        0.095       45.052       23.158        0.264      337.306        9.190      860.413
10/02/2013  09:39:00        7.496       66.852       -9.939       23.767       27.299       14.510      564.893      745.235      210.539        0.307        0.076       67.271       15.299        0.052      337.299        9.179      860.414
10/02/2013  09:40:00       39.716       73.574       -7.256       24.280       41.276       30.271      589.535     1703.684      916.320        0.513        0.160       83.609       27.197        0.106      337.306        9.191      860.382
10/02/2013  09:41:00       34.949       40.943       -3.962       25.739       27.791       17.627      662.505      772.348      310.719        0.233        0.087       53.831        9.274        0.030      337.296        9.174      860.380
10/02/2013  09:42:00       23.860       20.133       -0.956       19.934       21.439       18.707      397.349      459.648      349.955        0.109        0.060       31.219       11.920        0.146      337.301        9.183      860.438
10/02/2013  09:43:00       27.564       16.521        1.422       13.168       28.859       19.161      173.388      832.858      367.159        0.120        0.069       32.136       13.099        0.166      337.258        9.112      860.440
10/02/2013  09:44:00       78.013       42.809        8.202       50.170       25.596       25.421     2517.070      655.174      646.204        0.590        0.191       88.986        7.677        0.007      337.313        9.204      860.380
10/02/2013  09:45:00      123.476       50.473       13.370       35.055       29.021       28.789     1228.840      842.202      828.789        1.044        0.145      133.394       17.601        0.017      337.220        9.048      860.344
10/02/2013  09:46:00       52.226       17.373        7.289       42.056       27.943       26.774     1768.687      780.788      716.832        0.317        0.163       55.040       21.134        0.147      337.329        9.229      860.341
10/02/2013  09:47:00       16.930       24.702       -4.080       14.852       20.036       14.111      220.587      401.454      199.110        0.087        0.041       29.947       10.842        0.131      337.412        9.368      860.348
10/02/2013  09:48:00       29.916       59.635       -4.293       17.635       23.788       18.140      310.986      565.863      329.057        0.284        0.060       66.718       16.307        0.060      337.416        9.374      860.354
10/02/2013  09:49:00       87.529       58.637        3.122       35.599       29.240       19.794     1267.284      854.994      391.821        0.681        0.126      105.355       13.486        0.016      337.384        9.322      860.351
10/02/2013  09:50:00       59.572       50.613       24.099       33.965       23.484       23.767     1153.616      551.519      564.860        0.448        0.113       78.170       18.628        0.057      337.394        9.338      860.371
10/02/2013  09:51:00       78.637       50.822       17.643       26.114       23.170       21.363      681.952      536.868      456.367        0.538        0.084       93.630       14.113        0.023      337.329        9.231      860.384
10/02/2013  09:52:00       97.453       67.959        8.688       20.487       16.542       22.007      419.705      273.622      484.299        0.768        0.059      118.809        8.113        0.005      337.265        9.122      860.388
10/02/2013  09:53:00       72.470       80.931       10.018       34.409       28.624       24.647     1184.013      819.345      607.458        0.726        0.131      108.636       13.407        0.015      337.373        9.304      860.367
10/02/2013  09:54:00       62.841       67.340       12.350       35.612       35.048       33.598     1268.185     1228.364     1128.857        0.613        0.181       92.107       27.770        0.091      337.430        9.399      860.334
10/02/2013  09:55:00       59.393       50.259       23.946       30.075       30.807       26.927      904.480      949.070      725.079        0.460        0.129       77.805       18.570        0.057      337.593        9.671      860.330
10/02/2013  09:56:00       75.890       40.112       11.815       50.296       35.857       34.170     2529.708     1285.690     1167.620        0.624        0.249       85.838       24.548        0.082      337.585        9.658      860.326
10/02/2013  09:57:00       85.423       64.551        7.777       23.815       18.524       30.360      567.131      343.129      921.753        0.668        0.092      107.070        8.997        0.007      337.399        9.345      860.326
10/02/2013  09:58:00       61.474       63.303        6.886       25.225       25.381       26.391      636.291      644.200      696.477        0.490        0.099       88.240       20.716        0.055      337.412        9.367      860.341
10/02/2013  09:59:00       35.037       54.919       -9.694       21.178       20.913       17.756      448.491      437.352      315.270        0.277        0.060       65.144       16.958        0.068      337.469        9.463      860.350
10/02/2013  10:00:00       21.511       33.855       -0.041       23.216       21.901       14.983      538.990      479.649      224.498        0.143        0.062       40.111       14.389        0.129      337.559        9.615      860.343
10/02/2013  10:01:00       11.599       74.514       -6.325       17.823       28.921       16.215      317.646      836.415      262.936        0.357        0.071       75.412       18.286        0.059      337.540        9.583      860.334
10/02/2013  10:02:00       27.002       35.477        7.982       29.640       28.879       24.338      878.519      834.024      592.339        0.218        0.115       44.584       20.579        0.213      337.762        9.956      860.328
10/02/2013  10:03:00       52.888       30.707       33.972       53.772       32.171       28.367     2891.424     1034.954      804.677        0.481        0.237       61.156       10.815        0.031      337.970       10.305      860.335
10/02/2013  10:04:00       35.366        1.356       42.383       44.976       45.049       22.361     2022.843     2029.439      499.993        0.380        0.228       35.392       18.989        0.288      338.112       10.543      860.330
10/02/2013  10:05:00       53.744       16.344        5.561       37.210       34.464       32.882     1384.556     1187.742     1081.256        0.342        0.183       56.174       23.410        0.174      337.712        9.870      860.331
10/02/2013  10:06:00       41.371       67.597       77.831       41.054       39.138       35.621     1685.456     1531.796     1268.864        0.841        0.224       79.253       29.129        0.135      337.880       10.153      860.297
10/02/2013  10:07:00       91.174      117.531       84.700       74.986       48.009       55.862     5622.898     2304.850     3120.559        2.017        0.552      148.749       50.619        0.116      337.661        9.785      860.271
10/02/2013  10:08:00      150.952       94.288       32.979       43.872       32.118       41.967     1924.773     1031.549     1761.248        1.874        0.236      177.979       28.962        0.026      337.638        9.747      860.251
10/02/2013  10:09:00      153.858       84.737       22.069       42.972       31.733       31.451     1846.575     1006.980      989.182        1.759        0.192      175.649       18.474        0.011      337.604        9.690      860.238
10/02/2013  10:10:00       80.283       11.774       35.146       37.540       53.407       31.121     1409.279     2852.271      968.538        0.652        0.262       81.142       21.350        0.069      337.847       10.098      860.248
10/02/2013  10:11:00       15.736       -7.635       26.780       35.129       66.159       25.599     1234.031     4376.974      655.291        0.364        0.313       17.491       26.151        2.235      337.969       10.301      860.263
10/02/2013  10:12:00       51.019       35.649       25.191       25.082       20.205       26.041      629.118      408.250      678.155        0.311        0.086       62.240       10.383        0.028      338.047       10.434      860.278
10/02/2013  10:13:00       97.627       80.042        5.637       25.940       29.408       27.900      672.870      864.853      778.393        0.914        0.116      126.244       11.423        0.008      337.835       10.079      860.283
10/02/2013  10:14:00       29.280       61.398       46.916       39.549       32.752       44.424     1564.132     1072.688     1973.481        0.572        0.231       68.022       31.380        0.213      338.163       10.627      860.268
10/02/2013  10:15:00       98.960       73.422       10.132       43.324       30.045       21.288     1876.996      902.703      453.190        0.926        0.162      123.223       22.112        0.032      337.658        9.782      860.273
10/02/2013  10:16:00       26.519       25.031        8.633       18.879       15.485       13.668      356.404      239.792      186.812        0.109        0.039       36.467       13.113        0.129      338.027       10.399      860.284
10/02/2013  10:17:00        6.813      -48.336        8.947       22.651       47.315       15.580      513.063     2238.680      242.745        0.273        0.150       48.814       18.148        0.138      338.413       11.047      860.283
10/02/2013  10:18:00       38.210      -48.335        4.654       22.955       29.253       21.579      526.932      855.761      465.674        0.283        0.092       61.613       10.757        0.030      337.932       10.240      860.281
10/02/2013  10:19:00       30.434      -20.006        6.533       26.257       18.174       20.792      689.443      330.298      432.318        0.141        0.073       36.421       17.681        0.236      338.113       10.543      860.285
10/02/2013  10:20:00        8.036       16.306       10.390       29.127       42.781       19.386      848.364     1830.223      375.812        0.175        0.153       18.179       15.370        0.715      338.636       11.423      860.288
10/02/2013  10:21:00      131.634       71.365       15.533       60.613       46.088       43.568     3673.954     2124.133     1898.170        1.518        0.385      149.735       33.558        0.050      338.272       10.811      860.284
10/02/2013  10:22:00       76.966       95.144       65.520       61.114       47.085       36.608     3734.935     2216.959     1340.156        1.328        0.365      122.377       22.802        0.035      338.294       10.848      860.265
10/02/2013  10:23:00      122.182      101.953       75.336       69.172       54.072       54.239     4784.755     2923.776     2941.881        2.082        0.533      159.131       34.002        0.046      338.245       10.765      860.257
10/02/2013  10:24:00      183.613       90.994       38.050       56.485       51.772       45.542     3190.606     2680.345     2074.080        2.569        0.397      204.923       25.292        0.015      338.026       10.394      860.240
10/02/2013  10:25:00       56.372       34.254       51.120       46.010       43.409       33.597     2116.952     1884.339     1128.785        0.605        0.257       65.963       17.316        0.069      338.459       11.123      860.229
10/02/2013  10:26:00       37.519       49.871      -19.223       55.277       27.541       27.330     3055.581      758.519      746.913        0.441        0.228       62.408       24.427        0.153      338.104       10.530      860.238
10/02/2013  10:27:00       95.374       58.420       16.164       69.849       38.512       32.774     4878.835     1483.146     1074.140        1.010        0.372      111.844       19.829        0.031      338.290       10.841      860.254
10/02/2013  10:28:00      124.021       89.497       14.877       47.945       34.054       35.256     2298.714     1159.651     1243.010        1.416        0.235      152.941       19.563        0.016      338.255       10.782      860.257
10/02/2013  10:29:00      106.792       72.751       32.858       43.400       49.621       37.517     1883.571     2462.237     1407.522        1.176        0.288      129.218       26.092        0.041      338.347       10.936      860.252
10/02/2013  10:30:00       93.662       53.250        1.403       45.269       39.775       24.762     2049.285     1582.028      613.158        0.793        0.212      107.741       15.057        0.020      338.218       10.721      860.246
10/02/2013  10:31:00       45.406       69.935       14.177       35.692       43.275       40.868     1273.906     1872.741     1670.162        0.598        0.241       83.382       29.242        0.123      338.459       11.125      860.236
10/02/2013  10:32:00       52.542       74.065       33.659       46.669       49.877       35.962     2177.953     2487.759     1293.256        0.767        0.298       90.808       28.043        0.095      338.586       11.337      860.241
10/02/2013  10:33:00       34.493      -41.297       11.176       48.325       48.215       39.182     2335.269     2324.642     1535.202        0.461        0.310       53.807       34.496        0.411      338.598       11.359      860.249
10/02/2013  10:34:00       31.978       42.471       30.558       28.083       27.999       29.038      788.644      783.968      843.224        0.309        0.121       53.164       11.586        0.047      338.645       11.437      860.252
10/02/2013  10:35:00       41.528       56.472       16.156       39.357       36.398       29.631     1548.966     1324.784      877.995        0.446        0.188       70.097       13.418        0.037      338.694       11.520      860.240
10/02/2013  10:36:00       94.927       64.447       22.659       56.021       52.537       33.382     3138.311     2760.147     1114.372        1.034        0.351      114.737       15.355        0.018      338.754       11.620      860.213
10/02/2013  10:37:00      146.059       92.992       11.647       37.612       45.136       34.627     1414.691     2037.274     1199.001        1.738        0.233      173.150       19.483        0.013      338.578       11.324      860.190
10/02/2013  10:38:00        8.780       45.013       16.892       39.293       40.873       40.932     1543.967     1670.585     1675.443        0.364        0.244       45.861       18.782        0.168      339.201       12.371      860.200
10/02/2013  10:39:00       71.116       40.777       24.310       37.642       30.762       35.209     1416.899      946.275     1239.663        0.546        0.180       81.977       19.720        0.058      339.014       12.059      860.207
10/02/2013  10:40:00      128.081       85.765       24.099       84.715       64.231       39.931     7176.706     4125.681     1594.480        1.862        0.645      154.145       17.558        0.013      338.889       11.847      860.195
10/02/2013  10:41:00       91.560       78.952       28.523       72.446       44.853       43.780     5248.368     2011.825     1916.693        1.230        0.459      120.900       17.184        0.020      339.079       12.166      860.168
10/02/2013  10:42:00       52.054       60.362       34.002       56.462       42.734       59.245     3187.932     1826.198     3509.998        0.802        0.426       79.707       38.555        0.234      339.414       12.730      860.169
10/02/2013  10:43:00      111.170      123.397       84.664       69.135       54.063       51.819     4779.681     2922.762     2685.242        2.257        0.519      166.089       43.093        0.067      338.707       11.540      860.152
10/02/2013  10:44:00       36.904      -15.838       46.277       41.837       76.490       51.513     1750.343     5850.706     2653.572        0.700        0.513       40.159       50.858        1.604      338.708       11.544      860.135
10/02/2013  10:45:00       54.592      -62.638       -0.715       34.441       32.797       27.178     1186.151     1075.666      738.635        0.495        0.150       83.089       17.191        0.043      338.651       11.449      860.113
10/02/2013  10:46:00       68.500     -105.528       11.094       44.023       86.560       27.078     1938.011     7492.649      733.215        1.306        0.508      125.811       25.951        0.043      338.679       11.493      860.078
10/02/2013  10:47:00       81.267       69.004       43.461       57.237       47.545       38.673     3276.077     2260.553     1495.573        1.014        0.352      106.611       23.665        0.049      339.252       12.458      860.064
10/02/2013  10:48:00      145.375      105.314       52.114       71.132       34.767       58.367     5059.755     1208.747     3406.651        2.231        0.484      179.512       47.902        0.071      338.825       11.739      860.057
10/02/2013  10:49:00       36.163       15.238       -9.554       66.458       42.162       25.932     4416.609     1777.603      672.461        0.425        0.343       39.242       11.761        0.090      338.642       11.433      860.037
10/02/2013  10:50:00       52.768       68.316       69.793       53.743       79.019       54.365     2888.355     6243.994     2955.510        1.220        0.604       86.322       50.685        0.345      339.201       12.371      860.024
10/02/2013  10:51:00       59.884      -72.704       41.562       58.229      134.352       54.451     3390.605    18050.356     2964.869        1.750        1.220       94.192       79.403        0.711      339.203       12.374      860.020
10/02/2013  10:52:00       35.287       40.474       62.639       52.697       58.030       37.839     2776.965     3367.431     1431.789        0.719        0.379       53.696       27.185        0.256      339.433       12.763      860.015
10/02/2013  10:53:00       50.227       59.869       60.400       38.037       44.135       32.541     1446.810     1947.925     1058.933        0.710        0.223       78.147       20.628        0.070      339.327       12.584      860.016
10/02/2013  10:54:00       30.689      -27.997       38.292       52.927       82.428       51.616     2801.266     6794.455     2664.205        0.772        0.613       41.541       47.805        1.324      339.472       12.828      860.001
10/02/2013  10:55:00       94.603       79.463       73.201       84.699       48.859       52.850     7173.886     2387.196     2793.115        1.649        0.618      123.548       48.788        0.156      339.243       12.444      859.991
10/02/2013  10:56:00       66.281       49.579       33.889       52.375       38.421       27.428     2743.153     1476.155      752.314        0.648        0.249       82.772       16.933        0.042      338.970       11.984      859.985
10/02/2013  10:57:00       23.261       10.091       43.010       30.918       45.346       27.155      955.909     2056.251      737.405        0.312        0.187       25.356       25.294        0.995      339.525       12.917      859.997
10/02/2013  10:58:00       85.546      -80.123       -7.026       71.159       82.847       50.004     5063.611     6863.651     2500.433        1.410        0.721      117.208       48.516        0.171      339.292       12.524      859.993
10/02/2013  10:59:00       49.934       18.078       45.513       37.873       39.632       30.109     1434.349     1570.691      906.580        0.440        0.196       53.105       17.551        0.109      339.764       13.322      859.979
10/02/2013  11:00:00      110.741       99.899       72.769       65.767       46.479       52.779     4325.296     2160.322     2785.610        1.840        0.464      149.142       18.969        0.016      339.313       12.560      859.970
10/02/2013  11:01:00       43.456       45.449       80.578       57.012       61.097       45.795     3250.398     3732.820     2097.208        0.976        0.454       62.881       32.145        0.261      339.513       12.899      859.976
10/02/2013  11:02:00       56.657       38.954       40.980       61.594       82.604       35.008     3793.874     6823.444     1225.552        0.912        0.592       68.756       38.039        0.306      339.444       12.780      859.968
10/02/2013  11:03:00       23.861        0.888       23.843       26.423       43.411       31.066      698.167     1884.530      965.094        0.234        0.177       23.877       16.820        0.496      339.693       13.203      859.942
10/02/2013  11:04:00       48.264       48.845       32.116       49.511       41.403       45.495     2451.334     1714.195     2069.796        0.599        0.312       68.668       33.021        0.231      339.885       13.527      859.913
10/02/2013  11:05:00       12.145       60.512       78.591       39.680       38.246       24.236     1574.492     1462.786      587.403        0.680        0.181       61.719       22.031        0.127      339.949       13.634      859.895
10/02/2013  11:06:00       11.736       43.098       78.032       55.145       80.487       37.902     3041.022     6478.157     1436.563        0.952        0.548       44.668       42.447        0.903      339.863       13.489      859.896
10/02/2013  11:07:00       84.310      -16.212       16.671       85.894      112.751       42.376     7377.697    12712.734     1795.716        1.476        1.094       85.854       52.581        0.375      339.466       12.818      859.917
10/02/2013  11:08:00       22.203      -25.635       45.340       31.581       60.816       34.713      997.351     3698.615     1204.987        0.455        0.295       33.914       37.701        1.236      339.734       13.270      859.917
10/02/2013  11:09:00      123.937       64.755       19.816       87.433       64.956       53.059     7644.613     4219.229     2815.252        1.731        0.734      139.834       50.896        0.132      339.532       12.927      859.886
10/02/2013  11:10:00      100.751       41.500       16.360       73.227       70.815       47.901     5362.265     5014.820     2294.537        1.240        0.634      108.964       23.437        0.046      339.684       13.186      859.874
10/02/2013  11:11:00       55.828       30.444       37.020       46.224       35.127       35.339     2136.616     1233.919     1248.876        0.502        0.231       63.589       21.101        0.110      339.861       13.485      859.893
10/02/2013  11:12:00        7.986      -34.166       32.079       51.004       54.736       32.490     2601.442     2996.009     1055.583        0.446        0.333       35.087       31.828        0.823      340.088       13.869      859.905
10/02/2013  11:13:00       32.621        8.166       40.530       42.276       54.973       33.062     1787.287     3022.044     1093.077        0.434        0.295       33.628       13.109        0.152      339.925       13.593      859.940
10/02/2013  11:14:00       78.357      -67.489       19.014       80.650       94.171       67.110     6504.474     8868.264     4503.728        1.546        0.994      103.415       60.127        0.338      339.473       12.830      859.933
10/02/2013  11:15:00       27.199        8.627       49.924       42.696       58.124       40.238     1822.959     3378.405     1619.136        0.506        0.341       28.534       26.580        0.868      339.831       13.435      859.911
10/02/2013  11:16:00       28.328       23.939       39.062       51.360       50.450       48.941     2637.883     2545.250     2395.249        0.524        0.379       37.089       38.763        1.092      339.921       13.585      859.879
10/02/2013  11:17:00       35.996       70.969      100.184       57.437       51.391       50.620     3299.014     2641.067     2562.402        1.243        0.425       79.576       31.877        0.160      340.129       13.935      859.834
10/02/2013  11:18:00      131.881       86.057       50.862       65.341       55.890       60.199     4269.427     3123.725     3623.865        1.920        0.551      157.475       45.593        0.084      339.392       12.692      859.778
10/02/2013  11:19:00       59.538       77.667       97.410       68.585       58.261       43.291     4703.868     3394.355     1874.126        1.452        0.499       97.861       31.181        0.102      339.736       13.273      859.736
10/02/2013  11:20:00       96.293      108.294       65.477       94.525       54.553       71.081     8934.905     2976.047     5052.562        2.112        0.848      144.914       60.068        0.172      339.550       12.959      859.734
10/02/2013  11:21:00      150.965      103.362       20.761       62.172       44.461       60.622     3865.315     1976.790     3675.003        2.171        0.476      182.960       27.391        0.022      339.892       13.535      859.711
10/02/2013  11:22:00       83.642       -4.379       33.578       90.556      123.082       57.431     8200.411    15149.273     3298.304        1.739        1.332       83.756       66.964        0.639      339.963       13.656      859.694
10/02/2013  11:23:00      161.049     -219.708      -43.919       74.347       74.551       43.207     5527.513     5557.796     1866.810        4.454        0.648      272.413       32.129        0.014      339.500       12.872      859.661
10/02/2013  11:24:00       74.844      -62.430       30.345       55.064       84.870       62.139     3032.058     7202.950     3861.248        1.226        0.705       97.464       55.958        0.330      339.922       13.587      859.658
10/02/2013  11:25:00       54.198      -70.782       23.173       33.887       67.255       33.116     1148.323     4523.300     1096.675        0.763        0.338       89.149       34.536        0.150      339.890       13.533      859.668
10/02/2013  11:26:00      -14.609      -26.109        6.612       25.282       33.648       21.240      639.166     1132.191      451.129        0.158        0.111       29.918       14.911        0.248      339.941       13.620      859.692
10/02/2013  11:27:00       11.533       65.680        6.714       37.434       48.250       31.652     1401.277     2328.102     1001.829        0.461        0.237       66.685       29.174        0.191      340.217       14.087      859.693
10/02/2013  11:28:00      130.980      104.886       14.964       74.436       58.507       49.861     5540.774     3423.087     2486.160        1.991        0.573      167.800       36.828        0.048      339.900       13.550      859.672
10/02/2013  11:29:00      123.959       80.232       34.067       83.841       62.877       58.828     7029.317     3953.552     3460.781        1.870        0.722      147.659       52.900        0.128      339.891       13.534      859.644
10/02/2013  11:30:00       72.184       51.655       20.714       48.535       39.772       36.188     2355.601     1581.818     1309.578        0.678        0.262       88.763       25.961        0.086      340.138       13.951      859.616
10/02/2013  11:31:00       39.956       26.801       25.691       52.597       37.353       27.649     2766.454     1395.268      764.471        0.395        0.246       48.112       18.887        0.154      340.463       14.501      859.587
10/02/2013  11:32:00      126.658       76.311       50.594      102.319       63.401       44.399    10469.116     4019.631     1971.228        2.044        0.823      147.870       18.922        0.016      340.172       14.007      859.543
10/02/2013  11:33:00       42.654       15.777       80.929       87.873      113.732       81.320     7721.748    12934.938     6612.955        1.794        1.363       45.478       81.472        3.209      340.486       14.540      859.519
10/02/2013  11:34:00      143.296     -147.497       26.100       81.894       97.633       66.806     6706.557     9532.270     4463.041        3.183        1.035      205.643       64.033        0.097      340.214       14.078      859.477
10/02/2013  11:35:00       96.526      -52.685       27.902       76.171       65.488       52.806     5802.066     4288.741     2788.517        1.287        0.644      109.968       57.409        0.273      340.181       14.024      859.495
10/02/2013  11:36:00       59.467      -37.941        9.955       44.148       64.586       31.966     1949.054     4171.412     1021.846        0.611        0.357       70.540       23.494        0.111      340.072       13.841      859.528
10/02/2013  11:37:00      114.742      -10.455       48.867       92.981      115.939       81.286     8645.423    13441.937     6607.354        2.217        1.435      115.217       91.469        0.630      339.933       13.604      859.543
10/02/2013  11:38:00       62.965      -50.139       17.531       49.640       79.250       40.541     2464.124     6280.552     1643.608        0.859        0.519       80.490       35.639        0.196      340.300       14.227      859.552
10/02/2013  11:39:00       56.561      -45.923       34.348       68.714      120.958       67.980     4721.661    14630.848     4621.329        1.523        1.199       72.856       87.470        1.441      340.278       14.188      859.472
10/02/2013  11:40:00       94.758       53.695      113.782       94.963      113.656       69.119     9017.932    12917.706     4777.394        2.576        1.336      108.914       66.677        0.375      340.596       14.725      859.338
10/02/2013  11:41:00       48.682       -4.190       75.420       59.623       91.912       63.594     3554.904     8447.807     4044.151        1.206        0.802       48.861       53.018        1.177      340.708       14.914      859.288
10/02/2013  11:42:00      226.610     -264.212      -47.562       76.898       91.588       46.402     5913.352     8388.406     2153.137        6.994        0.823      348.080       40.731        0.014      340.156       13.979      859.322
10/02/2013  11:43:00      171.665     -192.161      -35.954      100.725      116.115       70.619    10145.457    13482.585     4987.012        4.815        1.431      257.672       64.188        0.062      340.404       14.398      859.361
10/02/2013  11:44:00      123.885     -137.706      -19.615       88.592      150.427       70.705     7848.468    22628.401     4999.135        3.508        1.774      185.231       86.018        0.216      340.415       14.416      859.407
10/02/2013  11:45:00       78.014       -5.281       21.697       63.469       85.065       47.094     4028.258     7236.073     2217.859        1.003        0.674       78.192       43.021        0.303      340.454       14.486      859.418
10/02/2013  11:46:00       71.879     -138.603       -2.555       37.904       63.536       47.044     1436.677     4036.797     2213.166        1.603        0.384      156.133       33.949        0.047      340.208       14.069      859.432
10/02/2013  11:47:00       26.754      -13.185       32.596       52.804       77.379       47.386     2788.239     5987.571     2245.419        0.648        0.551       29.826       51.051        2.930      340.574       14.689      859.392
10/02/2013  11:48:00      129.736       91.787       56.985       76.879       84.526       57.600     5910.350     7144.712     3317.733        2.243        0.819      158.922       13.145        0.007      340.626       14.774      859.308
10/02/2013  11:49:00       38.880     -103.334       16.072       57.927       81.599       44.766     3355.545     6658.473     2003.956        1.223        0.601      110.406       53.336        0.233      340.483       14.533      859.284
10/02/2013  11:50:00      100.358      -48.904       16.222       56.186       57.876       51.501     3156.846     3349.641     2652.335        1.094        0.458      111.640       47.225        0.179      340.510       14.580      859.306
10/02/2013  11:51:00       50.807       21.475       56.368       71.971       86.703       62.803     5179.824     7517.383     3944.163        1.143        0.832       55.159       56.423        1.046      340.911       15.259      859.296
10/02/2013  11:52:00      106.651       77.973       66.695       83.465       57.810       49.943     6966.460     3342.007     2494.282        1.735        0.640      132.114       30.278        0.053      340.728       14.948      859.270
10/02/2013  11:53:00       61.082       72.330       88.600       78.693       74.520       49.471     6192.626     5553.158     2447.333        1.550        0.710       94.671       49.535        0.274      340.883       15.211      859.238
10/02/2013  11:54:00       97.465      -22.501       73.048       92.738      165.077       71.782     8600.298    27250.359     5152.599        2.816        2.050      100.028       92.872        0.862      340.921       15.273      859.193
10/02/2013  11:55:00      120.177      -95.163        6.864       91.190       90.782       51.853     8315.631     8241.349     2688.762        2.139        0.962      153.292       53.913        0.124      340.605       14.739      859.199
10/02/2013  11:56:00       64.370       -5.146       26.839       63.988       51.668       48.822     4094.431     2669.618     2383.617        0.702        0.457       64.575       37.243        0.333      340.549       14.645      859.176
10/02/2013  11:57:00        7.440      -10.502       45.623       44.964       71.554       52.964     2021.723     5119.952     2805.203        0.610        0.497       12.870       46.990       13.331      340.834       15.128      859.147
10/02/2013  11:58:00       47.817       -0.103       44.783       37.156       78.252       47.986     1380.551     6123.350     2302.655        0.705        0.490       47.817       50.633        1.121      340.918       15.270      859.143
10/02/2013  11:59:00       75.293      -74.001       17.811       75.224       61.070       41.803     5658.659     3729.604     1747.518        1.130        0.557      105.571       40.337        0.146      340.892       15.226      859.126
10/02/2013  12:00:00       76.565      -31.188       36.817       78.000       98.012       65.908     6084.032     9606.352     4343.836        1.411        1.002       82.673       77.327        0.875      341.045       15.484      859.121
10/02/2013  12:01:00      138.739      -87.804        7.424       82.151       78.109       52.792     6748.723     6101.071     2786.960        2.132        0.782      164.189       55.266        0.113      340.767       15.014      859.111
10/02/2013  12:02:00      146.888     -106.629        6.403       87.823      109.696       91.502     7712.824    12033.140     8372.632        3.055        1.406      181.510       88.676        0.239      341.119       15.609      859.084
10/02/2013  12:03:00      105.710      -36.247       46.813       83.937      103.710       62.749     7045.465    10755.846     3937.426        1.820        1.087      111.751       75.171        0.452      341.038       15.473      859.085
10/02/2013  12:04:00      127.259     -148.444      -21.769       48.696       56.179       36.317     2371.278     3156.081     1318.960        2.277        0.342      195.526       27.659        0.020      341.146       15.653      859.084
10/02/2013  12:05:00       77.540     -132.184       -3.341       64.949       80.161       46.463     4218.341     6425.798     2158.821        1.815        0.640      153.248       44.275        0.083      341.224       15.788      859.070
10/02/2013  12:06:00      130.121     -182.582      -18.804       75.627      103.019       53.517     5719.417    10612.894     2864.095        3.490        0.960      224.205       60.277        0.072      341.080       15.542      859.074
10/02/2013  12:07:00       94.262     -153.608      -23.387       55.859       81.255       48.178     3120.264     6602.330     2321.113        2.253        0.602      180.224       34.841        0.037      341.022       15.444      859.059
10/02/2013  12:08:00       93.344     -181.477      -12.346       40.145       48.080       30.235     1611.584     2311.653      914.166        2.332        0.242      204.076       19.307        0.009      340.959       15.337      859.039
10/02/2013  12:09:00       58.456     -147.557       -7.770       61.786       57.858       28.488     3817.505     3347.579      811.565        1.661        0.399      158.714       24.036        0.023      341.120       15.611      858.997
10/02/2013  12:10:00       40.502       18.214       66.665       65.914      129.638       80.216     4344.690    16806.000     6434.684        1.700        1.379       44.409       95.629        4.637      341.482       16.224      858.945
10/02/2013  12:11:00      108.391      -67.748       37.681       84.193       79.945       69.518     7088.419     6391.274     4832.802        1.803        0.916      127.821       64.123        0.252      341.338       15.981      858.929
10/02/2013  12:12:00       84.755      -66.847       28.198       72.234       86.150       65.156     5217.795     7421.813     4245.253        1.466        0.844      107.944       48.793        0.204      341.262       15.852      858.926
10/02/2013  12:13:00       97.058      -83.750       26.630       77.103       66.841       50.557     5944.838     4467.695     2555.962        1.505        0.648      128.197       47.554        0.138      341.185       15.722      858.906
10/02/2013  12:14:00      131.335      -85.641       29.447       81.739      102.591       66.297     6681.239    10524.913     4395.286        2.352        1.080      156.791       69.012        0.194      341.243       15.816      858.876
10/02/2013  12:15:00       27.653       74.209      100.523       71.701       48.714       49.219     5140.967     2373.023     2422.519        1.315        0.497       79.194       53.456        0.456      341.286       15.894      858.875
10/02/2013  12:16:00       45.655       72.925       60.243       73.573       60.403       43.524     5412.988     3648.473     1894.325        1.099        0.548       86.037       28.980        0.113      341.379       16.050      858.839
10/02/2013  12:17:00       54.613       41.151       86.669       70.719      107.368       68.903     5001.167    11527.859     4747.619        1.673        1.064       68.381       74.583        1.190      341.615       16.449      858.794
10/02/2013  12:18:00       92.308     -149.495        0.596       70.699       78.093       46.631     4998.367     6098.547     2174.412        2.207        0.664      175.697       29.372        0.028      341.220       15.779      858.756
10/02/2013  12:19:00       51.435       47.770       38.799       55.175       47.069       41.259     3044.270     2215.520     1702.314        0.670        0.348       70.196       27.256        0.151      341.875       16.891      858.746
10/02/2013  12:20:00       66.599     -110.301        1.902       95.464       79.873       43.600     9113.393     6379.648     1901.003        1.700        0.870      128.848       52.748        0.168      341.777       16.723      858.714
10/02/2013  12:21:00       34.723       10.449       67.115       48.401       79.590       56.813     2342.652     6334.521     3227.711        0.886        0.595       36.261       52.732        2.115      341.913       16.957      858.707
10/02/2013  12:22:00       48.033      -66.665       21.602       39.488       60.180       45.695     1559.298     3621.612     2087.990        0.724        0.363       82.167       41.389        0.254      341.447       16.166      858.687
10/02/2013  12:23:00      219.219       83.155       44.536      110.534       84.796       60.518    12217.715     7190.343     3662.462        4.001        1.154      234.461       42.807        0.033      341.207       15.757      858.659
10/02/2013  12:24:00      104.926       18.401       20.675       70.942       93.942       56.689     5032.780     8825.029     3213.671        1.442        0.854      106.527       40.529        0.145      341.378       16.049      858.655
10/02/2013  12:25:00      164.622       82.392       15.519       71.425       76.029       39.632     5101.545     5780.411     1570.693        2.329        0.623      184.089       29.390        0.025      341.446       16.161      858.661
10/02/2013  12:26:00       10.829      -42.511        3.921       32.492       36.108       25.445     1055.751     1303.813      647.431        0.247        0.150       43.869       15.976        0.133      341.801       16.765      858.678
10/02/2013  12:27:00       55.680       54.739       66.419       62.180       71.358       48.050     3866.346     5091.967     2308.841        1.089        0.563       78.081       38.000        0.237      341.752       16.682      858.693
10/02/2013  12:28:00      144.291      118.575       62.956       49.972       43.800       45.642     2497.229     1918.423     2083.169        2.267        0.325      186.762       22.115        0.014      341.317       15.946      858.660
10/02/2013  12:29:00      144.425       96.957       31.355       56.170       46.475       40.744     3155.032     2159.951     1660.099        1.911        0.349      173.952       32.405        0.035      341.543       16.327      858.573
10/02/2013  12:30:00       -5.623       41.381       -4.676       34.057       34.447       24.853     1159.910     1186.616      617.670        0.236        0.148       41.761       21.948        0.276      341.800       16.764      858.537
10/02/2013  12:31:00       16.921       -2.865       12.943       26.058       13.447       17.722      679.042      180.815      314.054        0.082        0.059       17.162       11.155        0.423      342.074       17.229      858.571
10/02/2013  12:32:00       74.277       51.530       34.960       70.451       46.325       31.027     4963.295     2146.048      962.653        0.873        0.404       90.401       18.561        0.042      342.269       17.560      858.542
10/02/2013  12:33:00      213.812      154.059       17.661       94.701       61.771       59.746     8968.233     3815.702     3569.566        4.305        0.818      263.533       52.112        0.039      341.720       16.626      858.460
10/02/2013  12:34:00      265.054      167.960       23.150       95.952       81.078       63.359     9206.692     6573.717     4014.396        5.939        0.990      313.790       47.331        0.023      341.997       17.095      858.385
10/02/2013  12:35:00      207.447      170.576       98.904       77.243       72.102       78.356     5966.489     5198.640     6139.593        4.961        0.865      268.572       59.443        0.049      341.922       16.967      858.397
10/02/2013  12:36:00      160.342       80.531       27.805       90.510       75.887       47.621     8191.971     5758.878     2267.753        2.459        0.811      179.429       39.622        0.049      342.174       17.396      858.394
10/02/2013  12:37:00      156.836       70.846       52.567      100.202       68.532       47.923    10040.506     4696.567     2296.617        2.470        0.852      172.095       35.899        0.044      342.200       17.441      858.367
10/02/2013  12:38:00       54.298       65.727        3.611       80.144       65.350       44.641     6423.058     4270.644     1992.816        0.998        0.634       85.255       38.899        0.208      342.432       17.838      858.328
10/02/2013  12:39:00       49.265       54.360       -8.631       48.423       62.388       38.984     2344.773     3892.323     1519.773        0.661        0.388       73.363       38.918        0.281      342.325       17.654      858.328
10/02/2013  12:40:00       87.012       87.337       -7.402       57.109       51.693       35.120     3261.470     2672.137     1233.424        1.121        0.358      123.284       27.854        0.051      342.237       17.507      858.330
10/02/2013  12:41:00       67.984       78.779       53.821       58.448       48.576       43.480     3416.178     2359.637     1890.475        1.069        0.383      104.057       15.643        0.023      342.643       18.195      858.316
10/02/2013  12:42:00       39.769        7.300       42.445       46.663       61.488       40.207     2177.441     3780.831     1616.629        0.550        0.379       40.434       28.799        0.507      342.429       17.834      858.281
10/02/2013  12:43:00       24.260       48.142       56.334       59.822       51.123       40.750     3578.717     2613.519     1660.560        0.696        0.393       53.909       39.900        0.548      342.316       17.641      858.274
10/02/2013  12:44:00       65.166       59.037       36.662       73.254       49.467       45.797     5366.190     2447.002     2097.334        0.949        0.496       87.932       27.652        0.099      342.421       17.818      858.269
10/02/2013  12:45:00       72.617       55.879       19.023       68.629       63.022       40.156     4709.904     3971.717     1612.542        0.952        0.515       91.628       30.732        0.112      342.694       18.282      858.304
10/02/2013  12:46:00       44.426      -60.569       33.479       60.456       90.004       45.192     3654.927     8100.780     2042.349        1.028        0.690       75.115       56.688        0.570      342.507       17.965      858.345
10/02/2013  12:47:00       78.428       70.404       61.187       46.543       54.046       37.015     2166.243     2920.923     1370.083        1.065        0.323      105.393       15.370        0.021      342.529       18.002      858.327
10/02/2013  12:48:00      159.609       97.206       22.486       62.186       53.499       44.578     3867.065     2862.166     1987.201        2.207        0.436      186.880       28.790        0.024      342.811       18.482      858.243
10/02/2013  12:49:00      180.955      143.025       40.363       93.891       74.278       51.053     8815.432     5517.225     2606.449        3.588        0.847      230.653       51.101        0.049      342.599       18.119      858.196
10/02/2013  12:50:00       -6.208       14.407       27.677       90.501       52.161       45.332     8190.502     2720.817     2055.023        0.699        0.648       15.688       27.588        3.092      342.796       18.455      858.299
10/02/2013  12:51:00        9.658      -33.857        9.642       47.763       88.912       38.979     2281.326     7905.260     1519.334        0.652        0.585       35.208       38.786        1.214      342.854       18.555      858.292
10/02/2013  12:52:00      -40.010       -0.624       27.391      156.911      117.100       57.341    24620.947    13712.525     3288.033        2.198        2.081       40.015       90.940        5.165      342.856       18.557      858.275
10/02/2013  12:53:00      -33.177     -112.593       22.616      109.072      152.711       49.640    11896.806    23320.659     2464.156        2.598        1.884      117.379       39.574        0.114      343.366       19.427      858.235
10/02/2013  12:54:00     -189.134      -48.082       11.138      117.419       89.302       63.829    13787.296     7974.911     4074.130        3.202        1.292      195.150       63.587        0.106      343.644       19.898      858.181
10/02/2013  12:55:00     -300.274     -182.844       -4.715      173.816      122.824       87.478    30211.830    15085.837     7652.316        8.827        2.647      351.563       90.023        0.066      343.637       19.885      858.143
10/02/2013  12:56:00     -331.411     -205.880      -21.205      155.972      154.279       70.764    24327.352    23802.060     5007.475       10.289        2.657      390.154       69.470        0.032      343.526       19.697      858.158
10/02/2013  12:57:00     -332.304     -258.498      -22.292      201.235      152.084       87.717    40495.535    23129.592     7694.193       12.452        3.566      421.007       92.962        0.049      343.431       19.535      858.110
10/02/2013  12:58:00     -388.210     -206.256       -6.914      269.198      175.792      101.111    72467.383    30902.748    10223.348       15.342        5.680      439.600      109.560        0.062      343.617       19.852      858.056
10/02/2013  12:59:00     -345.383     -315.817      -11.115      200.979      233.268       97.812    40392.704    54413.762     9567.279       16.174        5.219      468.006      108.221        0.053      343.419       19.515      858.107
10/02/2013  13:00:00     -218.151     -151.432      -19.929      119.498      120.842       53.654    14279.869    14602.811     2878.757        5.133        1.588      265.559       44.708        0.028      343.360       19.413      858.066
10/02/2013  13:01:00     -273.737      -86.079       -1.973      222.206      141.393       84.417    49375.589    19992.041     7126.216        7.940        3.825      286.953      103.464        0.130      343.675       19.950      858.017
10/02/2013  13:02:00     -242.637      -51.914       11.144      155.598      128.174       79.709    24210.846    16428.610     6353.568        5.433        2.350      248.129       81.796        0.109      343.883       20.306      858.022
10/02/2013  13:03:00     -215.904     -176.278       -3.023      132.583      127.304       70.482    17578.121    16206.333     4967.761        5.822        1.938      278.727       53.981        0.038      343.772       20.116      858.030
10/02/2013  13:04:00     -156.177     -355.065      -12.314      131.544      127.205       64.173    17303.701    16181.136     4118.131        9.410        1.880      387.895       49.390        0.016      343.760       20.095      857.987
10/02/2013  13:05:00     -247.956     -294.413        2.985      182.966      216.511       73.655    33476.434    46877.024     5424.987       11.696        4.289      384.917       85.027        0.049      343.729       20.042      857.977
10/02/2013  13:06:00     -473.060     -419.186       -8.132      238.436      174.379      115.555    56851.659    30408.147    13352.965       25.007        5.031      632.062      104.992        0.028      343.540       19.719      857.933
10/02/2013  13:07:00     -312.029     -270.463        0.107      217.954      185.210      100.732    47504.046    34302.899    10146.848       13.121        4.598      412.931      114.039        0.076      343.443       19.555      857.973
10/02/2013  13:08:00     -314.960     -226.051        4.239      165.622      117.621       80.095    27430.700    13834.653     6415.200        9.899        2.384      387.683       89.307        0.053      343.375       19.440      857.956
10/02/2013  13:09:00     -330.065     -314.640      -14.319      221.144      168.305       98.163    48904.619    28326.655     9635.947       14.749        4.343      456.006      111.257        0.060      343.473       19.606      857.887
10/02/2013  13:10:00     -364.135     -168.974       -3.653      231.312      257.720       88.811    53505.060    66419.379     7887.360       14.446        6.391      401.430      118.076        0.087      343.723       20.033      857.884
10/02/2013  13:11:00     -449.584     -153.248       -0.402      286.725      179.531      100.439    82211.145    32231.374    10087.922       17.505        6.227      474.985      118.238        0.062      343.733       20.049      857.832
10/02/2013  13:12:00     -140.948     -140.216        1.575      146.027      130.087       66.308    21323.837    16922.591     4396.706        4.108        2.132      198.814       78.069        0.154      343.963       20.443      857.838
10/02/2013  13:13:00     -282.335     -217.495      -21.995      238.839      122.800       73.762    57043.890    15079.802     5440.763       10.252        3.878      356.394       77.955        0.048      343.803       20.168      857.824
10/02/2013  13:14:00     -397.212     -293.990       -3.156      181.216      178.539       89.792    32839.226    31876.177     8062.578       15.848        3.639      494.174       88.117        0.032      343.870       20.282      857.805
10/02/2013  13:15:00     -395.617     -172.379       -1.810      246.493      167.746      108.967    60759.035    28138.871    11873.878       14.348        5.039      431.541      131.016        0.092      343.803       20.168      857.874
10/02/2013  13:16:00     -298.308     -243.533       -5.511      229.528      148.977       91.581    52683.242    22194.198     8387.020       11.578        4.163      385.092      110.284        0.082      343.552       19.741      857.855
10/02/2013  13:17:00     -222.258     -161.027        6.690      213.083      170.293       80.123    45404.152    28999.668     6419.662        7.808        4.041      274.460       95.925        0.122      343.828       20.211      857.863
10/02/2013  13:18:00     -352.968     -135.370       -5.816      156.470      142.471       76.303    24482.899    20298.023     5822.090        9.676        2.530      378.036       62.916        0.028      343.835       20.223      857.894
10/02/2013  13:19:00     -172.317     -226.369        9.243      164.622      190.061       93.383    27100.381    36123.067     8720.471        7.647        3.597      284.493       88.642        0.097      343.780       20.129      857.891
10/02/2013  13:20:00     -202.044     -305.767       13.174      156.793      226.574       76.480    24584.177    51335.766     5849.188       10.811        4.088      366.491       87.506        0.057      343.809       20.180      857.841
10/02/2013  13:21:00     -223.988      -56.365       26.599      200.482      131.265       82.467    40193.153    17230.508     6800.775        5.913        3.211      230.971      105.904        0.210      344.182       20.817      857.821
10/02/2013  13:22:00     -362.494     -147.211      -10.712      153.326      162.685       83.013    23508.873    26466.256     6891.186       10.502        2.843      391.246       73.293        0.035      343.706       20.002      857.835
10/02/2013  13:23:00     -198.212     -113.975       16.110      154.163      110.009       63.891    23766.214    12102.014     4082.017        4.624        1.998      228.644       65.491        0.082      343.897       20.329      857.834
10/02/2013  13:24:00     -138.593     -107.127       19.876      133.587      116.333       64.104    17845.437    13533.357     4109.322        3.328        1.774      175.169       75.327        0.185      344.051       20.594      857.824
10/02/2013  13:25:00     -131.433     -111.766        4.906      143.223       87.404       66.245    20512.915     7639.436     4388.456        3.116        1.627      172.529       71.283        0.171      343.953       20.426      857.790
10/02/2013  13:26:00     -267.582      -89.743       -2.400      150.181      133.133       69.347    22554.245    17724.494     4808.991        6.236        2.254      282.230       66.746        0.056      343.919       20.368      857.766
10/02/2013  13:27:00     -313.154     -258.336       -6.693      201.846      179.475       69.948    40741.776    32211.182     4892.736       12.133        3.892      405.959       72.830        0.032      343.823       20.203      857.772
10/02/2013  13:28:00     -322.971     -221.461       -8.511      233.654      160.851       78.182    54594.167    25872.926     6112.419       11.999        4.329      391.606       90.149        0.053      343.668       19.938      857.751
10/02/2013  13:29:00     -285.203     -230.362       11.934      226.633      154.767       97.619    51362.403    23952.906     9529.377       10.968        4.242      366.616       99.236        0.073      343.856       20.260      857.789
10/02/2013  13:30:00     -278.619     -222.077      -22.251      161.030      121.514       75.685    25930.810    14765.617     5728.215        8.692        2.321      356.296       77.186        0.047      343.838       20.227      857.781
10/02/2013  13:31:00     -278.165     -196.455       -6.949      161.801      135.036       76.288    26179.440    18234.838     5819.910        8.312        2.512      340.545       83.040        0.059      343.780       20.130      857.754
10/02/2013  13:32:00     -209.629     -192.950       10.075      159.759      170.382       73.764    25522.904    29030.020     5441.178        7.062        3.000      284.910       74.538        0.068      343.884       20.307      857.736
10/02/2013  13:33:00     -258.579     -243.821       -2.490      171.466      144.339       91.182    29400.743    20833.682     8314.178        9.242        2.927      355.404       79.439        0.050      343.872       20.287      857.748
10/02/2013  13:34:00     -332.106      -91.037      -14.448      183.768      124.241       79.593    33770.779    15435.715     6335.045        8.716        2.777      344.358       86.778        0.064      343.917       20.363      857.747
10/02/2013  13:35:00     -217.193     -106.833       10.465      168.283      152.058       79.206    28319.190    23121.513     6273.560        5.819        2.886      242.046       80.739        0.111      344.038       20.569      857.708
10/02/2013  13:36:00     -207.354     -343.205        3.837      185.018      216.031       86.052    34231.695    46669.232     7404.935       12.454        4.415      400.981       92.164        0.053      343.896       20.328      857.698
10/02/2013  13:37:00     -188.224     -168.386        1.832      164.102      154.859       78.525    26929.584    23981.439     6166.175        6.042        2.854      252.552       77.313        0.094      344.033       20.562      857.679
10/02/2013  13:38:00     -137.028     -107.215       19.299      144.060      109.564       59.375    20753.145    12004.219     3525.428        3.346        1.814      173.988       62.889        0.131      344.041       20.579      857.650
10/02/2013  13:39:00     -147.673     -321.919       -2.130      114.606       83.796       59.163    13134.643     7021.711     3500.289        7.455        1.183      354.174       43.124        0.015      343.773       20.118      857.636
10/02/2013  13:40:00     -170.530     -216.252       19.459      177.599      164.105       84.772    31541.231    26930.433     7186.223        7.093        3.283      275.401       71.367        0.067      343.898       20.332      857.573
10/02/2013  13:41:00     -181.777     -387.460        1.163      159.889      179.715       79.250    25564.589    32297.507     6280.507       12.364        3.207      427.981       59.062        0.019      343.939       20.402      857.566
10/02/2013  13:42:00     -258.605     -175.979       11.307      176.930      120.324       76.182    31304.346    14477.791     5803.695        7.477        2.579      312.802       87.989        0.079      344.092       20.663      857.603
10/02/2013  13:43:00     -288.075     -190.632       -3.319      134.944      108.601       57.369    18209.984    11794.128     3291.238        7.631        1.665      345.438       42.458        0.015      343.746       20.070      857.609
10/02/2013  13:44:00     -178.710     -274.448       -3.053      109.637      192.239       58.384    12020.267    36955.746     3408.731        7.982        2.619      327.504       51.671        0.025      343.671       19.943      857.615
10/02/2013  13:45:00     -177.509     -238.039      -26.493      109.256       97.516       51.255    11936.913     9509.367     2627.084        5.647        1.204      296.938       28.032        0.009      343.742       20.064      857.545
10/02/2013  13:46:00     -419.489     -206.707      -22.866      282.746      181.486       93.245    79945.029    32937.246     8694.594       17.037        6.079      467.652       95.437        0.042      343.800       20.164      857.557
10/02/2013  13:47:00     -543.551     -307.922       -6.718      291.265      245.055      130.165    84835.128    60051.922    16942.994       27.604        8.092      624.711      144.530        0.054      343.561       19.757      857.520
10/02/2013  13:48:00     -364.035     -232.390       -5.946      186.066      150.137       81.018    34620.566    22541.187     6563.867       12.513        3.186      431.887       87.670        0.041      343.543       19.724      857.542
10/02/2013  13:49:00     -374.658     -230.411      -23.014      314.290      166.038       85.643    98778.379    27568.460     7334.793       16.381        6.684      439.839      111.227        0.064      343.615       19.847      857.568
10/02/2013  13:50:00     -443.343     -244.733      -18.965      208.255      176.579       91.430    43370.159    31180.142     8359.477       16.984        4.145      506.407      107.279        0.045      343.556       19.747      857.506
10/02/2013  13:51:00     -379.157     -223.935      -21.650      227.419      168.326       98.016    51719.532    28333.503     9607.209       14.200        4.483      440.349      113.757        0.067      343.641       19.891      857.516
10/02/2013  13:52:00     -364.614     -262.303        3.614      187.251      171.388       89.871    35062.926    29373.791     8076.846       13.712        3.626      449.162       90.618        0.041      343.475       19.610      857.516
10/02/2013  13:53:00     -403.387     -281.696      -15.995      150.087      169.175       81.064    22526.050    28620.049     6571.299       15.001        2.886      492.010       87.301        0.031      343.590       19.806      857.472
10/02/2013  13:54:00     -228.460     -246.680      -17.716      138.408      137.879       67.227    19156.904    19010.491     4519.415        7.801        2.134      336.221       72.973        0.047      343.749       20.077      857.470
10/02/2013  13:55:00     -102.320     -273.640      -12.082      179.135      148.003       81.581    32089.260    21904.956     6655.459        7.306        3.032      292.144       72.076        0.061      343.703       19.997      857.452
10/02/2013  13:56:00     -290.169     -268.498       -5.098      193.804      154.759       99.624    37560.129    23950.302     9925.017       11.386        3.572      395.335       76.253        0.037      343.505       19.661      857.420
10/02/2013  13:57:00     -280.493     -343.243       25.968      188.130      202.727      104.537    35392.833    41098.218    10928.072       14.228        4.371      443.274      110.824        0.063      343.655       19.916      857.383
10/02/2013  13:58:00     -360.059     -237.082        1.102      146.436      162.192       95.610    21443.637    26306.280     9141.279       12.136        2.845      431.104       81.822        0.036      343.786       20.138      857.389
10/02/2013  13:59:00     -109.617      -79.963       27.499      118.431       84.268       59.364    14025.906     7101.064     3524.139        2.190        1.233      135.683       58.826        0.188      344.015       20.533      857.367
10/02/2013  14:00:00     -229.082     -187.702      -27.370      209.659      132.549       64.678    43957.088    17569.143     4183.200        7.707        3.285      296.160       73.503        0.062      343.863       20.271      857.356
10/02/2013  14:01:00     -199.073     -132.127       12.893      131.327      114.733       70.479    17246.898    13163.592     4967.355        4.631        1.769      238.930       70.540        0.087      344.010       20.525      857.362
10/02/2013  14:02:00     -262.375     -137.219        6.416      186.009      134.664       69.565    34599.384    18134.267     4839.341        7.263        2.879      296.091       75.550        0.065      343.867       20.278      857.376
10/02/2013  14:03:00     -140.761     -189.517       29.907      122.898      189.438       74.405    15103.895    35886.762     5536.042        5.656        2.826      236.073       82.437        0.122      343.893       20.323      857.401
10/02/2013  14:04:00     -228.117      -77.537       -2.798      129.023      107.347       71.650    16646.916    11523.441     5133.691        4.567        1.665      240.934       65.359        0.074      343.927       20.380      857.340
10/02/2013  14:05:00     -192.610     -191.935        5.148      211.920      151.323       79.312    44910.187    22898.672     6290.365        7.402        3.705      271.915       85.771        0.099      343.889       20.316      857.313
10/02/2013  14:06:00     -330.081     -267.429      -20.406      187.101      173.317       80.002    35006.827    30038.917     6400.359       12.615        3.572      424.820       81.998        0.037      343.902       20.338      857.272
10/02/2013  14:07:00     -300.154     -318.270       11.408      196.921      226.207      100.851    38777.962    51169.462    10170.992       14.580        5.006      437.479      105.031        0.058      343.820       20.198      857.246
10/02/2013  14:08:00     -437.297     -299.931        2.071      255.544      219.985      113.499    65302.806    48393.333    12882.047       20.386        6.329      530.271      136.501        0.066      343.663       19.928      857.237
10/02/2013  14:09:00     -397.558     -282.512       -8.446      253.613      178.088       89.074    64319.782    31715.272     7934.233       17.093        5.198      487.715       98.153        0.041      343.734       20.052      857.244
10/02/2013  14:10:00     -272.446     -182.994       -6.291      191.292      135.183       81.797    36592.789    18274.428     6690.684        8.464        3.078      328.198       85.817        0.068      343.880       20.301      857.281
10/02/2013  14:11:00     -134.395     -167.651       27.520      138.117      170.994       75.500    19076.185    29238.999     5700.310        5.046        2.701      214.870       74.739        0.121      344.045       20.583      857.276
10/02/2013  14:12:00     -346.836     -138.200      -14.850      171.223      148.916       82.100    29317.242    22175.917     6740.444        9.891        2.912      373.356       63.787        0.029      343.863       20.271      857.296
10/02/2013  14:13:00     -162.810     -132.548       -1.447      136.695      130.788       66.303    18685.438    17105.629     4396.051        4.212        2.009      209.943       64.270        0.094      344.082       20.647      857.288
10/02/2013  14:14:00     -380.954     -216.028        0.407      222.581      167.091       85.784    49542.093    27919.362     7358.872       13.829        4.241      437.943       93.756        0.046      343.878       20.297      857.289
10/02/2013  14:15:00     -388.138     -307.897       -8.957      193.395      210.679       91.712    37401.470    44385.775     8411.041       16.785        4.510      495.431       96.136        0.038      343.554       19.744      857.272
10/02/2013  14:16:00     -324.102     -377.089      -32.397      139.600      214.266       79.198    19488.093    45909.870     6272.392       15.996        3.584      497.231       56.948        0.013      343.732       20.049      857.270
10/02/2013  14:17:00     -228.511      -88.734        7.721      151.468      136.295       73.865    22942.679    18576.428     5456.009        5.355        2.349      245.134       82.882        0.114      344.065       20.615      857.259
10/02/2013  14:18:00     -400.858     -325.861      -11.772      234.889      212.715      100.589    55173.027    45247.727    10118.202       18.875        5.527      516.598      101.039        0.038      343.671       19.943      857.294
10/02/2013  14:19:00     -279.051     -168.902        3.013      186.377      190.099       83.388    34736.321    36137.600     6953.486        9.210        3.891      326.186       96.900        0.088      343.758       20.093      857.287
10/02/2013  14:20:00     -218.682     -120.579       11.142      124.552      157.235       75.912    15513.113    24722.691     5762.574        5.423        2.300      249.722       78.234        0.098      343.938       20.400      857.298
10/02/2013  14:21:00     -248.381     -404.692      -10.545      224.181      223.414       91.590    50256.989    49913.655     8388.761       16.705        5.428      474.835       96.198        0.041      343.745       20.069      857.265
10/02/2013  14:22:00     -247.109     -155.107        9.758      199.509      201.682       96.757    39803.696    40675.665     9361.967        8.751        4.492      291.755      109.948        0.142      344.008       20.518      857.307
10/02/2013  14:23:00     -165.421      -98.616        0.220      156.911      192.097       83.180    24621.067    36901.355     6918.901        5.275        3.422      192.586       87.354        0.206      344.163       20.783      857.297
10/02/2013  14:24:00     -313.366      -58.024      -16.951      237.791      163.547       97.087    56544.341    26747.667     9425.831        9.727        4.636      318.693      102.857        0.104      344.132       20.732      857.269
10/02/2013  14:25:00     -265.550       30.189       -4.836      169.049      124.430       66.662    28577.501    15482.853     4443.865        5.997        2.425      267.260       75.238        0.079      344.117       20.704      857.267
10/02/2013  14:26:00     -144.857      -96.462       14.930       96.306       94.028       61.199     9274.892     8841.194     3745.341        2.618        1.093      174.036       50.200        0.083      344.066       20.619      857.325
10/02/2013  14:27:00      -75.384      -65.294       20.170       85.068       68.120       45.347     7236.609     4640.365     2056.355        1.214        0.697       99.730       47.273        0.225      344.072       20.630      857.306
10/02/2013  14:28:00      -28.865      -80.186       36.633       91.272       87.473       53.195     8330.639     7651.550     2829.710        1.370        0.941       85.223       61.126        0.514      344.410       21.209      857.303
10/02/2013  14:29:00     -121.626     -100.086      -16.935      113.509       69.835       48.571    12884.249     4876.864     2359.166        2.260        1.006      157.512       55.835        0.126      344.389       21.171      857.325
10/02/2013  14:30:00     -213.686      -54.814       -0.954      227.561      127.766       79.633    51784.069    16324.105     6341.481        6.154        3.722      220.605      103.027        0.218      344.356       21.115      857.299
10/02/2013  14:31:00     -383.218     -179.784      -22.110      177.233      182.359       82.367    31411.411    33254.937     6784.365       12.554        3.573      423.294       79.545        0.035      344.173       20.801      857.276
10/02/2013  14:32:00     -467.150     -335.533       -8.534      245.064      211.481      116.467    60056.602    44724.372    13564.471       22.459        5.917      575.162      132.468        0.053      343.651       19.909      857.245
10/02/2013  14:33:00     -290.551     -258.704       11.775      202.042      163.273       90.848    40821.082    26658.124     8253.376       11.359        3.787      389.034      100.488        0.067      343.687       19.969      857.247
10/02/2013  14:34:00     -333.532     -211.746       12.119      220.490      178.536       97.171    48615.666    31875.027     9442.173       12.306        4.497      395.070      102.894        0.068      343.833       20.220      857.263
10/02/2013  14:35:00     -340.361     -223.234      -16.723      186.204      194.371       94.954    34672.112    37779.930     9016.292       12.370        4.073      407.037       79.128        0.038      343.849       20.247      857.291
10/02/2013  14:36:00     -293.375     -101.741        1.409      200.507      158.673       98.530    40202.886    25177.146     9708.229        8.574        3.754      310.516      101.292        0.106      343.852       20.253      857.310
10/02/2013  14:37:00     -662.481      -74.779      -45.052      274.271      180.397      100.897    75224.370    32542.975    10180.180       28.220        5.897      666.688      134.757        0.041      343.664       19.933      857.279
10/02/2013  14:38:00     -527.124     -148.352      -11.241      217.695      201.875       89.857    47391.035    40753.604     8074.255       19.809        4.811      547.602      100.607        0.034      343.614       19.849      857.275
10/02/2013  14:39:00     -433.536      -91.553      -17.250      241.966      183.007       88.563    58547.452    33491.450     7843.451       14.824        4.994      443.098      102.745        0.054      343.775       20.121      857.234
10/02/2013  14:40:00     -303.860      -78.938       -1.311      190.183      122.686       71.688    36169.392    15051.939     5139.210        7.745        2.818      313.946       85.151        0.074      344.112       20.696      857.262
10/02/2013  14:41:00     -357.548      -79.954        3.597      188.735      155.478       94.746    35620.986    24173.459     8976.821       10.149        3.439      366.378      108.617        0.088      343.971       20.455      857.221
10/02/2013  14:42:00     -375.730     -199.684        2.320      252.900      164.209       98.904    63958.540    26964.556     9781.944       14.086        5.035      425.496      126.352        0.088      343.925       20.377      857.242
10/02/2013  14:43:00     -210.034     -129.200       10.603      133.270      150.339       81.512    17760.904    22601.821     6644.242        5.395        2.350      246.591       69.539        0.080      343.845       20.240      857.209
10/02/2013  14:44:00     -276.755     -460.509      -42.510      222.393      232.528       92.063    49458.708    54069.192     8475.623       20.121        5.600      537.273      108.348        0.041      343.695       19.983      857.216
10/02/2013  14:45:00     -262.028     -308.988       -1.231      223.089      212.678       97.658    49768.818    45232.096     9537.047       13.431        5.227      405.132       98.268        0.059      343.756       20.088      857.227
10/02/2013  14:46:00     -206.239     -236.525       13.300      193.146      232.831       82.699    37305.444    54210.232     6839.186        9.849        4.918      313.813       91.057        0.084      343.773       20.120      857.212
10/02/2013  14:47:00     -306.404     -219.669       16.646      242.328      186.312       95.393    58722.708    34712.084     9099.741       12.245        5.127      377.012      108.735        0.083      343.750       20.078      857.254
10/02/2013  14:48:00     -294.352     -267.339        8.494      209.875      181.013       97.285    44047.679    32765.748     9464.280       12.221        4.314      397.635      109.094        0.075      343.748       20.075      857.286
10/02/2013  14:49:00      -13.226     -122.740       41.355      104.829      135.513       76.220    10989.045    18363.771     5809.550        2.605        1.758      123.450       60.632        0.241      344.009       20.522      857.326
10/02/2013  14:50:00     -267.979      -53.618      -18.949      122.856      161.397       61.271    15093.689    26049.137     3754.089        5.996        2.245      273.290       71.125        0.068      343.902       20.338      857.319
10/02/2013  14:51:00     -314.625     -127.467      -13.430      140.348      118.237       59.904    19697.519    13979.918     3588.501        7.633        1.863      339.465       52.203        0.024      343.914       20.359      857.315
10/02/2013  14:52:00     -218.638      -71.989       22.084      130.727      129.604       73.551    17089.517    16797.272     5409.721        4.638        1.965      230.185       71.517        0.097      344.035       20.566      857.321
10/02/2013  14:53:00     -281.734     -172.711        1.061      162.916      150.476       79.640    26541.776    22642.917     6342.597        8.235        2.776      330.459       86.997        0.069      343.714       20.018      857.322
10/02/2013  14:54:00     -167.555     -200.949       -5.451      121.958       96.397       52.936    14873.696     9292.307     2802.182        4.772        1.348      261.639       40.349        0.024      343.788       20.144      857.272
10/02/2013  14:55:00     -117.716      -70.696       10.802       81.708       85.704       41.338     6676.263     7345.221     1708.835        1.735        0.787      137.314       45.263        0.109      344.048       20.589      857.272
10/02/2013  14:56:00      -97.585     -276.104       -5.605      125.429      150.950       83.159    15732.499    22785.806     6915.474        6.560        2.272      292.842       75.161        0.066      343.974       20.462      857.263
10/02/2013  14:57:00     -334.644     -143.665       -1.256      185.296      191.828       81.048    34334.731    36798.069     6568.768       10.515        3.885      364.178       75.894        0.043      343.800       20.164      857.259
10/02/2013  14:58:00     -475.885     -242.975      -12.802      242.877      209.847      101.121    58989.044    44035.941    10225.467       19.944        5.663      534.325      126.181        0.056      343.827       20.210      857.257
10/02/2013  14:59:00     -494.284     -175.149       -5.320      156.958      200.074       83.797    24635.699    40029.799     7021.972       17.334        3.584      524.399       78.196        0.022      343.814       20.188      857.321
10/02/2013  15:00:00     -227.916     -111.057        0.467      175.875      115.179       73.573    30931.997    13266.186     5413.054        5.694        2.481      253.534       86.557        0.117      343.907       20.347      857.340
10/02/2013  15:01:00     -635.697     -128.221       -7.731      286.928      227.091      126.166    82327.786    51570.222    15917.798       28.518        7.491      648.499      136.633        0.044      343.681       19.962      857.276
10/02/2013  15:02:00     -354.337     -250.514        3.230      234.989      242.292      101.794    55219.682    58705.447    10362.106       15.628        6.214      433.949      116.705        0.072      343.740       20.062      857.261
10/02/2013  15:03:00     -429.452     -309.432       -2.498      223.269      189.256       95.269    49849.057    35817.716     9076.231       18.744        4.737      529.318      115.083        0.047      343.523       19.691      857.248
10/02/2013  15:04:00     -307.777     -135.176       -5.047      152.589       94.377       69.487    23283.420     8907.082     4828.473        7.501        1.851      336.154       83.243        0.061      343.603       19.827      857.201
10/02/2013  15:05:00     -302.866     -200.549       -9.314      200.419      115.436       82.380    40167.579    13325.567     6786.539        9.615        3.014      363.246       94.307        0.067      343.888       20.315      857.224
10/02/2013  15:06:00     -446.261     -280.853       -6.250      171.813      167.066       84.013    29519.758    27911.121     7058.149       17.126        3.224      527.283       82.853        0.025      343.845       20.242      857.256
10/02/2013  15:07:00     -398.546     -239.505       11.950      263.609      218.634      128.007    69489.773    47800.919    16385.856       17.498        6.684      464.974      142.632        0.094      343.735       20.053      857.268
10/02/2013  15:08:00     -460.470      -21.748      -24.439      212.017      177.339       88.775    44951.406    31449.084     7881.061       14.868        4.214      460.983       93.475        0.041      343.740       20.061      857.280
10/02/2013  15:09:00     -488.930     -135.330      -35.409      177.385      144.359       73.144    31465.444    20839.611     5349.995       15.813        2.883      507.313       81.357        0.026      343.528       19.700      857.265
10/02/2013  15:10:00     -414.287      -79.082      -22.672      263.562      158.673       90.010    69464.760    25177.076     8101.810       14.055        5.137      421.767      123.719        0.086      343.680       19.959      857.269
10/02/2013  15:11:00     -419.502     -210.087      -17.476      237.960      202.068       97.917    56624.863    40831.492     9587.649       16.371        5.352      469.168      106.435        0.051      343.620       19.857      857.277
10/02/2013  15:12:00     -399.972     -285.629      -21.037      182.486      152.508       90.450    33301.063    23258.590     8181.125       15.336        3.237      491.489       95.220        0.038      343.568       19.768      857.248
10/02/2013  15:13:00     -274.691     -117.455      -12.079      148.596       88.200       56.527    22080.675     7779.156     3195.265        6.122        1.653      298.749       55.468        0.034      343.781       20.130      857.235
10/02/2013  15:14:00     -316.220      -72.575      -17.278      201.877      135.544       87.914    40754.214    18372.042     7728.870        8.619        3.343      324.441       93.045        0.082      343.827       20.211      857.232
10/02/2013  15:15:00     -252.813      -95.977       -4.409      204.590      149.119       95.174    41857.172    22236.363     9058.171        7.313        3.658      270.418      107.228        0.157      343.896       20.328      857.225
10/02/2013  15:16:00     -476.939     -116.639       -3.447      225.628      187.996       95.351    50907.848    35342.564     9091.876       16.820        4.767      490.995      108.881        0.049      343.580       19.789      857.199
10/02/2013  15:17:00     -287.560     -113.157       10.791      188.821      187.940       95.711    35653.410    35321.324     9160.674        8.786        4.007      309.023      103.581        0.112      343.592       19.808      857.177
10/02/2013  15:18:00     -285.095     -176.812       -4.802      194.050      134.966       74.748    37655.592    18215.955     5587.268        8.700        3.073      335.472       82.172        0.060      343.615       19.849      857.185
10/02/2013  15:19:00     -205.076     -101.711       17.445      142.876      107.430       72.089    20413.539    11541.214     5196.861        4.492        1.858      228.913       81.630        0.127      343.855       20.260      857.173
10/02/2013  15:20:00     -219.881     -136.914        8.369      143.525      131.734       58.239    20599.356    17353.922     3391.832        5.425        2.067      259.023       78.010        0.091      343.968       20.450      857.225
10/02/2013  15:21:00     -150.411     -110.518       18.133      185.522      160.182       73.844    34418.393    25658.349     5452.900        5.033        3.276      186.648       79.148        0.180      343.995       20.498      857.255
10/02/2013  15:22:00     -380.720     -136.222        5.036      192.663      152.375       86.495    37119.084    23218.130     7481.428       11.566        3.391      404.356       91.872        0.052      343.850       20.249      857.283
10/02/2013  15:23:00     -443.224     -143.479        6.214      209.219      188.505       93.187    43772.715    35534.217     8683.822       15.251        4.400      465.869       99.540        0.046      343.734       20.051      857.292
10/02/2013  15:24:00     -643.083     -239.754      -35.052      284.179      156.264      101.911    80757.987    24418.493    10385.903       29.389        5.778      686.322      120.467        0.031      343.397       19.476      857.265
10/02/2013  15:25:00     -360.854     -136.657      -11.303      181.357      188.219       86.801    32890.257    35426.411     7534.407       11.242        3.793      385.864       95.260        0.061      343.742       20.065      857.272
10/02/2013  15:26:00     -284.060     -216.219        5.457      180.664      200.745       90.041    32639.388    40298.418     8107.407       10.424        4.052      356.988       98.000        0.075      343.643       19.896      857.269
10/02/2013  15:27:00     -446.999     -118.349      -26.561      205.446      184.584      100.329    42207.937    34071.141    10065.897       15.042        4.317      462.401      114.101        0.061      343.537       19.715      857.258
10/02/2013  15:28:00     -303.743     -219.554       -9.397      198.096      149.471       79.386    39242.029    22341.688     6302.122       10.421        3.394      374.786       85.461        0.052      343.542       19.722      857.222
10/02/2013  15:29:00     -401.661      -80.417      -12.134      267.649      231.733       97.575    71636.000    53700.198     9520.952       15.137        6.743      409.632      125.777        0.094      343.680       19.960      857.210
10/02/2013  15:30:00     -308.853      -79.872       -6.202      164.698      163.931       84.806    27125.287    26873.278     7192.131        8.149        3.060      319.014       82.953        0.068      343.892       20.321      857.244
10/02/2013  15:31:00     -292.246      -88.997        0.174      225.936      113.777       73.448    51047.234    12945.186     5394.659        8.134        3.469      305.496       93.061        0.093      343.842       20.237      857.214
10/02/2013  15:32:00     -256.383     -149.743       12.414      194.072      153.469       81.427    37663.764    23552.754     6630.278        7.806        3.392      296.910      102.379        0.119      343.787       20.142      857.217
10/02/2013  15:33:00     -226.299     -132.675       21.226      234.091      203.823      115.752    54798.727    41543.836    13398.477        8.948        5.487      262.324      132.568        0.255      343.762       20.099      857.197
10/02/2013  15:34:00     -317.189     -226.266        6.984      243.648      285.779      112.863    59364.513    81669.821    12737.950       15.278        7.689      389.622      136.227        0.122      343.620       19.857      857.179
10/02/2013  15:35:00     -432.308     -234.779      -20.451      202.496      144.958       83.720    41004.560    21012.763     7009.003       15.571        3.451      491.947       87.221        0.031      343.555       19.745      857.205
10/02/2013  15:36:00     -217.814     -139.530       -6.527      193.788      133.328       72.017    37553.883    17776.388     5186.492        6.372        3.026      258.673       70.939        0.075      343.738       20.058      857.200
10/02/2013  15:37:00     -253.432      -80.052      -17.866      160.045      125.507       63.784    25614.421    15751.988     4068.420        5.819        2.272      265.775       62.243        0.055      343.938       20.400      857.252
10/02/2013  15:38:00     -265.616      -28.532       -5.739      174.533      124.605       69.601    30461.753    15526.403     4844.323        6.111        2.542      267.144       69.937        0.069      343.900       20.336      857.271
10/02/2013  15:39:00     -244.503      -77.622        3.010      168.307      136.538       77.621    28327.087    18642.688     6025.084        5.939        2.650      256.529       88.018        0.118      343.941       20.404      857.281
10/02/2013  15:40:00     -321.468     -184.158       14.011      207.969      141.160       84.447    43251.074    19926.189     7131.255       10.387        3.515      370.480       98.344        0.070      343.663       19.930      857.272
10/02/2013  15:41:00     -154.324     -132.641       28.763      197.908      172.234       89.023    39167.571    29664.515     7925.091        5.948        3.838      203.493      104.470        0.264      343.611       19.843      857.258
10/02/2013  15:42:00     -200.540      -67.280        4.480      156.508      140.663       67.811    24494.666    19785.985     4598.271        4.681        2.444      211.525       78.531        0.138      343.698       19.991      857.249
10/02/2013  15:43:00     -409.593     -108.602      -16.230      238.748      196.552       96.510    57000.499    38632.596     9314.261       14.236        5.247      423.746      105.419        0.062      343.665       19.932      857.237
10/02/2013  15:44:00     -454.096      -64.149        2.653      283.066      202.996      107.506    80126.119    41207.291    11557.540       17.158        6.645      458.605      134.906        0.087      343.533       19.709      857.229
10/02/2013  15:45:00     -414.297     -220.769       -9.623      234.509      159.206      110.561    54994.348    25346.611    12223.678       15.650        4.628      469.448      105.974        0.051      343.398       19.479      857.244
10/02/2013  15:46:00     -164.147     -163.477       21.746      194.139      118.524       91.696    37689.809    14048.012     8408.090        5.713        3.007      231.666       82.649        0.127      343.610       19.840      857.253
10/02/2013  15:47:00     -280.253     -154.091       -1.350      178.757      121.978       70.976    31953.888    14878.711     5037.652        7.707        2.594      319.821       71.086        0.049      343.649       19.906      857.238
10/02/2013  15:48:00     -295.843     -145.665        5.201      284.014      236.774       90.100    80664.206    56061.770     8118.087       12.678        7.242      329.759      106.468        0.104      343.634       19.881      857.338
10/02/2013  15:49:00     -503.045     -297.150        4.168      322.415      201.065      126.816   103951.519    40426.992    16082.384       25.088        8.023      584.254      153.766        0.069      343.412       19.502      857.291
10/02/2013  15:50:00     -355.503     -207.756      -10.758      223.522      174.395       99.727    49962.038    30413.444     9945.394       12.997        4.516      411.758      104.613        0.065      343.434       19.539      857.311
10/02/2013  15:51:00     -360.028     -313.643      -12.500      215.990      176.449      124.987    46651.818    31134.247    15621.689       16.076        4.670      477.485      122.499        0.066      343.397       19.477      857.277
10/02/2013  15:52:00     -267.056     -107.226       16.117      207.602      160.666       91.793    43098.725    25813.446     8425.969        8.019        3.867      287.778      104.263        0.131      343.555       19.746      857.278
10/02/2013  15:53:00     -351.542     -105.576      -14.850      169.777      133.296       72.100    28824.235    17767.803     5198.478        9.336        2.590      367.053       76.680        0.044      343.573       19.775      857.287
10/02/2013  15:54:00     -413.874     -117.253      -13.770      180.143      170.877      102.305    32451.553    29198.847    10466.240       12.866        3.606      430.163      106.182        0.061      343.507       19.663      857.277
10/02/2013  15:55:00     -265.128        1.855       -6.689      213.643      164.638       85.661    45643.385    27105.824     7337.726        7.520        4.004      265.134      101.264        0.146      343.584       19.795      857.277
10/02/2013  15:56:00     -367.933      -36.224       -4.799      273.392      195.048      105.356    74743.263    38043.726    11099.785       13.027        6.194      369.712      136.655        0.137      343.593       19.810      857.241
10/02/2013  15:57:00     -476.195      -97.571      -17.048      230.601      159.633       97.830    53176.985    25482.571     9570.786       16.238        4.412      486.089      119.254        0.060      343.426       19.526      857.242
10/02/2013  15:58:00     -369.430      -19.443      -10.710      175.133      168.434       83.386    30671.617    28370.071     6953.181       10.147        3.300      369.941       79.951        0.047      343.649       19.906      857.239
10/02/2013  15:59:00     -365.648     -103.071       -9.344      194.973      147.413       76.222    38014.512    21730.516     5809.839       10.497        3.278      379.897       77.618        0.042      343.674       19.948      857.272
10/02/2013  16:00:00     -186.130      -47.010        2.429      152.247      110.525       64.617    23179.178    12215.847     4175.334        3.821        1.979      191.974       76.783        0.160      343.771       20.114      857.296
10/02/2013  16:01:00     -231.919     -102.679       -9.134      151.158      145.592       85.696    22848.631    21197.051     7343.889        5.789        2.569      253.633       74.635        0.087      343.615       19.849      857.289
10/02/2013  16:02:00     -455.236     -149.240      -28.996      239.012      218.136      104.175    57126.551    47583.433    10852.368       17.293        5.778      479.074       98.322        0.042      343.565       19.764      857.222
10/02/2013  16:03:00     -492.163      -93.203      -21.006      266.021      305.882      110.776    70767.168    93563.997    12271.371       21.394        8.830      500.910      111.468        0.050      343.559       19.753      857.233
10/02/2013  16:04:00     -328.457      -25.174        5.996      237.394      215.490       94.650    56356.034    46435.912     8958.681       11.013        5.588      329.420       90.672        0.076      343.783       20.136      857.291
10/02/2013  16:05:00     -251.778     -159.810        3.518      140.904      147.121       77.663    19853.879    21644.477     6031.470        6.823        2.376      298.213       79.666        0.071      343.838       20.229      857.376
10/02/2013  16:06:00     -332.152      -99.855      -18.113      220.548      146.458       88.300    48641.540    21450.082     7796.904        9.924        3.894      346.838      106.809        0.095      343.559       19.752      857.401
10/02/2013  16:07:00     -234.269     -127.927      -19.218      167.239      128.292       76.138    27968.754    16458.857     5797.057        6.091        2.511      266.922       70.739        0.070      343.336       19.373      857.360
10/02/2013  16:08:00     -259.500      -62.327       -6.308      218.425      106.916       61.823    47709.326    11430.925     3822.137        6.710        3.148      266.880       73.404        0.076      343.597       19.817      857.383
10/02/2013  16:09:00     -527.327       24.611      -38.620      255.590      254.125      109.228    65326.259    64579.624    11930.705       21.098        7.092      527.901      117.438        0.049      343.366       19.423      857.349
10/02/2013  16:10:00     -408.510      -72.607      -23.519      225.474      145.000       85.748    50838.706    21025.080     7352.781       12.595        3.961      414.913       90.450        0.048      343.527       19.698      857.409
10/02/2013  16:11:00     -247.939      -83.856       11.464      181.126      150.006       77.338    32806.631    22501.903     5981.093        6.495        3.064      261.736       81.815        0.098      343.636       19.885      857.442
10/02/2013  16:12:00     -199.881     -152.471       -0.340      186.678      127.435       72.986    34848.817    16239.670     5326.927        5.980        2.821      251.395       80.967        0.104      343.709       20.008      857.475
10/02/2013  16:13:00     -282.864     -213.339        6.066      192.723      163.638      102.255    37141.964    26777.361    10456.088        9.995        3.719      354.295      109.350        0.095      343.510       19.669      857.510
10/02/2013  16:14:00     -279.096      -90.005        7.870      152.341      158.356       80.682    23207.909    25076.572     6509.526        7.041        2.740      293.250       71.088        0.059      343.498       19.647      857.477
10/02/2013  16:15:00     -371.959      -82.002      -16.271      120.676      117.182       59.585    14562.592    13731.565     3550.388        8.859        1.592      380.891       58.469        0.024      343.488       19.631      857.510
10/02/2013  16:16:00     -316.201      -68.330       -5.742      209.954      115.162       68.449    44080.813    13262.391     4685.237        8.334        3.101      323.500       79.912        0.061      343.606       19.834      857.533
10/02/2013  16:17:00     -483.777      -96.207      -28.769      206.720      160.738       94.413    42733.171    25836.736     8913.766       16.079        3.874      493.250      104.484        0.045      343.297       19.307      857.485
10/02/2013  16:18:00     -481.317     -140.563      -22.092      310.121      212.432      110.585    96174.862    45127.565    12229.136       20.269        7.677      501.422      126.434        0.064      343.427       19.526      857.476
10/02/2013  16:19:00     -731.686     -204.484      -51.928      241.250      182.551       97.130    58201.402    33325.033     9434.256       34.040        5.048      759.723      110.535        0.021      343.244       19.216      857.473
10/02/2013  16:20:00     -491.728     -138.415       -6.996      215.535      171.535      104.439    46455.546    29424.345    10907.484       17.388        4.339      510.837      110.169        0.047      343.351       19.398      857.513
10/02/2013  16:21:00     -536.757      -65.249      -25.684      240.941      163.774      100.968    58052.786    26821.947    10194.543       19.403        4.753      540.709      113.834        0.044      343.428       19.530      857.528
10/02/2013  16:22:00     -665.484     -171.087      -32.405      272.197      204.284      113.214    74091.026    41732.137    12817.361       30.089        6.432      687.124      125.845        0.034      343.264       19.249      857.516
10/02/2013  16:23:00     -338.874     -168.071       -4.462      209.577      143.115       73.791    43922.397    20481.989     5445.175       10.646        3.492      378.264       91.996        0.059      343.494       19.642      857.564
10/02/2013  16:24:00     -452.738      -43.731      -18.333      185.176      130.447       80.515    34290.143    17016.518     6482.699       13.249        2.889      454.845       94.859        0.043      343.553       19.742      857.613
10/02/2013  16:25:00     -326.612      -49.300       -4.713      183.947      127.900       81.331    33836.551    16358.283     6614.747        8.296        2.840      330.312       87.637        0.070      343.430       19.532      857.586
10/02/2013  16:26:00     -403.611      -72.168       -2.433      223.551      124.242       90.761    49974.898    15436.063     8237.492       12.087        3.682      410.013      101.069        0.061      343.360       19.413      857.542
10/02/2013  16:27:00     -489.019      -79.762      -21.194      277.552      207.745      101.035    77034.998    43157.965    10208.069       18.815        6.520      495.482      108.143        0.048      343.390       19.466      857.577
10/02/2013  16:28:00     -400.514     -116.995       -2.612      233.902      216.515       93.216    54710.006    46878.745     8689.160       14.217        5.514      417.252      111.023        0.071      343.373       19.435      857.587
10/02/2013  16:29:00     -574.571     -224.730      -19.093      312.602      249.826      116.945    97720.111    62412.807    13676.210       27.737        8.690      616.957      146.471        0.056      343.198       19.136      857.590
10/02/2013  16:30:00     -461.952     -276.049      -21.154      243.869      174.032       90.793    59472.226    30286.996     8243.323       19.401        4.900      538.148      111.506        0.043      343.322       19.349      857.566
10/02/2013  16:31:00     -280.351     -158.962       15.294      207.541      157.892       94.515    43073.154    24929.937     8933.061        9.050        3.847      322.282      101.121        0.098      343.308       19.325      857.565
10/02/2013  16:32:00     -435.030      -93.363      -20.836      210.602      154.450       82.734    44353.124    23854.906     6844.975       13.671        3.753      444.936       84.533        0.036      343.282       19.282      857.549
10/02/2013  16:33:00     -691.447      -91.805      -22.455      369.695      240.516      127.454   136674.280    57847.864    16244.415       34.886       10.538      697.515      171.402        0.060      343.256       19.236      857.534
10/02/2013  16:34:00     -620.111     -127.485      -32.969      346.071      209.442      108.119   119765.200    43865.833    11689.627       28.856        8.766      633.079      119.114        0.035      343.182       19.110      857.560
10/02/2013  16:35:00     -639.777     -104.412      -27.495      256.509      187.961      109.604    65796.913    35329.193    12013.054       26.703        5.657      648.241      113.697        0.031      343.226       19.185      857.606
10/02/2013  16:36:00     -429.576     -168.579      -10.651      285.236      172.337      108.879    81359.300    29699.898    11854.571       16.797        6.146      461.470      118.256        0.066      343.199       19.140      857.640
10/02/2013  16:37:00     -397.299     -200.494      -15.680      204.210      179.504       87.891    41701.532    32221.570     7724.909       13.995        4.082      445.022      106.678        0.057      343.194       19.130      857.665
10/02/2013  16:38:00     -609.230     -277.815      -37.549      323.029      235.327      129.360   104347.415    55378.572    16734.110       31.307        8.823      669.584      156.467        0.055      343.075       18.927      857.639
10/02/2013  16:39:00     -699.167     -210.049      -41.598      290.861      206.980      108.858    84600.239    42840.775    11850.125       33.696        6.965      730.038      128.803        0.031      343.090       18.953      857.612
10/02/2013  16:40:00     -397.158      -47.924      -14.112      223.615      187.336       89.346    50003.804    35094.650     7982.703       12.664        4.654      400.039      106.522        0.071      343.269       19.258      857.587
10/02/2013  16:41:00     -580.910     -143.408      -37.577      253.990      205.472      100.598    64511.168    42218.734    10120.030       23.812        5.842      598.349      113.865        0.036      343.173       19.094      857.569
10/02/2013  16:42:00     -467.805     -192.301      -25.836      216.955      169.830       92.545    47069.623    28842.388     8564.645       17.047        4.224      505.788      101.749        0.040      343.268       19.255      857.629
10/02/2013  16:43:00     -360.267      -90.006      -18.809      269.888      193.223      100.445    72839.447    37335.278    10089.262       12.923        6.013      371.340      133.999        0.130      343.265       19.251      857.657
10/02/2013  16:44:00     -339.255     -211.023       -5.411      244.433      165.614       98.619    59747.680    27428.122     9725.697       12.826        4.845      399.530      121.368        0.092      343.052       18.889      857.617
10/02/2013  16:45:00     -310.823     -116.964       -7.447      148.596      131.287       55.957    22080.711    17236.375     3131.207        7.639        2.122      332.102       60.880        0.034      343.078       18.934      857.590
10/02/2013  16:46:00     -350.676     -135.462       -4.979      171.125       99.128       53.993    29283.714     9826.272     2915.233        9.168        2.101      375.930       67.309        0.032      343.167       19.084      857.626
10/02/2013  16:47:00     -365.603      -37.496      -11.393      259.329      128.814       74.469    67251.647    16593.147     5545.664       11.228        4.470      367.521      118.324        0.104      343.187       19.120      857.643
10/02/2013  16:48:00     -213.854     -134.745       -6.780      226.477      177.479       80.780    51291.741    31498.667     6525.427        7.661        4.466      252.764      104.017        0.169      343.265       19.251      857.618
10/02/2013  16:49:00     -227.580      -61.420        4.060      208.452      131.790       76.533    43452.270    17368.701     5857.288        6.112        3.334      235.723       84.262        0.128      343.306       19.320      857.643
10/02/2013  16:50:00     -320.345      -48.116       -6.560      194.358      153.614       94.945    37775.184    23597.411     9014.620        8.767        3.519      323.939      104.232        0.104      343.237       19.203      857.669
10/02/2013  16:51:00     -432.879     -332.913        5.436      313.590      217.205      130.594    98338.690    47177.976    17054.802       23.038        8.129      546.091      159.341        0.085      343.093       18.958      857.664
10/02/2013  16:52:00     -236.441      -88.072      -14.892      118.997      102.941       50.553    14160.181    10596.941     2555.652        4.559        1.366      252.311       53.703        0.045      343.235       19.200      857.691
10/02/2013  16:53:00     -180.376      -16.181       16.815      138.805      122.619       66.285    19266.806    15035.299     4393.642        3.588        1.935      181.100       68.446        0.143      343.329       19.361      857.723
10/02/2013  16:54:00     -126.825      -54.359        9.513      134.913      111.285       67.170    18201.598    12384.393     4511.828        2.711        1.755      137.984       70.528        0.261      343.289       19.294      857.700
10/02/2013  16:55:00     -152.463      -59.690       18.253      162.188      114.252       60.262    26305.013    13053.594     3631.513        3.506        2.150      163.731       51.894        0.100      343.235       19.203      857.690
10/02/2013  16:56:00     -243.689     -117.097        4.108      204.004      142.023       80.834    41617.508    20170.425     6534.194        7.070        3.416      270.363       98.022        0.131      343.047       18.880      857.655
10/02/2013  16:57:00     -458.518     -165.551        8.768      274.559      177.554      104.432    75382.737    31525.444    10906.013       17.774        5.891      487.490      115.782        0.056      342.972       18.752      857.666
10/02/2013  16:58:00     -347.496     -126.165        3.977      247.074      199.072      100.959    61045.715    39629.565    10192.656       12.376        5.543      369.691      114.820        0.096      342.982       18.770      857.651
10/02/2013  16:59:00     -454.748      -77.419      -23.141      176.863      170.944       83.815    31280.445    29221.793     7024.978       14.041        3.376      461.291       82.630        0.032      342.966       18.742      857.641
10/02/2013  17:00:00     -549.402     -173.421      -25.406      178.445      135.436       66.656    31842.441    18342.848     4442.979       19.358        2.731      576.122       71.296        0.015      342.851       18.546      857.587
10/02/2013  17:01:00     -549.117      -11.108      -30.221      168.954      169.302       79.330    28545.393    28663.034     6293.261       18.302        3.175      549.229       72.618        0.017      342.931       18.684      857.633
10/02/2013  17:02:00     -278.665      -59.856        2.865      161.027      104.630       68.061    25929.732    10947.385     4632.350        6.137        2.075      285.021       82.831        0.084      343.064       18.910      857.688
10/02/2013  17:03:00     -306.005     -105.835       -5.806      140.131      139.997       67.285    19636.673    19599.286     4527.212        7.431        2.188      323.790       61.584        0.036      343.095       18.962      857.739
10/02/2013  17:04:00     -241.742      -14.669       -4.760      156.150      116.606       65.730    24382.729    13597.016     4320.444        5.048        2.115      242.187       62.810        0.067      343.074       18.927      857.730
10/02/2013  17:05:00     -123.764      -51.123       20.496      174.835       90.902       60.652    30567.340     8263.130     3678.664        3.042        2.125      133.907       71.862        0.288      343.102       18.976      857.708
10/02/2013  17:06:00     -531.444     -106.412      -27.400      185.875      184.546       83.737    34549.678    34057.226     7011.954       18.505        3.781      541.993       75.369        0.019      342.923       18.670      857.679
10/02/2013  17:07:00     -471.625     -141.821        2.075      187.784      135.370       84.421    35263.007    18325.095     7126.921       15.162        3.036      492.487       95.584        0.038      342.892       18.615      857.672
10/02/2013  17:08:00     -439.175     -221.602      -16.927      170.730      126.334       84.509    29148.613    15960.196     7141.768       14.725        2.613      491.917       77.995        0.025      342.866       18.573      857.690
10/02/2013  17:09:00     -396.310     -145.965       -7.582      150.684      124.685       82.156    22705.654    15546.239     6749.593       11.170        2.250      422.336       75.326        0.032      342.905       18.638      857.722
10/02/2013  17:10:00     -222.124      -71.307       -1.190      173.780      129.237       74.806    30199.420    16702.300     5595.874        5.345        2.625      233.289       85.408        0.134      343.003       18.806      857.713
10/02/2013  17:11:00     -256.000     -188.006        0.457      192.690      193.818       72.432    37129.495    37565.551     5246.356        9.040        3.997      317.619       81.483        0.066      342.943       18.703      857.732
10/02/2013  17:12:00     -438.024     -331.188        3.198      287.161      209.429      116.659    82461.384    43860.613    13609.312       22.072        6.997      549.136      133.973        0.060      342.863       18.568      857.737
10/02/2013  17:13:00     -497.955     -366.022      -18.392      261.077      219.346      127.793    68161.144    48112.506    16331.115       25.741        6.630      618.006      135.077        0.048      342.736       18.352      857.737
10/02/2013  17:14:00     -436.138     -304.277        7.122      263.514      172.010       98.037    69439.629    29587.603     9611.158       19.572        5.432      531.790      125.566        0.056      342.739       18.356      857.773
10/02/2013  17:15:00     -567.289     -183.313      -17.912      196.776      165.281       88.503    38720.640    27317.647     7832.722       21.479        3.694      596.172       81.462        0.019      342.661       18.223      857.778
10/02/2013  17:16:00     -521.798     -216.294      -17.623      205.288      151.389       82.881    42143.365    22918.488     6869.219       19.563        3.597      564.851       85.400        0.023      342.705       18.299      857.771
10/02/2013  17:17:00     -401.788      -72.137      -29.493      159.048      126.517       86.567    25296.172    16006.622     7493.786       10.814        2.440      408.212       78.124        0.037      342.800       18.462      857.806
10/02/2013  17:18:00     -538.792      -96.933      -31.520      225.469      130.992       94.449    50836.175    17158.938     8920.630       18.879        3.846      547.442      112.060        0.042      342.761       18.394      857.753
10/02/2013  17:19:00     -340.473      -36.231      -20.564      230.441      156.105       67.127    53102.860    24368.835     4506.032        9.980        4.099      342.396       75.844        0.049      342.809       18.477      857.757
10/02/2013  17:20:00     -309.175      -40.664       -9.704      174.420      103.047       69.842    30422.278    10618.676     4877.952        7.162        2.296      311.838       76.963        0.061      342.873       18.585      857.753
10/02/2013  17:21:00     -203.303      -81.844       -7.833      127.898      119.131       54.006    16357.874    14192.147     2916.610        4.077        1.673      219.159       44.829        0.042      342.848       18.542      857.790
10/02/2013  17:22:00     -258.320     -134.613       -2.551      127.213      102.857       66.001    16183.187    10579.529     4356.076        5.798        1.556      291.290       67.503        0.054      342.783       18.431      857.821
10/02/2013  17:23:00     -215.323      -82.324      -11.690      166.096       86.642       68.315    27587.842     7506.767     4666.996        4.651        1.988      230.524       91.941        0.159      342.830       18.513      857.850
10/02/2013  17:24:00     -459.585      -52.233      -38.762      231.595      159.264       89.194    53636.029    25364.881     7955.564       15.119        4.348      462.544      108.386        0.055      342.764       18.398      857.846
10/02/2013  17:25:00     -343.370      -95.727       -5.315      184.023      142.080       83.265    33864.567    20186.854     6933.073        9.403        3.049      356.464       79.894        0.050      342.863       18.568      857.842
10/02/2013  17:26:00     -358.011     -135.035       -3.858      190.787      174.469       84.356    36399.794    30439.541     7115.852       11.017        3.698      382.631       83.277        0.047      342.698       18.286      857.859
10/02/2013  17:27:00     -442.703     -187.845      -21.610      235.228      111.095       72.469    55332.136    12342.165     5251.740       15.232        3.646      480.907       69.232        0.021      342.660       18.220      857.872
10/02/2013  17:28:00     -414.949     -104.634      -27.001      141.560      126.754       68.955    20039.141    16066.552     4754.850       11.235        2.043      427.938       72.160        0.028      342.678       18.251      857.871
10/02/2013  17:29:00     -196.926     -124.241        3.281      104.360      101.028       57.064    10891.089    10206.664     3256.273        3.929        1.218      232.842       55.261        0.056      342.670       18.241      857.884
10/02/2013  17:30:00     -303.073      -82.215       -4.719      194.061      145.637       74.427    37659.815    21210.266     5539.384        8.151        3.220      314.026       79.800        0.065      342.695       18.282      857.913
10/02/2013  17:31:00     -439.855     -164.366      -29.539      239.929      121.874       92.167    57566.139    14853.253     8494.796       15.112        4.046      469.562       99.224        0.045      342.639       18.187      857.926
10/02/2013  17:32:00     -291.357     -127.126       -8.820      205.948      108.368       67.846    42414.548    11743.581     4603.017        7.993        2.938      317.884       84.832        0.071      342.624       18.162      857.937
10/02/2013  17:33:00     -322.859     -131.983      -26.130      144.827      105.302       58.873    20974.958    11088.516     3465.992        7.893        1.776      348.794       53.499        0.024      342.596       18.113      857.949
10/02/2013  17:34:00     -196.765      -54.777       -6.677      102.285      124.839       65.592    10462.241    15584.748     4302.284        3.605        1.517      204.247       59.226        0.084      342.630       18.170      857.933
10/02/2013  17:35:00     -121.300        5.755        1.139      133.888       76.207       49.531    17926.024     5807.493     2453.356        2.046        1.309      121.437       54.336        0.200      342.700       18.292      857.947
10/02/2013  17:36:00     -248.513     -129.296      -22.543      102.140      116.218       59.560    10432.514    13506.675     3547.389        5.323        1.374      280.136       59.193        0.045      342.595       18.110      857.953
10/02/2013  17:37:00     -355.401     -100.347      -15.352      137.838      131.961       70.782    18999.414    17413.661     5010.048        8.901        2.071      369.296       69.627        0.036      342.506       17.961      857.992
10/02/2013  17:38:00     -191.171     -101.595        2.703      133.476       85.811       55.559    17815.725     7363.516     3086.797        3.757        1.413      216.490       57.216        0.070      342.487       17.927      858.019
10/02/2013  17:39:00     -302.972      -97.526        6.733      135.657      133.389       71.364    18402.726    17792.625     5092.878        7.131        2.064      318.282       79.576        0.063      342.452       17.869      858.029
10/02/2013  17:40:00     -491.029      -96.348      -55.509      192.727      164.102       80.423    37143.689    26929.494     6467.910       16.199        3.527      500.392       73.475        0.022      342.421       17.815      858.063
10/02/2013  17:41:00     -466.045     -118.447      -18.337      276.167      229.324       91.313    76268.232    52589.399     8338.034       18.435        6.860      480.861      111.534        0.054      342.345       17.687      858.059
10/02/2013  17:42:00     -259.944     -162.684        9.920      213.957      148.639       83.648    45777.634    22093.560     6996.927        8.449        3.743      306.655       86.637        0.080      342.299       17.609      858.080
10/02/2013  17:43:00     -236.458      -89.615       -1.578      122.559      114.280       59.266    15020.586    13060.014     3512.408        4.776        1.580      252.870       63.716        0.063      342.353       17.699      858.085
10/02/2013  17:44:00     -472.236      -55.112      -34.198      206.292      181.143       83.206    42556.498    32812.767     6923.270       15.474        4.115      475.441       88.641        0.035      342.326       17.654      858.077
10/02/2013  17:45:00     -584.411     -104.072      -28.314      156.060      133.054       80.067    24354.572    17703.318     6410.675       20.081        2.423      593.606       75.846        0.016      342.231       17.493      858.135
10/02/2013  17:46:00     -493.729      -65.347      -25.829      204.071      188.297       84.626    41645.005    35455.677     7161.534       16.647        4.213      498.035      102.825        0.043      342.271       17.560      858.137
10/02/2013  17:47:00     -540.683      -57.222      -55.083      251.679      139.204       96.521    63342.554    19377.759     9316.320       19.532        4.602      543.702      112.117        0.043      342.241       17.510      858.165
10/02/2013  17:48:00     -441.192      -57.002      -22.565      165.389      129.891       72.304    27353.624    16871.791     5227.866       12.392        2.473      444.859       72.219        0.026      342.248       17.521      858.108
10/02/2013  17:49:00     -346.144      -60.206      -11.700      120.940      110.092       57.700    14626.408    12120.331     3329.280        7.682        1.504      351.341       61.912        0.031      342.242       17.510      858.123
10/02/2013  17:50:00     -243.625      -26.074       -2.702      140.825      107.793       64.484    19831.720    11619.370     4158.195        4.782        1.780      245.016       60.099        0.060      342.323       17.649      858.105
10/02/2013  17:51:00     -214.746      -69.255       17.168      156.941      104.472       59.680    24630.524    10914.331     3561.745        4.515        1.955      225.637       77.825        0.119      342.095       17.262      858.147
10/02/2013  17:52:00     -124.118     -128.752       16.189      139.680      163.058       74.649    19510.431    26587.884     5572.449        4.195        2.584      178.836       58.525        0.107      342.174       17.396      858.160
10/02/2013  17:53:00     -200.333      -92.945      -14.417      135.662       81.666       62.930    18404.075     6669.301     3960.131        3.900        1.452      220.844       58.263        0.070      342.193       17.428      858.166
10/02/2013  17:54:00     -202.512      -83.287        1.400      101.517       78.285       53.688    10305.647     6128.575     2882.358        3.363        0.966      218.970       49.334        0.051      342.170       17.389      858.187
10/02/2013  17:55:00     -195.169     -108.327       -6.086      123.749      124.409       57.863    15313.893    15477.502     3348.171        4.199        1.707      223.217       55.049        0.061      342.128       17.317      858.225
10/02/2013  17:56:00     -466.530      -95.203      -19.561      213.652      155.561       86.222    45647.216    24199.192     7434.186       15.217        3.864      476.144      102.977        0.047      342.100       17.270      858.231
10/02/2013  17:57:00     -154.519     -106.552       19.175      231.605      152.136       97.970    53640.701    23145.514     9598.086        6.097        4.319      187.695      125.530        0.447      342.074       17.228      858.210
10/02/2013  17:58:00     -379.420      -39.405       -3.344      206.343      116.080       72.802    42577.303    13474.665     5300.136       10.343        3.068      381.461       84.842        0.049      342.100       17.271      858.215
10/02/2013  17:59:00     -258.008      -76.257       -1.804      142.891      110.025       54.598    20417.816    12105.507     2980.948        5.394        1.775      269.041       63.441        0.056      342.090       17.253      858.216
10/02/2013  18:00:00     -245.599      -40.245       -9.587      116.943       87.042       60.514    13675.742     7576.383     3661.979        4.347        1.246      248.874       58.357        0.055      342.080       17.236      858.215
10/02/2013  18:01:00     -147.662      -63.721        4.999      121.354       95.284       53.924    14726.889     9079.013     2907.845        2.630        1.336      160.824       56.381        0.123      342.140       17.340      858.223
10/02/2013  18:02:00     -322.533     -135.272      -13.541      118.728      114.661       53.801    14096.353    13147.165     2894.584        7.632        1.507      349.751       50.343        0.021      342.032       17.154      858.208
10/02/2013  18:03:00     -128.637      -69.896       12.863      113.805       90.525       63.322    12951.597     8194.860     4009.643        2.337        1.258      146.400       54.794        0.140      342.044       17.177      858.195
10/02/2013  18:04:00     -243.379     -115.408      -10.343      194.523      114.033       66.050    37839.009    13003.546     4362.649        6.392        2.760      269.356       75.439        0.078      342.036       17.163      858.196
10/02/2013  18:05:00     -115.753     -134.116       11.310      149.885      114.202       65.813    22465.530    13042.083     4331.315        3.567        1.992      177.160       83.518        0.222      341.989       17.083      858.193
10/02/2013  18:06:00     -206.273     -122.849       -0.800      159.741       99.763       58.811    25517.092     9952.576     3458.762        4.828        1.946      240.084       68.817        0.082      341.989       17.083      858.168
10/02/2013  18:07:00     -163.035      -79.858       15.937      169.293       90.464       72.208    28660.052     8183.778     5213.933        3.763        2.103      181.543       87.378        0.232      341.924       16.974      858.144
10/02/2013  18:08:00      -39.973       -2.262        8.208      110.465      113.568       51.088    12202.592    12897.753     2610.001        1.468        1.386       40.036       52.769        1.737      341.777       16.725      858.135
10/02/2013  18:09:00      -58.532      -51.789       12.266       90.297       82.710       50.885     8153.494     6840.916     2589.266        1.192        0.879       78.155       52.041        0.443      341.882       16.904      858.132
10/02/2013  18:10:00      -38.534      -35.359       17.409       82.309       72.834       49.214     6774.706     5304.740     2422.040        0.877        0.725       52.299       37.921        0.526      341.918       16.966      858.108
10/02/2013  18:11:00      -90.928      -76.230       11.787      101.813       88.304       44.482    10365.921     7797.601     1978.669        1.718        1.007      118.654       48.512        0.167      341.848       16.844      858.128
10/02/2013  18:12:00     -111.292      -79.762        0.610       94.470       57.856       37.378     8924.538     3347.283     1397.149        1.621        0.683      136.923       41.880        0.094      341.894       16.921      858.127
10/02/2013  18:13:00      -79.986      -59.986       16.744       83.485       88.826       35.578     6969.709     7890.046     1265.824        1.320        0.806       99.980       35.821        0.128      341.884       16.906      858.099
10/02/2013  18:14:00     -157.254      -83.979        3.667      158.728      117.249       54.031    25194.636    13747.372     2919.362        3.682        2.093      178.273       69.230        0.151      341.884       16.905      858.104
10/02/2013  18:15:00     -159.889      -13.594      -11.430       96.214       64.044       32.758     9257.129     4101.616     1073.070        2.015        0.722      160.466       40.892        0.065      341.921       16.969      858.097
10/02/2013  18:16:00     -175.682      -91.119       -5.113       76.641       76.763       42.146     5873.783     5892.534     1776.257        2.637        0.677      197.906       41.371        0.044      341.837       16.825      858.121
10/02/2013  18:17:00     -194.714     -307.962       -4.857      131.277      130.868       68.740    17233.568    17126.491     4725.181        8.592        1.954      364.354       70.925        0.038      341.839       16.826      858.085
10/02/2013  18:18:00     -208.553     -153.318        1.612      111.062       84.423       57.176    12334.838     7127.323     3269.130        4.486        1.137      258.845       55.569        0.046      341.810       16.777      858.090
10/02/2013  18:19:00     -203.530     -153.701       -3.106      156.790      126.371       64.888    24583.212    15969.504     4210.471        5.490        2.238      255.046       83.102        0.106      341.746       16.669      858.109
10/02/2013  18:20:00     -149.715     -121.422        9.432      104.447      104.836       57.357    10909.238    10990.568     3289.782        3.121        1.259      192.764       61.481        0.102      341.738       16.656      858.113
10/02/2013  18:21:00     -139.783       44.400       14.199       94.865       81.096       49.959     8999.312     6576.630     2495.864        1.989        0.904      146.665       47.227        0.104      341.773       16.716      858.128
10/02/2013  18:22:00     -113.681      -70.515       10.356       83.252       72.731       49.749     6930.948     5289.842     2474.962        1.635        0.735      133.775       44.333        0.110      341.750       16.677      858.144
10/02/2013  18:23:00     -151.681     -111.938       12.244       88.414       73.684       50.483     7817.055     5429.375     2548.572        2.574        0.790      188.513       49.803        0.070      341.720       16.627      858.180
10/02/2013  18:24:00     -307.733     -210.195       -9.739      149.891      140.980       72.836    22467.167    19875.248     5305.058        9.330        2.382      372.668       77.064        0.043      341.705       16.601      858.190
10/02/2013  18:25:00     -263.655      -93.754       -2.893      173.461      118.163       64.573    30088.792    13962.508     4169.682        6.326        2.411      279.828       86.199        0.095      341.689       16.573      858.154
10/02/2013  18:26:00     -145.024      -55.643       -5.127       78.986       46.325       32.738     6238.774     2145.998     1071.780        1.680        0.473      155.332       32.387        0.043      341.705       16.602      858.170
10/02/2013  18:27:00     -219.567      -25.542      -12.361       74.068       82.536       43.346     5486.060     6812.244     1878.859        3.159        0.709      221.047       32.790        0.022      341.729       16.640      858.184
10/02/2013  18:28:00     -205.656     -130.025       -7.284      141.365      128.151       59.982    19984.038    16422.581     3597.815        4.962        2.000      243.312       67.260        0.076      341.644       16.498      858.176
10/02/2013  18:29:00     -318.989     -207.845      -10.809      179.187      148.099      100.370    32107.875    21933.224    10074.166       10.458        3.206      380.727       95.125        0.062      341.568       16.368      858.193
10/02/2013  18:30:00     -157.980      -65.043       -2.463      107.374       69.099       44.814    11529.229     4774.719     2008.287        2.375        0.916      170.846       42.512        0.062      341.642       16.494      858.206
10/02/2013  18:31:00     -149.271     -126.421        8.474      112.490       62.662       55.986    12653.916     3926.494     3134.452        2.902        0.986      195.612       46.985        0.058      341.616       16.451      858.202
10/02/2013  18:32:00     -220.566     -223.027       -0.967      112.351       99.175       58.251    12622.822     9835.704     3393.204        6.212        1.293      313.672       48.017        0.023      341.614       16.445      858.197
10/02/2013  18:33:00     -240.877     -153.364      -14.215      108.056       57.593       48.608    11676.025     3316.999     2362.714        4.955        0.868      285.556       46.997        0.027      341.623       16.461      858.192
10/02/2013  18:34:00     -147.371      -94.850        3.971      103.107       77.025       41.244    10631.027     5932.916     1701.042        2.449        0.913      175.256       41.859        0.057      341.579       16.387      858.207
10/02/2013  18:35:00     -169.786     -232.052        5.554      136.871      101.591       68.780    18733.550    10320.775     4730.687        5.824        1.689      287.534       75.497        0.069      341.533       16.309      858.204
10/02/2013  18:36:00     -184.519     -220.379       11.375      141.298      125.553       67.081    19965.012    15763.540     4499.861        6.148        2.011      287.427       58.655        0.042      341.536       16.314      858.179
10/02/2013  18:37:00     -352.031     -246.486      -11.534      123.814      110.342       67.422    15329.959    12175.299     4545.739       10.843        1.603      429.746       57.226        0.018      341.526       16.296      858.180
10/02/2013  18:38:00     -359.946     -180.455      -21.601      191.175      139.354       70.979    36547.723    19419.516     5038.057       11.179        3.050      402.648       68.216        0.029      341.510       16.269      858.175
10/02/2013  18:39:00     -227.540     -111.372       11.991      205.834      134.299       65.451    42367.434    18036.125     4283.776        6.449        3.234      253.334       73.875        0.085      341.453       16.173      858.171
10/02/2013  18:40:00     -284.223     -183.676       -1.250      245.560      125.428       69.257    60299.709    15732.098     4796.549        9.766        4.041      338.408       88.956        0.069      341.470       16.202      858.159
10/02/2013  18:41:00     -316.849     -190.233      -19.788      126.593       83.229       55.729    16025.684     6927.080     3105.709        8.151        1.303      369.570       57.754        0.024      341.478       16.213      858.183
10/02/2013  18:42:00     -126.315     -111.650       15.316      151.417      124.820       61.262    22927.116    15579.980     3753.067        3.545        2.113      168.586       69.894        0.172      341.471       16.203      858.166
10/02/2013  18:43:00     -148.484     -151.005        1.356      133.989       80.239       55.029    17953.109     6438.287     3028.167        3.613        1.371      211.778       57.848        0.075      341.442       16.155      858.193
10/02/2013  18:44:00     -100.882     -217.793        7.557       92.638      142.277       54.281     8581.826    20242.698     2946.396        4.471        1.589      240.023       55.189        0.053      341.434       16.140      858.219
10/02/2013  18:45:00     -149.650     -112.136        1.195      109.108       93.873       55.456    11904.626     8812.108     3075.344        2.938        1.190      187.002       53.240        0.081      341.418       16.116      858.195
10/02/2013  18:46:00     -141.799     -113.429       -3.027      121.868      134.645       56.422    14851.897    18129.373     3183.448        3.457        1.808      181.585       67.410        0.138      341.412       16.106      858.209
10/02/2013  18:47:00     -181.754     -104.115      -11.221      153.660      116.128       68.363    23611.467    13485.705     4673.532        4.288        2.089      209.463       75.156        0.129      341.414       16.107      858.217
10/02/2013  18:48:00     -294.481      -99.143        1.942      183.646      130.657       76.201    33725.794    17071.177     5806.616        7.657        2.830      310.723       88.323        0.081      341.366       16.025      858.202
10/02/2013  18:49:00     -250.390     -100.055      -12.696       96.794       89.951       51.276     9369.050     8091.271     2629.264        4.647        1.004      269.641       48.935        0.033      341.343       15.985      858.231
10/02/2013  18:50:00     -209.530      -64.659       11.433      104.366      101.828       46.547    10892.299    10368.920     2166.585        3.582        1.171      219.279       55.208        0.063      341.370       16.033      858.261
10/02/2013  18:51:00     -112.139      -75.975        1.734      114.404       61.423       40.947    13088.317     3772.823     1676.619        1.844        0.927      135.452       34.212        0.064      341.339       15.981      858.259
10/02/2013  18:52:00     -174.595     -101.995       -6.749      119.960       93.762       48.676    14390.487     8791.227     2369.379        3.324        1.278      202.204       45.768        0.051      341.340       15.983      858.255
10/02/2013  18:53:00     -118.836     -110.397       10.525       89.641       88.361       43.554     8035.578     7807.590     1896.945        2.208        0.887      162.202       47.404        0.085      341.318       15.946      858.288
10/02/2013  18:54:00      -60.153      -54.726        4.459       63.564       60.727       30.501     4040.422     3687.824      930.326        0.764        0.433       81.323       32.744        0.162      341.265       15.858      858.270
10/02/2013  18:55:00     -133.255     -158.682        2.329      112.707      147.807       52.630    12702.767    21846.952     2769.889        4.012        1.866      207.212       62.602        0.091      341.297       15.910      858.274
10/02/2013  18:56:00      -68.088      -88.376       -0.500       72.941       66.416       35.709     5320.330     4411.061     1275.143        1.172        0.550      111.563       29.266        0.069      341.249       15.831      858.288
10/02/2013  18:57:00      -99.575     -246.190       -4.582       78.624      106.663       40.333     6181.661    11376.981     1626.771        4.486        0.959      265.565       29.640        0.012      341.298       15.911      858.307
10/02/2013  18:58:00     -233.404     -197.016       -6.281      110.349      102.132       52.730    12176.988    10430.984     2780.406        5.936        1.269      305.439       59.854        0.038      341.258       15.843      858.302
10/02/2013  18:59:00     -210.861     -180.611      -15.660      111.309       94.078       50.016    12389.671     8850.706     2501.558        5.053        1.187      277.637       60.678        0.048      341.262       15.848      858.296
10/02/2013  19:00:00     -196.902      -94.234       -0.924      115.716       67.530       40.576    13390.205     4560.363     1646.439        3.362        0.980      218.289       53.834        0.061      341.214       15.768      858.308
10/02/2013  19:01:00      -65.097       -9.219        3.993       68.316       44.202       27.437     4667.140     1953.859      752.796        0.585        0.369       65.747       28.880        0.193      341.163       15.684      858.318
10/02/2013  19:02:00        1.790      -29.623       12.952       27.937       46.460       22.632      780.465     2158.539      512.201        0.225        0.173       29.677       15.779        0.283      341.073       15.533      858.329
10/02/2013  19:03:00        6.118      -40.058       13.621       44.601       49.370       18.873     1989.223     2437.373      356.188        0.330        0.239       40.523       19.576        0.233      340.836       15.133      858.342
10/02/2013  19:04:00     -167.301     -135.320      -11.124      130.491       96.210       45.606    17027.817     9256.310     2079.904        3.739        1.418      215.177       56.252        0.068      341.099       15.574      858.310
10/02/2013  19:05:00     -166.828      -68.847       -2.807       97.591       64.592       36.483     9523.984     4172.119     1331.025        2.380        0.751      180.476       38.715        0.046      341.081       15.544      858.309
10/02/2013  19:06:00     -169.931      -44.600        1.442       95.508       67.257       34.819     9121.753     4523.489     1212.349        2.286        0.743      175.686       45.935        0.068      341.119       15.610      858.339
10/02/2013  19:07:00     -231.624      -26.944      -14.908       63.772      117.159       51.492     4066.916    13726.302     2651.376        3.752        1.022      233.186       61.329        0.069      341.140       15.641      858.351
10/02/2013  19:08:00      -96.957      -55.776       10.172       85.271      105.548       45.245     7271.128    11140.336     2047.111        1.653        1.023      111.856       45.525        0.166      341.062       15.513      858.340
10/02/2013  19:09:00     -163.614     -133.713       -2.876      112.223      106.841       49.662    12593.926    11415.105     2466.293        3.556        1.324      211.303       59.959        0.081      341.079       15.540      858.353
10/02/2013  19:10:00     -258.458      -99.135       -6.472      120.412       83.796       46.515    14499.082     7021.777     2163.640        5.017        1.184      276.818       50.970        0.034      341.069       15.523      858.360
10/02/2013  19:11:00     -180.658     -125.626      -10.429       87.740       83.487       43.546     7698.360     6970.113     1896.269        3.254        0.828      220.044       28.041        0.016      341.084       15.547      858.390
10/02/2013  19:12:00     -207.538     -212.976       -3.604      153.480      124.235       49.476    23556.095    15434.292     2447.844        6.493        2.072      297.373       61.153        0.042      341.097       15.570      858.393
10/02/2013  19:13:00     -161.806      -82.571        1.417      100.671      103.285       51.235    10134.557    10667.821     2625.000        2.821        1.171      181.656       27.585        0.023      341.018       15.437      858.398
10/02/2013  19:14:00     -145.233      -67.462        3.179      121.153       89.545       48.552    14678.140     8018.257     2357.282        2.535        1.253      160.137       58.826        0.135      340.987       15.385      858.397
10/02/2013  19:15:00     -141.430      -40.666       -9.751       59.298       69.546       34.682     3516.218     4836.629     1202.864        1.565        0.478      147.161       31.401        0.046      341.050       15.495      858.389
10/02/2013  19:16:00      -32.605     -118.161       28.821       61.834      137.025       35.855     3823.415    18775.791     1285.548        1.987        1.194      122.577       34.164        0.078      340.954       15.331      858.387
10/02/2013  19:17:00     -161.271     -141.303      -13.284       75.252       72.320       37.046     5662.835     5230.162     1372.374        2.921        0.613      214.418       39.855        0.035      341.032       15.462      858.378
10/02/2013  19:18:00     -134.293      -40.300       -4.971       76.164       64.458       36.261     5801.013     4154.898     1314.896        1.547        0.564      140.209       39.716        0.080      340.947       15.317      858.385
10/02/2013  19:19:00     -225.344     -136.405       -1.706      103.225       86.326       51.724    10655.343     7452.199     2675.372        4.508        1.039      263.412       48.662        0.034      340.974       15.361      858.391
10/02/2013  19:20:00     -160.626     -143.392      -17.645       89.178       91.455       49.793     7952.749     8363.942     2479.338        3.273        0.940      215.319       37.461        0.030      340.964       15.345      858.411
10/02/2013  19:21:00     -251.240      -92.316      -22.136      100.408       97.903       42.821    10081.717     9584.979     1833.648        4.681        1.075      267.663       48.550        0.033      340.958       15.334      858.437
10/02/2013  19:22:00     -136.688      -86.934       -1.670      115.267       78.712       50.658    13286.578     6195.541     2566.255        2.414        1.102      161.991       57.875        0.128      340.939       15.305      858.448
10/02/2013  19:23:00     -175.507      -98.222      -18.026      132.416      103.253       50.045    17534.038    10661.201     2504.532        3.573        1.535      201.123       66.588        0.110      340.922       15.275      858.432
10/02/2013  19:24:00      -68.326     -122.217       10.701      104.883      118.216       55.455    11000.474    13975.008     3075.212        2.388        1.403      140.020       53.199        0.144      340.939       15.304      858.481
10/02/2013  19:25:00     -235.028     -163.622      -26.366      190.730      111.358       67.577    36377.885    12400.501     4566.593        6.801        2.667      286.374       70.947        0.061      340.964       15.346      858.505
10/02/2013  19:26:00     -126.931      -90.145        2.759      151.000      100.064       49.901    22801.100    10012.864     2490.102        2.977        1.765      155.684       45.580        0.086      340.898       15.232      858.485
10/02/2013  19:27:00     -190.031     -189.483       -5.017       86.845       87.865       51.548     7542.108     7720.235     2657.219        4.498        0.896      268.357       40.459        0.023      340.909       15.251      858.505
10/02/2013  19:28:00     -119.845      -45.337        1.524       85.868       50.015       43.464     7373.229     2501.524     1889.120        1.409        0.588      128.134       45.838        0.128      340.836       15.130      858.535
10/02/2013  19:29:00      -33.656       12.321        3.131       63.226       27.042       22.691     3997.586      731.248      514.871        0.327        0.262       35.840       14.018        0.153      340.736       14.962      858.539
10/02/2013  19:30:00      -99.546     -121.703       15.621       98.962       76.497       43.085     9793.402     5851.828     1856.286        2.123        0.875      157.229       47.578        0.092      340.845       15.146      858.564
10/02/2013  19:31:00     -124.327      -47.965       -0.240       91.691       76.390       46.467     8407.229     5835.384     2159.226        1.708        0.820      133.259       47.377        0.126      340.846       15.147      858.556
10/02/2013  19:32:00     -137.691      -60.680        2.309      101.389       75.596       50.079    10279.688     5714.801     2507.933        2.057        0.925      150.469       50.832        0.114      340.845       15.146      858.564
10/02/2013  19:33:00     -239.574      -56.033      -11.113      102.325       78.543       49.775    10470.386     6169.046     2477.509        3.988        0.956      246.039       53.437        0.047      340.858       15.165      858.571
10/02/2013  19:34:00      -45.618        0.441       28.178      106.255       50.018       37.321    11290.071     2501.757     1392.840        0.903        0.759       45.620       35.590        0.609      340.685       14.875      858.572
10/02/2013  19:35:00      -57.052      -49.667       15.100       76.573       62.272       36.632     5863.471     3877.831     1341.895        0.851        0.554       75.643       40.384        0.285      340.763       15.008      858.578
10/02/2013  19:36:00      -62.546      -64.686       -1.241       55.672       41.668       28.861     3099.384     1736.260      832.930        0.688        0.283       89.979       20.819        0.054      340.761       15.005      858.595
10/02/2013  19:37:00      -26.777       33.733       25.774       86.784       65.171       37.391     7531.436     4247.280     1398.117        0.785        0.659       43.068       46.921        1.187      340.648       14.812      858.583
10/02/2013  19:38:00     -192.793     -110.070       -3.388      134.991      128.556       53.290    18222.465    16526.625     2839.859        4.343        1.879      222.002       62.346        0.079      340.752       14.988      858.591
10/02/2013  19:39:00     -168.324     -218.306       -7.815      135.247      146.508       65.117    18291.733    21464.515     4240.227        6.002        2.200      275.664       55.226        0.040      340.812       15.088      858.606
10/02/2013  19:40:00     -223.051     -167.073       19.919      181.144      128.816       72.398    32813.298    16593.477     5241.401        6.634        2.732      278.685       93.608        0.113      340.752       14.987      858.630
10/02/2013  19:41:00     -212.910     -200.163        6.331      162.555      118.804       68.348    26424.142    14114.400     4671.383        6.531        2.260      292.226       67.392        0.053      340.758       14.997      858.626
10/02/2013  19:42:00     -174.629     -160.402       -0.362      109.947      108.004       69.922    12088.255    11664.877     4889.112        4.243        1.432      237.116       64.236        0.073      340.776       15.029      858.644
10/02/2013  19:43:00     -245.649     -133.171      -14.936      104.589       72.277       50.300    10938.792     5224.037     2530.125        4.849        0.935      279.424       34.399        0.015      340.763       15.004      858.680
10/02/2013  19:44:00     -209.026     -111.136        6.958      118.412      137.249       55.132    14021.339    18837.344     3039.500        4.599        1.795      236.734       62.977        0.071      340.729       14.946      858.697
10/02/2013  19:45:00     -172.813     -138.074        4.202      149.079      128.471       46.540    22224.501    16504.916     2165.966        4.491        2.045      221.199       53.504        0.059      340.784       15.041      858.704
10/02/2013  19:46:00     -213.802      -83.543      -10.779       97.095      117.024       53.784     9427.455    13694.694     2892.698        3.941        1.301      229.545       36.523        0.025      340.753       14.987      858.704
10/02/2013  19:47:00     -153.508      -34.330       20.877      165.368      115.617       71.471    27346.616    13367.375     5108.090        3.549        2.291      157.300       88.684        0.318      340.626       14.774      858.686
10/02/2013  19:48:00     -104.790     -117.408        8.109      101.936      114.458       59.290    10390.858    13100.561     3515.362        2.591        1.350      157.371       63.672        0.164      340.667       14.844      858.728
10/02/2013  19:49:00     -267.425     -185.932       -1.665      151.044      102.238       62.579    22814.413    10452.525     3916.179        7.163        1.859      325.710       68.352        0.044      340.702       14.904      858.761
10/02/2013  19:50:00     -359.182     -250.413      -11.028      150.532      121.982       76.606    22659.857    14879.552     5868.511       11.762        2.170      437.856       79.381        0.033      340.695       14.889      858.780
10/02/2013  19:51:00     -316.202     -130.150      -16.881      140.002      154.625       53.824    19600.604    23908.992     2897.052        8.180        2.320      341.940       58.033        0.029      340.697       14.893      858.796
10/02/2013  19:52:00     -282.699     -120.002      -17.223       92.807       80.617       47.449     8613.101     6499.146     2251.429        5.599        0.868      307.115       37.644        0.015      340.684       14.872      858.825
10/02/2013  19:53:00     -250.558     -102.446        2.029      132.530      118.558       61.641    17564.074    14056.074     3799.641        5.434        1.771      270.693       71.370        0.070      340.611       14.747      858.859
10/02/2013  19:54:00     -124.645      -23.160       15.051      110.429       85.297       49.451    12194.597     7275.576     2445.407        1.910        1.096      126.778       53.203        0.176      340.598       14.727      858.860
10/02/2013  19:55:00     -237.362     -185.203       -2.261      159.319      162.512       88.577    25382.581    26410.054     7845.899        7.513        2.982      301.066      104.059        0.119      340.582       14.698      858.864
10/02/2013  19:56:00     -267.517     -154.805       -9.641      172.841      122.534       74.668    29874.041    15014.562     5575.324        7.303        2.523      309.079       81.794        0.070      340.643       14.802      858.865
10/02/2013  19:57:00     -300.883     -170.555       -8.456      149.298      111.601       65.460    22289.779    12454.857     4284.972        7.935        1.951      345.860       71.479        0.043      340.620       14.762      858.888
10/02/2013  19:58:00     -216.030     -148.562       -0.636      147.872      122.165       72.684    21865.999    14924.215     5282.922        5.540        2.104      262.182       74.611        0.081      340.606       14.741      858.899
10/02/2013  19:59:00     -159.144     -130.876        4.961      143.575       98.923       72.496    20613.650     9785.753     5255.727        3.906        1.783      206.047       82.256        0.159      340.597       14.724      858.892
10/02/2013  20:00:00     -185.433     -120.694        1.807      114.170      111.069       51.798    13034.711    12336.404     2683.006        3.850        1.403      221.252       53.323        0.058      340.598       14.725      858.911
10/02/2013  20:01:00     -160.579     -157.994        3.285       84.850       95.222       51.555     7199.562     9067.230     2657.935        3.484        0.946      225.273       43.036        0.036      340.593       14.716      858.922
10/02/2013  20:02:00      -97.877      -64.456        4.095       85.742       55.353       33.017     7351.651     3063.981     1090.107        1.263        0.575      117.194       17.341        0.022      340.542       14.634      858.949
10/02/2013  20:03:00       -2.823      -13.432       15.476       53.352       45.197       35.802     2846.450     2042.774     1281.784        0.330        0.309       13.726       22.627        2.718      340.476       14.523      858.968
10/02/2013  20:04:00     -113.537      -71.029        2.128       87.708       51.652       36.628     7692.673     2667.919     1341.635        1.482        0.585      133.925       44.678        0.111      340.509       14.577      858.976
10/02/2013  20:05:00     -193.874     -138.808        8.751      111.093       57.233       43.793    12341.599     3275.667     1917.828        3.723        0.877      238.442       49.431        0.043      340.513       14.582      858.997
10/02/2013  20:06:00     -102.782      -81.457        9.317      104.981       71.514       50.212    11020.918     5114.284     2521.203        1.797        0.933      131.146       54.269        0.171      340.422       14.431      859.024
10/02/2013  20:07:00     -144.303      -60.522       -6.969       83.328       44.293       36.178     6943.591     1961.891     1308.825        1.737        0.511      156.481       41.697        0.071      340.501       14.566      859.032
10/02/2013  20:08:00     -134.488       -4.038        0.486       56.688       48.621       25.645     3213.483     2363.997      657.661        1.217        0.312      134.548       26.634        0.039      340.457       14.491      859.034
10/02/2013  20:09:00     -144.165      -79.550       -0.766       66.929       50.198       34.998     4479.513     2519.886     1224.838        1.767        0.411      164.656       32.012        0.038      340.492       14.549      859.012
10/02/2013  20:10:00      -33.834      -38.397        6.024       48.397       52.019       27.800     2342.280     2705.963      772.848        0.424        0.291       51.177       26.482        0.268      340.417       14.422      859.032
10/02/2013  20:11:00       -8.065       32.587        3.894       19.751       24.621       17.418      390.095      606.196      303.372        0.122        0.065       33.570        7.828        0.054      340.308       14.238      859.068
10/02/2013  20:12:00      -20.263       26.556       -1.993       25.158       17.593       15.876      632.914      309.531      252.048        0.116        0.060       33.403       15.927        0.227      340.385       14.367      859.072
10/02/2013  20:13:00       -1.149       16.949       -5.295        7.007       10.898       11.797       49.096      118.761      139.169        0.031        0.015       16.987        6.371        0.141      340.331       14.278      859.077
10/02/2013  20:14:00      -27.476       30.589       -8.512       26.534       21.383        7.952      704.059      457.217       63.233        0.149        0.061       41.118        9.942        0.058      340.395       14.384      859.090
10/02/2013  20:15:00        2.179       82.303      -10.420       17.807       23.032       16.343      317.097      530.456      267.096        0.400        0.056       82.332       14.892        0.033      340.470       14.515      859.098
10/02/2013  20:16:00        1.758       83.591      -11.196       20.168       43.007       16.697      406.756     1849.577      278.785        0.483        0.127       83.610       14.091        0.028      340.449       14.478      859.105
10/02/2013  20:17:00       32.664       83.821      -17.688       25.582       32.836       22.029      654.424     1078.222      485.288        0.531        0.111       89.960       22.672        0.064      340.337       14.288      859.111
10/02/2013  20:18:00       -3.394      118.078      -18.396       27.689       17.875       13.471      766.704      319.505      181.456        0.778        0.063      118.127       13.085        0.012      340.317       14.254      859.125
10/02/2013  20:19:00      -17.707      126.493      -13.728       14.940       21.976       11.930      223.211      482.965      142.319        0.868        0.042      127.727        8.622        0.005      340.329       14.274      859.152
10/02/2013  20:20:00       -9.456      133.384      -18.502       29.165       25.457       15.463      850.609      648.080      239.099        0.998        0.087      133.718       11.968        0.008      340.188       14.035      859.165
10/02/2013  20:21:00     -106.725       52.700      -16.107       48.977       73.121       19.175     2398.753     5346.706      367.694        1.127        0.406      119.027       22.319        0.035      340.385       14.368      859.183
10/02/2013  20:22:00      -63.346       -3.598       -4.247       54.828       38.475       23.232     3006.163     1480.311      539.722        0.453        0.251       63.448       26.376        0.173      340.373       14.350      859.208
10/02/2013  20:23:00      -62.472       95.919      -20.057       37.865       47.173       30.939     1433.733     2225.259      957.242        0.906        0.231      114.470       31.590        0.076      340.361       14.328      859.229
10/02/2013  20:24:00     -113.814       19.649       -6.556       88.909       68.391       31.293     7904.859     4677.347      979.237        1.347        0.678      115.498       35.711        0.096      340.345       14.301      859.260
10/02/2013  20:25:00     -186.801      -53.908      -16.056       60.150       44.634       29.000     3618.008     1992.203      840.982        2.225        0.323      194.424       28.123        0.021      340.294       14.213      859.309
10/02/2013  20:26:00     -140.295      -19.224       -4.948       46.524       66.538       37.761     2164.470     4427.323     1425.865        1.405        0.401      141.606       30.299        0.046      340.237       14.118      859.335
10/02/2013  20:27:00     -181.822       37.184      -17.172       73.764       64.424       27.963     5441.198     4150.497      781.919        2.255        0.519      185.585       29.840        0.026      340.426       14.434      859.356
10/02/2013  20:28:00      -96.142       37.145      -10.400       55.620       45.143       33.448     3093.636     2037.893     1118.793        0.849        0.313      103.068       27.577        0.072      340.368       14.340      859.377
10/02/2013  20:29:00      -97.226       45.179       -4.684       65.117       37.320       26.913     4240.182     1392.782      724.330        0.894        0.318      107.210       26.658        0.062      340.367       14.337      859.391
10/02/2013  20:30:00      -79.655       74.704      -11.498       35.437       45.139       24.814     1255.811     2037.485      615.741        0.798        0.195      109.204       20.119        0.034      340.327       14.272      859.401
10/02/2013  20:31:00     -101.974       49.334      -18.648       32.167       51.196       24.075     1034.747     2621.006      579.584        0.871        0.212      113.280       19.971        0.031      340.379       14.360      859.407
10/02/2013  20:32:00      -83.418       79.816      -22.599       52.698       63.516       25.271     2777.126     4034.340      638.633        1.064        0.373      115.452       24.590        0.045      340.340       14.293      859.403
10/02/2013  20:33:00      -94.854       44.164       -8.433       30.707       51.413       30.911      942.915     2643.264      955.501        0.778        0.227      104.632       15.458        0.022      340.335       14.283      859.418
10/02/2013  20:34:00     -138.499       14.439      -27.866       40.321       75.122       25.005     1625.796     5643.369      625.269        1.403        0.395      139.250       20.900        0.023      340.328       14.272      859.422
10/02/2013  20:35:00     -107.744       15.921      -10.683       38.072       39.286       21.698     1449.451     1543.387      470.799        0.772        0.173      108.913        8.212        0.006      340.274       14.180      859.407
10/02/2013  20:36:00     -170.792       83.593      -30.963       91.552       56.022       38.819     8381.738     3138.477     1506.949        2.507        0.651      190.152       46.194        0.059      340.324       14.263      859.398
10/02/2013  20:37:00     -161.842       56.775       -1.789       90.015       77.611       48.749     8102.738     6023.413     2376.427        2.296        0.825      171.512       41.191        0.058      340.361       14.327      859.389
10/02/2013  20:38:00     -144.831      -78.458        5.857       88.776      102.738       51.411     7881.216    10555.122     2643.048        2.412        1.054      164.717       49.885        0.092      340.305       14.233      859.392
10/02/2013  20:39:00     -175.774      -52.865        0.088       81.460       56.816       40.736     6635.683     3228.064     1659.420        2.260        0.576      183.551       27.290        0.022      340.341       14.291      859.380
10/02/2013  20:40:00     -106.880      -64.574        9.745      116.510       73.880       55.092    13574.625     5458.280     3035.077        1.887        1.103      124.872       56.646        0.206      340.292       14.210      859.390
10/02/2013  20:41:00     -240.972     -108.939      -11.463      164.103       87.355       61.169    26929.641     7630.881     3741.670        5.418        1.915      264.452       69.600        0.069      340.275       14.180      859.434
10/02/2013  20:42:00     -307.164     -102.984      -11.044      163.175      148.211       58.074    26626.158    21966.406     3372.554        7.851        2.598      323.969       61.063        0.036      340.331       14.275      859.463
10/02/2013  20:43:00     -294.733      139.208      -47.860       94.248       94.172       40.689     8882.767     8868.304     1655.611        6.397        0.970      325.954       35.558        0.012      340.390       14.374      859.466
10/02/2013  20:44:00     -132.336       98.908      -24.749       58.927       83.606       30.087     3472.363     6989.955      905.235        1.964        0.568      165.214       33.513        0.041      340.343       14.297      859.453
10/02/2013  20:45:00      -69.952      -72.354       -5.523       59.279       55.634       35.392     3513.970     3095.163     1252.572        0.901        0.393      100.640       24.594        0.060      340.360       14.327      859.451
10/02/2013  20:46:00     -244.153     -143.166       -0.892      132.839      121.581       59.873    17646.317    14781.846     3584.803        5.805        1.801      283.032       65.915        0.054      340.268       14.168      859.442
10/02/2013  20:47:00     -267.051     -180.951       -5.799      125.966       82.488       61.001    15867.522     6804.290     3721.109        6.524        1.320      322.582       66.699        0.043      340.268       14.168      859.451
10/02/2013  20:48:00     -297.562      -52.602      -14.457      114.235       86.006       45.489    13049.544     7397.093     2069.244        5.701        1.126      302.175       53.839        0.032      340.193       14.039      859.487
10/02/2013  20:49:00     -273.122      -87.572      -19.050       87.506       54.283       35.894     7657.249     2946.684     1288.381        4.726        0.595      286.817       36.835        0.016      340.063       13.820      859.493
10/02/2013  20:50:00     -264.348      -61.601       -6.625       58.903       60.410       34.910     3469.538     3649.320     1218.696        4.103        0.417      271.431       25.161        0.009      340.036       13.774      859.486
10/02/2013  20:51:00     -170.723     -141.775        0.947       88.798       79.274       40.620     7885.015     6284.417     1649.957        3.253        0.791      221.916       47.740        0.046      340.107       13.897      859.478
10/02/2013  20:52:00     -176.115      -87.525       -0.538      101.510       67.241       44.243    10304.196     4521.286     1957.443        2.773        0.839      196.665       43.014        0.048      340.170       14.003      859.483
10/02/2013  20:53:00     -252.005      -49.467       -1.122      104.865       67.763       42.402    10996.578     4591.863     1797.939        4.167        0.869      256.814       45.734        0.032      340.168       13.999      859.506
10/02/2013  20:54:00     -307.588      -47.033      -22.595       88.584       73.200       49.395     7847.091     5358.307     2439.817        5.649        0.782      311.163       50.371        0.026      340.080       13.850      859.491
10/02/2013  20:55:00     -259.340      -41.360        1.528      110.284       76.250       47.434    12162.535     5814.093     2249.981        4.459        1.011      262.618       56.980        0.047      340.042       13.787      859.483
10/02/2013  20:56:00     -427.028     -113.559      -22.506      216.389      136.858       64.647    46824.196    18730.222     4179.292       13.273        3.487      441.870       84.483        0.037      340.061       13.819      859.498
10/02/2013  20:57:00     -413.695      -92.442       -2.528      179.043      132.224       77.000    32056.231    17483.197     5929.014       11.757        2.773      423.898       91.724        0.047      340.048       13.795      859.488
10/02/2013  20:58:00     -538.904       -0.310      -45.576      139.785      121.691       66.880    19539.827    14808.579     4472.974       16.565        1.941      538.904       71.816        0.018      340.180       14.018      859.469
10/02/2013  20:59:00     -370.662      -83.372       -2.255      152.732      116.882       58.729    23327.181    13661.494     3449.096        9.238        2.022      379.923       69.142        0.033      340.111       13.903      859.476
10/02/2013  21:00:00     -195.357      -29.351        3.219       99.179       85.807       51.342     9836.477     7362.815     2636.003        2.943        0.992      197.550       58.068        0.086      340.027       13.761      859.461
10/02/2013  21:01:00     -139.653      -56.701       -4.618       41.861       52.451       29.292     1752.327     2751.076      858.000        1.405        0.268      150.725       21.285        0.020      340.046       13.797      859.430
10/02/2013  21:02:00     -230.130      -66.430        3.144      111.503       85.383       42.862    12432.934     7290.206     1837.175        3.947        1.078      239.527       47.528        0.039      339.988       13.695      859.456
10/02/2013  21:03:00     -310.388      -62.632        2.125      114.182       83.132       54.594    13037.619     6911.010     2980.505        6.159        1.146      316.644       59.108        0.035      339.970       13.664      859.452
10/02/2013  21:04:00     -269.624     -105.859       -9.918      129.624       91.398       62.333    16802.289     8353.581     3885.395        5.652        1.452      289.660       70.248        0.059      340.005       13.724      859.436
10/02/2013  21:05:00     -148.226     -136.766       11.637      133.182      127.437       61.386    17737.321    16240.303     3768.272        3.927        1.887      201.682       68.690        0.116      339.960       13.647      859.432
10/02/2013  21:06:00     -179.039     -129.076       28.276      198.123      153.978       90.092    39252.719    23709.163     8116.491        6.028        3.554      220.716      114.651        0.270      339.958       13.646      859.420
10/02/2013  21:07:00     -344.037      -29.815        1.804      148.750      109.079       67.907    22126.506    11898.154     4611.402        7.894        1.932      345.327       73.953        0.046      339.823       13.416      859.471
10/02/2013  21:08:00     -275.955     -175.746       -9.869      145.984      139.445       76.281    21311.274    19444.851     5818.734        7.685        2.329      327.166       79.490        0.059      339.953       13.637      859.474
10/02/2013  21:09:00     -209.350      -73.288       -3.960      116.232      117.069       54.853    13509.937    13705.182     3008.839        3.971        1.511      221.808       55.271        0.062      340.014       13.738      859.492
10/02/2013  21:10:00     -278.834     -125.261      -26.913       72.042       85.541       45.597     5190.115     7317.338     2079.073        5.437        0.729      305.677       33.150        0.012      339.793       13.365      859.529
10/02/2013  21:11:00     -297.824      -53.721      -24.133       83.589       65.553       41.371     6987.184     4297.162     1711.587        5.258        0.650      302.630       35.229        0.014      339.653       13.129      859.547
10/02/2013  21:12:00     -283.444     -100.038      -21.706       62.673       75.121       42.732     3927.855     5643.205     1826.026        5.111        0.570      300.580       32.439        0.012      339.611       13.061      859.527
10/02/2013  21:13:00     -273.865      -26.938      -19.277       86.779       82.247       49.923     7530.617     6764.571     2492.355        4.644        0.839      275.187       45.079        0.027      339.652       13.129      859.531
10/02/2013  21:14:00     -274.566      -61.501      -21.645       94.361      101.206       55.881     8903.944    10242.682     3122.660        5.095        1.113      281.369       48.360        0.030      339.760       13.310      859.506
10/02/2013  21:15:00     -335.068        6.031      -17.551      120.160      112.532       49.306    14438.542    12663.407     2431.066        7.107        1.477      335.122       54.325        0.026      339.884       13.518      859.517
10/02/2013  21:16:00     -274.817      -27.678      -24.790       87.683       71.047       49.587     7688.295     5047.716     2458.866        4.605        0.760      276.207       45.827        0.028      339.920       13.579      859.527
10/02/2013  21:17:00     -218.044      -72.611       -0.302       99.584       71.792       45.421     9916.893     5154.021     2063.046        3.497        0.857      229.817       43.353        0.036      339.836       13.440      859.553
10/02/2013  21:18:00     -285.191      -18.356      -11.603       72.477       80.700       44.571     5252.921     6512.419     1986.601        4.778        0.688      285.781       36.819        0.017      339.777       13.338      859.601
10/02/2013  21:19:00     -232.607      -64.208      -15.183       80.167       54.380       36.390     6426.753     2957.163     1324.230        3.458        0.535      241.306       37.299        0.024      339.651       13.128      859.627
10/02/2013  21:20:00     -345.968      -78.007      -19.858      179.278       87.383       59.971    32140.447     7635.810     3596.529        8.476        2.169      354.653       73.495        0.043      339.741       13.278      859.640
10/02/2013  21:21:00     -355.426     -103.007      -11.879      146.689      109.981       60.343    21517.690    12095.864     3641.238        8.716        1.863      370.051       67.798        0.034      339.724       13.251      859.653
10/02/2013  21:22:00     -205.971      -94.405      -15.439      107.738       72.597       55.276    11607.576     5270.396     3055.422        3.575        0.997      226.575       57.699        0.065      339.685       13.184      859.655
10/02/2013  21:23:00     -207.566     -119.786      -22.111      138.111       92.164       68.618    19074.694     8494.142     4708.456        4.509        1.614      239.650       80.778        0.114      339.707       13.222      859.641
10/02/2013  21:24:00     -231.279      -75.878       -6.390      115.925       92.245       58.071    13438.673     8509.182     3372.240        4.230        1.266      243.408       54.981        0.051      339.666       13.154      859.673
10/02/2013  21:25:00     -255.033      -62.845      -21.033      102.969       86.494       41.268    10602.648     7481.249     1703.050        4.461        0.989      262.662       42.110        0.026      339.677       13.171      859.698
10/02/2013  21:26:00     -271.628      -22.824      -18.096      137.199      117.888       54.465    18823.594    13897.557     2966.438        5.515        1.784      272.586       59.429        0.048      339.704       13.215      859.688
10/02/2013  21:27:00     -372.895      -86.853      -15.015      161.144       90.960       70.034    25967.234     8273.649     4904.762        9.297        1.957      382.876       76.321        0.040      339.747       13.290      859.665
10/02/2013  21:28:00     -277.591      -14.489      -16.539       93.228       83.757       43.739     8691.552     7015.289     1913.116        4.758        0.881      277.969       38.727        0.019      339.688       13.191      859.677
10/02/2013  21:29:00     -176.024      -77.290       -0.112       96.658       80.047       41.943     9342.752     6407.523     1759.213        2.723        0.875      192.245       42.975        0.050      339.649       13.125      859.679
10/02/2013  21:30:00     -197.362      -81.160        3.144       76.663       62.650       41.914     5877.186     3925.039     1756.760        2.855        0.578      213.398       37.343        0.031      339.598       13.039      859.691
10/02/2013  21:31:00     -237.119      -58.895      -16.688       65.788       67.709       38.238     4328.019     4584.491     1462.115        3.517        0.519      244.324       39.097        0.026      339.573       12.996      859.700
10/02/2013  21:32:00     -223.475      -59.255      -11.737       46.714       56.800       34.483     2182.183     3226.263     1189.071        3.009        0.330      231.197       23.851        0.011      339.520       12.905      859.692
10/02/2013  21:33:00     -163.335      -71.502       -5.875       80.186       64.261       37.133     6429.784     4129.493     1378.862        2.188        0.597      178.300       37.948        0.045      339.452       12.792      859.675
10/02/2013  21:34:00     -190.308      -19.554      -12.391       93.084       53.975       39.542     8664.677     2913.303     1563.566        2.494        0.657      191.310       47.378        0.061      339.469       12.820      859.676
10/02/2013  21:35:00     -173.077      -55.815      -10.784       89.783       70.858       47.653     8060.914     5020.809     2270.828        2.427        0.768      181.854       44.744        0.061      339.492       12.859      859.684
10/02/2013  21:36:00     -266.347      -51.389      -17.421      114.941       64.713       41.116    13211.465     4187.801     1690.518        4.648        0.954      271.259       51.862        0.037      339.519       12.905      859.692
10/02/2013  21:37:00     -290.463      -18.687      -16.134       99.397       73.940       48.559     9879.847     5467.111     2358.013        5.134        0.885      291.063       44.807        0.024      339.571       12.993      859.714
10/02/2013  21:38:00     -257.494      -54.115       -8.871      110.281       80.315       49.509    12161.804     6450.458     2451.150        4.518        1.053      263.118       51.717        0.039      339.573       12.995      859.747
10/02/2013  21:39:00     -176.175      -75.073      -13.687       78.648       59.752       43.309     6185.448     3570.337     1875.685        2.424        0.582      191.503       35.532        0.034      339.548       12.953      859.791
10/02/2013  21:40:00     -210.615      -78.642       -8.470       89.313       65.196       41.059     7976.896     4250.496     1685.821        3.226        0.696      224.818       40.094        0.032      339.550       12.958      859.801
10/02/2013  21:41:00     -181.015      -46.543      -11.276       85.346       57.399       38.516     7283.872     3294.702     1483.473        2.356        0.603      186.903       42.414        0.051      339.540       12.941      859.794
10/02/2013  21:42:00     -251.436      -91.075      -24.076       68.429       54.245       35.492     4682.559     2942.542     1259.676        4.049        0.444      267.422       32.125        0.014      339.483       12.842      859.805
10/02/2013  21:43:00     -236.817      -31.934      -17.891       92.303       72.420       40.173     8519.814     5244.615     1613.875        3.640        0.769      238.961       37.428        0.025      339.453       12.792      859.812
10/02/2013  21:44:00     -192.251      -60.366      -19.646       75.569       68.199       39.388     5710.615     4651.070     1551.382        2.645        0.596      201.505       23.978        0.014      339.440       12.771      859.818
10/02/2013  21:45:00     -209.054      -74.206        2.538      114.776       98.130       47.710    13173.603     9629.447     2276.246        3.714        1.254      221.833       40.452        0.033      339.418       12.734      859.835
10/02/2013  21:46:00     -322.070      -31.057      -22.635      103.534      101.194       61.564    10719.322    10240.174     3790.105        6.497        1.237      323.564       57.596        0.032      339.468       12.819      859.829
10/02/2013  21:47:00     -122.272      -50.468       11.474       98.556       75.040       46.731     9713.204     5630.929     2183.827        1.757        0.876      132.278       54.042        0.167      339.388       12.686      859.798
10/02/2013  21:48:00     -270.452      -31.643       -9.989      104.246       96.175       50.849    10867.142     9249.559     2585.613        4.847        1.135      272.297       54.172        0.040      339.404       12.711      859.771
10/02/2013  21:49:00     -222.343      -62.970      -19.234       85.703       70.911       44.011     7344.951     5028.313     1936.994        3.404        0.716      231.088       38.816        0.028      339.422       12.742      859.751
10/02/2013  21:50:00     -219.928      -55.203      -11.176      103.148       70.084       39.852    10639.446     4911.712     1588.177        3.434        0.857      226.750       46.661        0.042      339.395       12.696      859.762
10/02/2013  21:51:00     -332.986       -3.968      -29.105       80.293       72.746       39.666     6446.936     5292.047     1573.415        6.252        0.666      333.009       34.163        0.011      339.480       12.836      859.791
10/02/2013  21:52:00     -196.956      -55.116      -11.915       64.405       46.556       32.014     4148.023     2167.476     1024.914        2.465        0.367      204.522       29.633        0.021      339.394       12.694      859.803
10/02/2013  21:53:00     -220.473      -51.356      -12.369       99.947       68.883       39.964     9989.379     4744.923     1597.146        3.386        0.817      226.375       42.016        0.034      339.404       12.710      859.802
10/02/2013  21:54:00     -243.741      -11.536      -19.259       71.909       79.110       46.257     5170.851     6258.440     2139.666        3.674        0.678      244.014       37.065        0.023      339.436       12.764      859.794
10/02/2013  21:55:00     -245.919      -72.579      -15.697       66.092       72.536       42.079     4368.165     5261.407     1770.643        3.869        0.570      256.406       32.100        0.016      339.410       12.721      859.789
10/02/2013  21:56:00     -258.775      -38.461      -12.203       78.479       86.961       46.036     6158.925     7562.193     2119.337        4.221        0.792      261.617       42.399        0.026      339.383       12.675      859.783
10/02/2013  21:57:00     -209.658      -58.333      -19.623       92.253       73.599       52.737     8510.591     5416.752     2781.235        3.222        0.835      217.622       45.408        0.044      339.407       12.716      859.795
10/02/2013  21:58:00     -278.747      -66.178      -15.309       71.085       71.930       45.110     5053.074     5173.861     2034.881        4.729        0.613      286.495       39.096        0.019      339.398       12.699      859.816
10/02/2013  21:59:00     -240.393      -59.856       -2.967       75.783       78.365       40.642     5743.019     6141.006     1651.745        3.746        0.677      247.733       40.002        0.026      339.345       12.611      859.824
10/02/2013  22:00:00     -304.150      -72.956      -26.660       74.736       77.433       39.652     5585.406     5995.902     1572.264        5.584        0.658      312.778       33.696        0.012      339.344       12.608      859.828
10/02/2013  22:01:00     -216.206      -73.990       -6.922      105.739       74.038       45.456    11180.795     5481.609     2066.251        3.549        0.936      228.516       51.701        0.051      339.313       12.558      859.826
10/02/2013  22:02:00     -264.316      -32.573      -12.667      103.738       83.118       42.485    10761.638     6908.520     1805.004        4.528        0.974      266.316       46.550        0.031      339.316       12.561      859.829
10/02/2013  22:03:00     -208.673      -88.242       -1.208       90.962       70.620       41.809     8274.071     4987.157     1747.989        3.317        0.750      226.564       44.706        0.039      339.269       12.482      859.821
10/02/2013  22:04:00     -218.024      -45.120       -0.445       70.077       51.214       43.414     4910.855     2622.859     1884.789        2.949        0.471      222.643       40.958        0.034      339.265       12.476      859.818
10/02/2013  22:05:00     -180.145      -76.729       -9.840       71.093       58.633       36.076     5054.173     3437.804     1301.485        2.411        0.490      195.805       36.194        0.034      339.248       12.448      859.809
10/02/2013  22:06:00     -196.412      -48.534       -4.534       74.328       80.658       49.361     5524.637     6505.775     2436.520        2.771        0.723      202.319       47.529        0.055      339.250       12.453      859.798
10/02/2013  22:07:00     -273.022      -56.970      -19.682       85.697       58.228       44.520     7343.923     3390.522     1982.054        4.544        0.636      278.903       45.347        0.026      339.253       12.456      859.806
10/02/2013  22:08:00     -237.846        3.633      -18.541      113.349       65.158       47.415    12848.057     4245.619     2248.174        3.813        0.967      237.874       44.735        0.035      339.160       12.301      859.821
10/02/2013  22:09:00     -149.524      -25.351      -10.657       46.687       78.262       43.127     2179.675     6124.893     1859.955        1.664        0.508      151.658       28.064        0.034      339.096       12.194      859.825
10/02/2013  22:10:00     -174.824      -26.434      -17.806       94.684       66.704       42.077     8965.042     4449.464     1770.438        2.338        0.759      176.811       33.576        0.036      339.108       12.214      859.826
10/02/2013  22:11:00     -209.232      -52.188      -14.178      118.012       88.090       53.910    13926.915     7759.923     2906.338        3.564        1.230      215.643       59.805        0.077      339.106       12.210      859.826
10/02/2013  22:12:00     -230.141      -61.821      -18.865       93.342       72.122       39.998     8712.748     5201.556     1599.816        3.633        0.776      238.300       37.288        0.024      339.065       12.141      859.829
10/02/2013  22:13:00     -188.880      -94.954      -17.826       58.765       73.985       41.587     3453.370     5473.800     1729.473        2.783        0.533      211.405       30.541        0.021      339.038       12.097      859.838
10/02/2013  22:14:00     -211.175      -63.369      -15.391      102.161       68.360       51.853    10436.956     4673.146     2688.766        3.332        0.890      220.478       45.147        0.042      338.991       12.016      859.843
10/02/2013  22:15:00     -262.617      -59.975      -29.781      102.341       65.214       43.565    10473.768     4252.892     1897.917        4.503        0.831      269.378       45.099        0.028      338.973       11.986      859.840
10/02/2013  22:16:00     -237.232      -54.397      -18.564       67.086       65.255       40.365     4500.474     4258.182     1629.371        3.498        0.519      243.389       35.935        0.022      338.973       11.985      859.847
10/02/2013  22:17:00     -273.239     -107.148      -17.437       68.230       77.218       43.873     4655.374     5962.590     1924.810        4.949        0.627      293.497       27.268        0.009      339.015       12.055      859.843
10/02/2013  22:18:00     -228.902      -23.170      -33.210       96.212       55.575       42.203     9256.780     3088.581     1781.066        3.408        0.706      230.072       27.320        0.014      339.005       12.040      859.857
10/02/2013  22:19:00     -160.455      -39.481      -15.860       87.771       81.967       45.173     7703.788     6718.578     2040.588        2.201        0.823      165.241       46.094        0.078      339.064       12.140      859.859
10/02/2013  22:20:00     -238.837     -109.986      -10.173       99.875       73.987       50.611     9975.009     5474.097     2561.520        4.362        0.901      262.945       47.307        0.032      339.059       12.130      859.878
10/02/2013  22:21:00     -280.342      -48.523      -21.598       69.688       86.683       53.839     4856.487     7513.861     2898.657        4.834        0.763      284.511       34.395        0.015      339.069       12.146      859.898
10/02/2013  22:22:00     -292.528      -40.295      -27.051       93.822       78.427       44.153     8802.649     6150.757     1949.520        5.241        0.845      295.290       48.661        0.027      339.025       12.073      859.904
10/02/2013  22:23:00     -285.428      -66.171      -20.573       92.747       84.267       50.114     8602.058     7100.944     2511.415        5.224        0.911      292.998       54.772        0.035      338.956       11.958      859.891
10/02/2013  22:24:00     -212.390      -30.919      -14.501       73.813       60.955       37.925     5448.417     3715.519     1438.339        2.844        0.530      214.628       34.359        0.026      338.869       11.811      859.906
10/02/2013  22:25:00     -264.899      -22.937      -29.742      101.821       66.379       40.106    10367.430     4406.196     1608.473        4.398        0.819      265.890       44.619        0.028      338.899       11.861      859.892
10/02/2013  22:26:00     -197.420       39.929      -25.188       92.634       74.263       49.775     8580.969     5514.946     2477.528        2.889        0.829      201.417       35.184        0.031      338.829       11.744      859.890
10/02/2013  22:27:00     -219.953        6.292      -18.106       76.870       64.654       47.432     5909.022     4180.155     2249.832        3.054        0.617      220.043       39.283        0.032      338.814       11.719      859.884
10/02/2013  22:28:00     -138.670      -38.329       -5.655       91.151       83.950       47.306     8308.581     7047.639     2237.856        1.916        0.880      143.869       43.986        0.093      338.782       11.667      859.880
10/02/2013  22:29:00     -221.022      -48.307      -13.497       77.650       71.136       46.913     6029.574     5060.298     2200.850        3.233        0.665      226.239       24.270        0.012      338.744       11.601      859.871
10/02/2013  22:30:00     -195.543      -99.577      -14.052       81.001       59.796       39.186     6561.166     3575.603     1535.515        3.001        0.584      219.437       33.864        0.024      338.728       11.574      859.870
10/02/2013  22:31:00     -270.881      -13.220      -20.001      122.495      112.999       64.354    15004.980    12768.865     4141.385        5.293        1.596      271.204       56.612        0.044      338.800       11.696      859.870
10/02/2013  22:32:00     -237.074      -86.885      -10.295      109.588      104.477       53.732    12009.490    10915.402     2887.115        4.483        1.291      252.493       50.590        0.040      338.743       11.599      859.873
10/02/2013  22:33:00     -230.120      -79.876       -2.487      111.395      101.008       51.518    12408.905    10202.682     2654.150        4.230        1.263      243.589       53.123        0.048      338.703       11.530      859.894
10/02/2013  22:34:00     -187.339        6.346      -25.277       73.815       79.732       38.741     5448.609     6357.237     1500.835        2.454        0.665      187.446       33.097        0.031      338.689       11.509      859.904
10/02/2013  22:35:00     -242.693      -17.832      -17.303       99.974       81.817       47.878     9994.709     6694.068     2292.309        3.925        0.949      243.348       35.330        0.021      338.602       11.361      859.917
10/02/2013  22:36:00     -248.453      -65.595      -16.560       93.790       78.092       49.794     8796.543     6098.378     2479.422        4.184        0.869      256.967       31.271        0.015      338.563       11.297      859.924
10/02/2013  22:37:00     -156.437      -33.333      -19.066       97.457       76.338       54.552     9497.901     5827.418     2975.954        2.212        0.915      159.948       19.374        0.015      338.560       11.294      859.912
10/02/2013  22:38:00     -165.946       10.508      -17.050       65.763       71.618       43.204     4324.834     5129.192     1866.596        1.963        0.566      166.278       38.249        0.053      338.545       11.267      859.914
10/02/2013  22:39:00     -202.775      -82.516      -23.095      106.291      100.167       55.226    11297.830    10033.448     3049.892        3.642        1.219      218.921       41.979        0.037      338.608       11.372      859.919
10/02/2013  22:40:00     -216.626      -67.640       -8.845      113.146       77.237       55.206    12801.959     5965.585     3047.668        3.669        1.091      226.941       52.701        0.054      338.598       11.356      859.912
10/02/2013  22:41:00     -243.396      -55.256      -29.064       80.969       70.437       35.032     6556.022     4961.360     1227.268        3.794        0.637      249.589       22.757        0.008      338.601       11.359      859.915
10/02/2013  22:42:00     -227.281      -76.687      -19.012       76.012       69.238       40.953     5777.843     4793.903     1677.133        3.507        0.612      239.870       21.902        0.008      338.647       11.437      859.908
10/02/2013  22:43:00     -153.774      -56.592       -9.562       59.356       61.163       45.829     3523.163     3740.881     2100.311        1.815        0.468      163.857       35.074        0.046      338.627       11.405      859.924
10/02/2013  22:44:00     -235.411      -56.472      -15.702      104.764       64.795       46.679    10975.484     4198.383     2178.894        3.810        0.868      242.090       40.147        0.028      338.632       11.413      859.950
10/02/2013  22:45:00     -217.652      -82.688       -6.619       82.315       63.763       38.098     6775.701     4065.715     1451.430        3.327        0.615      232.830       33.300        0.020      338.602       11.362      859.966
10/02/2013  22:46:00     -231.475       -2.161      -17.941      103.072       52.912       43.915    10623.877     2799.639     1928.499        3.463        0.768      231.485       47.700        0.042      338.609       11.373      859.995
10/02/2013  22:47:00     -354.897       -2.110      -35.623       77.171       69.209       41.084     5955.314     4789.912     1687.883        6.983        0.622      354.903       37.330        0.011      338.663       11.466      860.005
10/02/2013  22:48:00     -273.324      -86.559      -22.015       98.412       75.445       51.894     9684.886     5691.913     2693.007        5.037        0.903      286.703       49.960        0.030      338.656       11.451      859.992
10/02/2013  22:49:00     -250.348      -57.687      -17.221       95.324       83.373       53.930     9086.656     6951.116     2908.489        4.262        0.947      256.908       57.210        0.050      338.657       11.455      859.990
10/02/2013  22:50:00     -297.879      -37.827      -32.180       91.800       84.253       52.287     8427.261     7098.568     2733.942        5.473        0.913      300.271       44.332        0.022      338.705       11.533      859.966
10/02/2013  22:51:00     -270.891      -37.698      -12.602       98.936       72.234       44.185     9788.258     5217.766     1952.349        4.596        0.848      273.501       43.999        0.026      338.725       11.570      859.947
10/02/2013  22:52:00     -281.621      -69.076      -24.814       95.901       84.933       45.557     9196.972     7213.673     2075.443        5.159        0.924      289.969       41.627        0.021      338.693       11.513      859.948
10/02/2013  22:53:00     -307.571      -77.416      -22.494      110.364       81.904       56.915    12180.106     6708.185     3239.321        6.161        1.106      317.164       52.873        0.028      338.623       11.398      859.955
10/02/2013  22:54:00     -242.834      -54.744      -16.024      105.570       78.351       46.680    11145.107     6138.815     2179.040        4.084        0.973      248.928       44.614        0.032      338.590       11.342      859.948
10/02/2013  22:55:00     -180.465      -67.741       -7.750       70.112       71.004       39.812     4915.733     5041.566     1584.984        2.438        0.577      192.760       38.373        0.040      338.576       11.321      859.958
10/02/2013  22:56:00     -236.076      -78.723       -5.426       70.499       74.519       43.279     4970.099     5553.136     1873.029        3.718        0.620      248.856       33.932        0.019      338.614       11.382      859.975
10/02/2013  22:57:00     -243.347      -16.347       -9.589       91.327      102.250       45.744     8340.552    10455.107     2092.533        4.023        1.044      243.895       30.033        0.015      338.626       11.402      859.989
10/02/2013  22:58:00     -231.889      -39.291      -35.796       74.473       70.587       47.663     5546.217     4982.587     2271.763        3.470        0.640      235.194       44.987        0.037      338.598       11.356      859.999
10/02/2013  22:59:00     -265.632      -37.163      -30.607       88.421       62.798       39.170     7818.352     3943.604     1534.301        4.308        0.665      268.219       36.277        0.018      338.685       11.501      860.018
10/02/2013  23:00:00     -242.112      -64.230       -8.297       80.875       53.437       37.245     6540.746     2855.474     1387.164        3.680        0.539      250.487       38.919        0.024      338.604       11.366      860.015
10/02/2013  23:01:00     -296.347      -36.233      -22.795       90.947       72.970       44.057     8271.272     5324.571     1941.030        5.259        0.777      298.554       46.259        0.024      338.569       11.307      860.040
10/02/2013  23:02:00     -259.587      -65.415      -12.860      120.737       64.664       40.311    14577.526     4181.481     1625.017        4.610        1.019      267.702       45.561        0.029      338.519       11.222      860.063
10/02/2013  23:03:00     -213.074      -55.701      -15.930      106.114       89.824       48.646    11260.083     8068.400     2366.445        3.522        1.085      220.234       48.602        0.049      338.506       11.200      860.064
10/02/2013  23:04:00     -270.889      -72.812      -12.126       93.446       85.356       47.806     8732.168     7285.671     2285.378        4.856        0.915      280.504       46.529        0.028      338.441       11.090      860.058
10/02/2013  23:05:00     -260.674      -98.346      -17.479       89.175       72.190       41.344     7952.102     5211.332     1709.338        4.640        0.744      278.609       36.237        0.017      338.478       11.153      860.037
10/02/2013  23:06:00     -170.439      -43.947      -12.245       97.455       96.094       54.068     9497.446     9234.104     2923.377        2.639        1.083      176.014       45.838        0.068      338.467       11.136      860.013
10/02/2013  23:07:00     -273.607      -43.720      -12.576       98.158       71.805       45.469     9635.002     5155.953     2067.465        4.689        0.843      277.078       41.939        0.023      338.406       11.032      860.018
10/02/2013  23:08:00     -199.995      -86.333        1.282       86.694       69.635       47.623     7515.859     4849.100     2267.915        3.104        0.732      217.833       47.906        0.048      338.366       10.966      860.025
10/02/2013  23:09:00     -199.508      -22.745      -19.375       72.480       61.818       40.806     5253.343     3821.463     1665.149        2.572        0.537      200.800       38.586        0.037      338.409       11.038      860.022
10/02/2013  23:10:00     -224.042      -31.491      -15.419       61.350       87.263       45.788     3763.847     7614.899     2096.582        3.245        0.674      226.244       37.291        0.027      338.374       10.979      860.032
10/02/2013  23:11:00     -220.982      -23.766       -7.883      122.604       90.146       56.613    15031.760     8126.367     3205.076        3.791        1.318      222.257       55.635        0.063      338.384       10.996      860.025
10/02/2013  23:12:00     -259.972      -30.756      -15.892      113.241       91.208       51.381    12823.435     8318.836     2640.034        4.628        1.189      261.785       50.967        0.038      338.356       10.950      860.039
10/02/2013  23:13:00     -162.134       10.333      -23.523       68.777      107.817       51.259     4730.275    11624.565     2627.463        2.296        0.949      162.463       40.627        0.063      338.396       11.016      860.033
10/02/2013  23:14:00     -102.240        0.623      -20.334       98.640       71.593       36.768     9729.788     5125.615     1351.867        1.353        0.810      102.242       46.655        0.208      338.343       10.928      860.038
10/02/2013  23:15:00     -117.705      -44.069        5.264       86.327       77.895       43.079     7452.294     6067.687     1855.817        1.560        0.769      125.685       32.996        0.069      338.323       10.895      860.062
10/02/2013  23:16:00      -87.992      -27.263       -5.657       88.527       56.611       41.088     7837.053     3204.844     1688.236        1.062        0.637       92.119       47.673        0.268      338.296       10.852      860.098
10/02/2013  23:17:00     -185.368      -70.378      -40.964       94.631       71.180       58.159     8954.948     5066.663     3382.423        2.919        0.870      198.278       42.027        0.045      338.397       11.018      860.119
10/02/2013  23:18:00      -87.413      -39.633        8.856      107.550       61.119       50.194    11566.913     3735.492     2519.469        1.355        0.891       95.978       57.727        0.362      338.306       10.867      860.129
10/02/2013  23:19:00     -193.768      -47.600       -8.062       97.585       98.212       45.487     9522.752     9645.521     2069.083        3.055        1.062      199.528       34.477        0.030      338.342       10.927      860.123
10/02/2013  23:20:00     -254.010      -49.757      -37.411       92.675       65.598       51.456     8588.594     4303.124     2647.713        4.196        0.777      258.837       33.148        0.016      338.317       10.882      860.086
10/02/2013  23:21:00     -190.347       82.615      -24.295      123.173      120.298       64.334    15171.517    14471.685     4138.842        3.871        1.689      207.502       72.874        0.123      338.313       10.877      860.054
10/02/2013  23:22:00     -158.103       56.640      -18.961      102.120       73.117       49.969    10428.469     5346.122     2496.912        2.341        0.914      167.942       51.899        0.096      338.324       10.895      860.050
10/02/2013  23:23:00     -131.112      -28.607      -12.031       75.918       87.269       46.308     5763.509     7615.949     2144.448        1.684        0.776      134.196       35.247        0.069      338.283       10.828      860.088
10/02/2013  23:24:00     -215.065      -24.694      -33.594       67.090       68.143       34.621     4501.034     4643.481     1198.584        2.916        0.517      216.478       13.797        0.004      338.316       10.883      860.119
10/02/2013  23:25:00      -96.480      -21.755      -12.759       68.974       53.483       36.113     4757.455     2860.380     1304.115        0.943        0.446       98.903       18.363        0.034      338.312       10.877      860.142
10/02/2013  23:26:00      -68.100      -15.330       -3.299       69.087       65.567       42.323     4772.948     4299.032     1791.269        0.787        0.543       69.804       33.524        0.231      338.307       10.871      860.164
10/02/2013  23:27:00      -84.231       15.810       -8.520       74.728       47.962       39.014     5584.330     2300.347     1522.107        0.841        0.470       85.702       39.471        0.212      338.329       10.907      860.164
10/02/2013  23:28:00     -140.008       30.722      -24.606       70.444       91.288       43.998     4962.409     8333.470     1935.858        1.819        0.762      143.339       35.926        0.063      338.317       10.886      860.170
10/02/2013  23:29:00     -132.355       -5.976      -32.429       63.194       62.049       46.100     3993.444     3850.029     2125.241        1.428        0.498      132.490       33.851        0.065      338.321       10.892      860.176
10/02/2013  23:30:00     -167.625       18.753      -18.584       77.807       61.986       40.092     6053.928     3842.222     1607.368        2.015        0.575      168.671       38.304        0.052      338.315       10.882      860.187
10/02/2013  23:31:00     -175.120       77.639      -34.353       67.630       93.354       42.089     4573.821     8715.009     1771.458        2.646        0.753      191.559       39.774        0.043      338.339       10.920      860.185
10/02/2013  23:32:00     -125.459       35.827      -19.313       64.418       69.923       40.946     4149.710     4889.174     1676.611        1.405        0.536      130.475       15.858        0.015      338.303       10.862      860.177
10/02/2013  23:33:00     -129.230       -9.093      -17.215       56.384       45.787       32.190     3179.118     2096.419     1036.202        1.169        0.316      129.549       13.844        0.011      338.252       10.777      860.159
10/02/2013  23:34:00     -140.860       39.755      -11.862       69.803       57.303       31.945     4872.510     3283.646     1020.503        1.537        0.459      146.362       23.049        0.025      338.264       10.797      860.157
10/02/2013  23:35:00     -109.596      -26.007      -14.278       76.192       81.576       25.135     5805.210     6654.622      631.753        1.299        0.655      112.640       29.165        0.067      338.260       10.790      860.153
10/02/2013  23:36:00     -200.234      -22.149      -17.330       60.162       43.674       37.263     3619.456     1907.440     1388.550        2.390        0.346      201.455       34.685        0.030      338.224       10.727      860.156
10/02/2013  23:37:00     -156.977      -48.578       -5.336      119.008       69.029       43.755    14162.943     4765.048     1914.478        2.393        1.042      164.321       53.594        0.106      338.175       10.644      860.155
10/02/2013  23:38:00     -273.217      -87.340      -24.635       81.083       75.052       43.822     6574.450     5632.805     1920.385        4.850        0.706      286.837       39.043        0.019      338.223       10.726      860.153
10/02/2013  23:39:00     -221.343      -30.560      -21.803       79.949       74.278       52.925     6391.772     5517.232     2801.096        3.255        0.736      223.442       34.496        0.024      338.216       10.713      860.163
10/02/2013  23:40:00     -197.801      -44.277      -17.133       67.066       81.367       40.122     4497.794     6620.562     1609.744        2.705        0.636      202.696       36.148        0.032      338.224       10.728      860.171
10/02/2013  23:41:00     -262.251      -62.686      -11.769       74.867       81.645       45.380     5605.042     6665.914     2059.349        4.358        0.717      269.639       38.153        0.020      338.202       10.690      860.169
10/02/2013  23:42:00     -134.711       -0.571      -20.445       57.810       72.543       59.599     3342.045     5262.456     3552.049        1.536        0.608      134.712       42.002        0.097      338.219       10.722      860.167
10/02/2013  23:43:00      -97.474      -48.030       -8.795       74.885       67.284       41.933     5607.729     4527.148     1758.339        1.189        0.595      108.665       18.135        0.028      338.161       10.625      860.173
10/02/2013  23:44:00     -189.120       -0.649      -41.128       60.442       85.696       61.739     3653.199     7343.794     3811.715        2.613        0.740      189.121       25.579        0.018      338.269       10.803      860.176
10/02/2013  23:45:00     -101.925      -24.126        3.297       89.082       64.306       43.738     7935.579     4135.308     1913.020        1.248        0.699      104.742       34.666        0.110      338.209       10.703      860.198
10/02/2013  23:46:00     -124.021      -61.826      -10.344       70.328       50.635       39.351     4946.007     2563.917     1548.462        1.418        0.453      138.577       29.281        0.045      338.202       10.693      860.218
10/02/2013  23:47:00     -174.989      -54.359       -9.929       87.435       74.015       51.959     7644.944     5478.188     2699.698        2.475        0.791      183.237       43.102        0.055      338.182       10.657      860.230
10/02/2013  23:48:00     -147.254        8.836      -18.195       77.206      100.507       47.697     5960.807    10101.751     2274.996        2.021        0.917      147.519       18.332        0.015      338.182       10.657      860.263
10/02/2013  23:49:00     -135.412       24.404      -14.941       86.099       96.565       38.340     7412.954     9324.775     1469.985        1.868        0.910      137.594       39.263        0.081      338.222       10.725      860.299
10/02/2013  23:50:00     -113.926        8.717      -20.622       96.150       76.169       41.457     9244.813     5801.733     1718.722        1.512        0.838      114.259       40.872        0.128      338.249       10.770      860.335
10/02/2013  23:51:00     -129.116       -0.241      -22.374       66.375       82.527       45.350     4405.674     6810.717     2056.635        1.522        0.664      129.116       39.503        0.094      338.274       10.813      860.355
10/02/2013  23:52:00     -186.473      -52.489      -10.638       70.953       80.376       33.335     5034.395     6460.314     1111.233        2.512        0.630      193.720       26.862        0.019      338.276       10.814      860.374
10/02/2013  23:53:00     -144.593       34.704      -23.356       69.978       63.788       35.890     4896.974     4068.861     1288.071        1.645        0.513      148.700       12.074        0.007      338.290       10.841      860.381
10/02/2013  23:54:00     -153.074      131.669      -38.651       62.615       72.437       41.259     3920.690     5247.077     1702.279        2.656        0.544      201.912       34.135        0.029      338.273       10.809      860.394
10/02/2013  23:55:00     -248.525      173.967      -33.738      151.412      107.409       76.891    22925.644    11536.596     5912.285        6.676        2.019      303.363       66.578        0.048      338.141       10.588      860.429
10/02/2013  23:56:00     -235.612      198.244      -41.581      124.330      113.924       65.846    15457.847    12978.722     4335.677        6.465        1.639      307.919       70.475        0.052      338.010       10.368      860.415
10/02/2013  23:57:00     -224.133      272.456      -57.275      138.403      129.972       74.726    19155.375    16892.833     5583.957        8.468        2.082      352.800       84.560        0.057      337.926       10.226      860.413
10/02/2013  23:58:00     -179.102      131.285      -30.881      105.141       93.276       50.552    11054.546     8700.320     2555.520        3.628        1.116      222.066       60.043        0.073      337.914       10.209      860.402
10/02/2013  23:59:00      -82.104      137.904      -10.001       56.988       79.402       32.658     3247.625     6304.642     1066.568        1.824        0.531      160.494       29.972        0.035      337.872       10.138      860.406
